GFSSE_850_thetae_003.txt.gz
Theta_e
338 339 339 338 335 333 333 334 334 334 333 333 331 331 331 331 330 324 320 317 315 312 307 305 306 306 307 307 308 310 311 313 315 315 315 318 324 327 327 328 328 326 324
337 339 339 338 336 335 336 337 336 335 334 333 331 327 323 320 318 316 314 314 310 307 307 308 308 309 309 309 308 308 310 313 317 320 319 318 320 325 326 326 326 326 325
338 339 338 338 337 337 338 338 336 335 334 332 324 318 317 315 312 312 314 311 308 307 308 307 307 308 308 308 308 308 308 310 314 320 322 323 322 324 325 325 326 323 324
336 338 339 337 337 340 340 337 336 335 332 324 319 316 314 311 312 313 311 308 308 308 307 307 307 307 309 309 309 308 307 307 308 311 319 325 325 325 325 326 324 324 324
337 338 339 339 339 340 338 338 336 332 326 320 316 313 313 310 311 312 309 308 307 307 307 308 309 309 310 310 310 310 310 310 309 308 310 317 324 326 326 326 325 324 324
337 338 339 339 339 338 337 335 331 326 322 318 312 312 312 308 311 309 307 307 310 311 310 310 310 310 311 311 310 309 309 309 310 310 311 310 314 324 325 324 322 324 324
335 337 338 338 337 336 334 330 326 324 320 314 311 313 308 308 309 310 312 312 311 309 310 310 309 309 309 310 310 310 309 309 310 311 313 314 315 317 316 318 320 324 324
336 337 337 336 335 333 329 327 323 320 315 309 312 310 309 310 312 313 313 312 311 311 311 311 311 311 311 311 311 311 311 311 310 309 309 310 312 314 315 316 322 320 321
336 336 336 334 330 328 328 321 319 315 311 310 310 312 312 313 313 313 312 312 312 312 312 313 313 313 313 313 313 312 311 310 310 311 310 310 309 310 311 313 321 322 320
335 335 333 329 330 330 324 320 313 311 309 310 311 314 314 313 313 312 312 312 312 313 314 315 315 315 315 315 314 313 313 313 312 310 310 311 313 311 310 311 314 316 314
336 329 324 327 323 318 317 314 310 309 309 310 314 315 314 314 313 313 313 313 313 313 314 315 315 316 316 314 313 313 313 313 313 313 312 312 312 313 313 313 312 310 309
326 320 319 320 319 316 315 310 308 308 310 314 317 316 315 315 314 314 314 313 314 314 314 314 314 314 314 313 312 311 312 311 311 312 314 312 314 313 313 313 312 312 310
317 315 315 311 311 312 311 311 312 312 317 318 319 318 318 317 316 315 315 315 315 314 313 312 312 312 312 311 311 311 310 310 310 312 313 315 314 315 314 312 309 310 311
314 317 317 315 312 310 314 318 320 321 322 323 319 320 321 319 317 317 317 316 315 314 313 313 312 312 311 311 311 311 310 310 311 313 314 314 315 315 315 312 309 309 311
318 319 317 320 321 321 324 325 325 325 326 326 326 323 321 322 320 318 318 318 318 317 315 314 313 312 310 309 310 310 310 311 313 313 312 312 312 311 311 311 311 309 308
321 323 320 319 322 324 325 326 326 324 324 325 325 325 322 321 320 320 319 319 319 318 316 313 311 308 307 307 308 309 309 309 309 309 309 309 309 308 308 308 309 310 311
322 324 324 318 322 324 325 324 321 319 320 321 321 324 322 321 320 320 319 320 319 314 310 309 307 306 306 307 307 307 307 306 306 305 304 305 305 304 303 303 304 307 311
323 324 325 322 318 322 321 321 322 319 321 321 324 322 320 319 319 318 315 311 310 309 307 307 306 306 306 306 306 306 306 305 305 305 304 303 304 304 304 303 302 303 306
324 325 326 325 321 319 321 320 321 321 320 317 316 314 312 311 311 310 310 309 307 307 308 307 306 306 305 305 305 305 304 303 303 303 303 303 303 303 303 302 302 305 306
320 322 326 325 324 322 322 322 322 317 316 317 313 310 310 310 309 309 309 308 308 307 306 306 305 303 302 301 301 302 303 303 302 302 302 302 301 301 302 301 302 303 304
321 322 322 323 324 321 319 318 317 317 317 315 310 309 309 310 309 309 308 307 306 305 305 304 304 303 302 301 299 299 299 298 300 301 298 299 299 298 298 299 300 300 300
325 325 323 320 317 316 316 315 315 313 309 310 310 310 310 309 309 308 306 305 304 304 304 304 303 300 299 297 296 298 298 298 299 297 300 298 296 295 296 296 296 295 295
319 318 316 314 315 313 311 311 312 312 311 310 310 309 308 308 306 305 304 304 302 301 301 300 298 297 298 296 295 295 296 297 297 296 296 296 296 294 294 293 292 291 292
312 311 312 311 312 312 312 312 311 311 310 309 308 306 305 305 304 303 303 301 299 300 299 299 298 297 295 295 294 294 292 294 293 293 293 293 293 292 291 292 290 289 291
312 312 313 313 312 312 311 311 310 309 308 306 304 303 303 303 303 302 301 298 297 300 300 299 296 293 292 292 290 290 291 290 290 291 289 290 290 290 290 289 290 290 290
313 313 313 313 312 312 311 310 309 308 306 305 303 301 301 300 299 297 296 296 298 299 300 298 296 296 294 291 288 288 289 288 288 289 289 289 288 288 288 288 288 288 286

GFSSE_850_thetae_006.txt.gz
Theta_e
343 339 338 332 329 332 333 333 332 332 332 331 329 329 329 330 326 319 318 315 313 308 306 308 309 309 309 309 309 309 311 314 317 318 317 317 322 326 327 326 326 330 324
342 339 338 334 329 331 333 334 334 334 333 330 329 327 323 319 317 314 313 313 307 307 308 308 308 308 308 308 308 308 308 310 313 318 321 323 323 326 326 325 326 325 322
339 340 338 335 332 333 335 336 335 334 333 330 325 320 317 314 312 313 311 308 307 308 307 307 307 308 309 309 310 309 308 308 308 311 320 327 328 325 326 325 326 323 324
339 338 337 336 334 335 337 337 335 334 332 326 319 316 313 311 313 311 308 308 308 307 307 307 309 310 310 311 311 311 311 310 310 310 320 326 329 327 325 325 325 324 324
340 341 338 337 336 337 339 336 335 332 327 320 316 314 310 312 312 309 308 308 307 310 310 310 310 311 310 310 310 310 310 310 311 320 320 318 326 328 326 326 325 323 323
338 338 338 337 337 338 337 336 333 328 323 317 313 313 309 312 310 307 307 310 311 310 310 309 309 310 310 311 310 310 309 309 315 319 321 322 325 319 320 317 317 318 322
338 338 338 338 337 337 336 333 330 326 321 315 313 313 308 310 308 309 312 311 310 311 311 310 311 311 311 312 312 312 311 310 315 314 315 318 315 315 316 316 321 318 323
336 337 338 337 336 335 333 329 326 324 319 312 314 310 309 309 312 313 312 311 312 311 311 312 312 312 314 313 313 312 312 312 317 317 315 315 309 310 312 315 320 323 319
336 337 336 336 335 333 331 328 325 321 316 312 313 311 310 313 314 313 312 312 312 312 313 314 314 315 315 314 313 312 312 314 319 318 316 316 311 310 310 312 316 319 318
337 336 335 333 330 329 328 326 321 317 314 314 313 314 315 315 313 313 313 312 312 314 315 316 316 316 315 314 313 312 312 318 318 318 318 316 311 312 313 313 312 311 310
336 336 334 333 331 329 331 324 321 315 313 313 316 317 317 325 321 322 313 313 313 314 315 315 315 315 314 319 317 312 316 316 317 317 317 316 313 313 313 313 313 312 311
335 334 331 328 328 326 328 326 320 317 324 324 324 320 326 320 321 315 315 313 314 314 314 313 312 313 319 320 319 316 316 314 315 316 316 314 314 313 315 314 312 310 311
336 337 336 334 321 328 325 325 323 322 321 321 319 321 323 320 322 325 324 323 322 316 321 317 317 318 313 313 315 314 312 312 312 312 313 313 313 315 315 315 314 311 310
331 328 319 324 322 317 323 323 317 322 321 320 321 321 320 320 319 319 323 322 318 319 315 315 317 314 313 312 308 308 308 309 310 310 311 311 312 311 312 312 313 312 311
328 329 325 315 312 315 321 322 324 325 326 325 324 321 319 320 322 323 321 319 318 318 317 316 316 314 312 311 309 307 308 308 308 310 311 311 310 308 308 308 309 309 310
328 319 319 320 321 325 326 326 326 323 322 323 325 326 324 321 319 318 320 318 318 318 318 315 311 310 309 308 308 308 308 308 307 308 309 309 306 304 303 303 304 303 303
329 325 319 322 324 325 323 321 321 320 321 321 321 323 322 322 320 320 316 317 316 313 310 309 308 309 309 308 308 307 307 307 306 309 308 308 307 307 305 305 305 305 304
328 326 322 318 323 324 323 320 319 320 320 321 319 319 319 318 318 315 312 310 310 309 307 308 308 308 308 307 307 306 306 305 305 309 308 307 307 306 307 306 305 305 304
328 326 326 323 321 319 321 318 320 321 320 318 317 314 312 311 311 310 309 309 308 307 307 307 307 306 306 306 305 304 305 305 305 306 307 307 307 306 306 305 303 302 303
329 328 325 325 323 324 323 321 322 320 317 316 313 310 310 310 310 309 309 308 307 307 306 306 306 306 305 305 305 304 305 303 303 304 305 305 304 303 303 303 302 302 301
329 327 324 323 323 324 320 319 318 317 316 315 309 309 309 309 308 308 307 307 307 307 307 306 305 305 304 304 302 301 301 300 302 303 303 301 301 302 300 300 300 299 298
327 326 326 324 324 321 319 318 317 316 313 309 310 310 310 309 308 307 307 307 307 306 306 306 304 302 301 302 301 300 299 299 299 301 300 299 299 299 298 297 297 296 296
328 328 326 323 319 317 315 312 311 311 311 311 309 308 308 307 306 306 306 305 305 305 304 304 302 301 300 300 299 298 298 298 297 297 297 296 297 295 295 294 294 293 293
327 325 321 317 314 311 310 311 311 312 311 309 308 307 307 306 304 304 304 303 302 302 302 302 300 300 298 297 297 297 296 295 296 295 295 295 293 293 292 292 293 291 291
317 315 313 312 311 310 311 311 311 309 308 307 306 305 305 304 303 303 302 302 301 300 301 301 300 298 297 297 296 295 295 294 293 292 292 293 292 292 291 291 290 291 291
313 312 311 311 311 312 312 311 309 307 304 302 300 299 298 296 296 296 297 300 301 301 302 300 298 297 296 295 293 292 292 292 291 291 291 291 291 291 290 290 290 290 290

GFSSE_850_thetae_009.txt.gz
Theta_e
343 337 328 329 329 330 331 332 332 332 331 330 329 329 329 329 321 318 316 313 309 306 308 309 309 309 308 308 308 308 309 310 314 319 318 317 318 323 326 325 327 329 322
343 337 329 329 331 332 333 333 333 333 331 330 329 327 323 319 316 313 313 308 307 308 308 307 308 309 310 310 310 310 309 308 308 314 325 329 331 326 324 324 325 324 322
343 338 332 329 331 332 333 334 334 333 332 330 324 319 316 313 312 313 309 307 308 307 307 307 309 310 311 310 310 310 310 310 310 320 323 329 331 325 325 325 325 324 322
342 338 335 330 330 333 334 335 334 333 332 324 318 315 312 312 313 309 308 308 308 308 309 310 310 310 310 310 310 310 310 312 319 321 322 323 331 328 326 326 326 325 323
340 338 337 333 333 334 336 335 334 333 328 320 316 314 311 313 310 308 308 308 310 310 310 310 310 311 311 311 312 311 310 316 319 321 323 322 327 323 321 320 320 317 317
340 340 336 335 335 336 336 335 334 330 323 318 314 312 310 313 308 307 309 311 310 310 310 310 311 312 313 313 312 312 312 315 317 316 318 323 324 315 314 315 317 318 321
337 334 336 335 336 337 335 334 331 327 321 315 314 312 310 311 307 310 312 310 311 311 311 312 312 313 313 313 312 312 312 315 319 319 317 320 309 310 312 313 316 321 319
334 336 337 330 334 336 333 332 329 326 319 313 314 310 310 308 312 313 311 311 312 312 312 312 314 314 313 312 312 312 316 317 321 320 318 318 310 310 310 313 315 318 321
328 335 336 336 335 333 331 330 327 324 316 313 313 309 310 314 313 313 311 312 312 313 314 315 315 315 314 313 313 312 317 318 319 319 319 319 313 311 312 311 311 312 312
337 333 336 335 333 331 329 327 325 320 313 313 312 312 315 315 313 313 313 312 313 314 315 315 315 315 314 321 320 317 317 317 317 318 319 319 317 313 313 313 312 312 311
337 335 334 333 333 331 330 324 317 314 312 312 316 316 321 327 326 326 320 313 313 314 315 314 313 313 318 322 320 317 317 317 316 316 317 317 311 313 314 314 313 312 311
335 335 334 333 331 331 331 326 327 322 325 326 328 327 327 325 325 318 322 314 314 315 315 317 317 319 320 319 318 317 316 315 314 313 314 313 311 313 314 315 316 315 312
335 333 332 328 331 331 328 325 323 323 325 327 328 328 326 327 327 326 325 325 325 323 323 321 320 320 320 318 317 316 315 314 312 312 312 312 310 311 311 311 312 314 314
333 332 331 330 330 328 324 324 324 327 328 328 329 327 328 327 318 317 325 324 323 323 321 320 320 319 317 315 314 314 313 312 311 311 311 312 311 310 308 306 307 308 309
330 329 329 328 327 327 326 328 329 330 330 328 329 328 325 326 319 320 319 317 318 321 320 320 319 316 313 313 312 311 311 310 310 310 310 311 310 309 306 304 303 304 304
329 329 328 326 327 329 330 330 328 322 322 323 322 324 326 324 322 319 318 320 320 320 319 316 314 312 311 311 310 309 309 309 309 309 310 310 309 309 308 307 306 305 305
329 328 327 330 330 330 328 324 321 320 318 323 323 322 324 324 322 321 320 318 318 316 312 311 311 310 310 310 309 309 309 308 308 308 309 310 309 309 308 307 307 307 305
329 327 328 329 328 325 322 320 320 319 318 320 319 317 318 317 317 317 316 316 312 309 308 309 309 309 309 309 309 308 307 306 307 307 307 308 309 309 308 307 306 306 304
330 329 328 327 323 324 322 322 320 319 320 318 316 313 311 311 311 311 312 312 310 311 311 310 309 309 309 309 308 307 307 305 306 306 305 306 308 307 307 305 304 303 303
330 329 329 328 323 321 327 322 321 319 317 316 314 312 310 312 310 311 312 311 310 310 310 310 310 309 308 308 306 306 304 303 302 302 304 306 305 304 304 303 302 302 301
331 330 330 328 327 327 325 322 320 319 317 315 313 309 310 310 310 310 311 311 310 310 309 309 309 308 307 304 303 303 302 302 301 301 302 304 303 302 301 301 300 299 299
331 331 329 328 327 324 322 320 320 319 316 313 312 311 310 310 310 309 309 309 309 308 307 307 307 306 304 302 302 302 300 299 299 299 299 299 299 299 299 298 297 296 296
331 330 329 327 324 321 320 318 315 312 313 314 313 311 311 310 309 308 308 307 307 306 304 303 304 304 302 301 300 299 299 299 298 297 297 297 297 297 297 296 295 294 295
330 329 325 323 320 318 315 315 315 315 314 312 311 310 309 307 306 304 303 303 303 304 303 302 303 302 301 300 299 299 298 298 297 296 295 295 295 295 295 294 293 293 292
328 326 322 319 315 314 314 314 314 313 311 309 306 303 301 300 299 298 298 298 299 302 303 303 303 302 300 299 298 297 296 295 294 294 294 294 294 294 293 293 293 292 292
323 320 318 315 314 313 313 312 311 308 305 303 301 299 298 298 298 298 298 298 299 300 302 302 302 300 299 298 296 295 294 293 293 293 293 293 293 293 292 292 292 292 291

GFSSE_850_thetae_012.txt.gz
Theta_e
342 332 329 332 329 328 328 329 330 330 329 328 328 327 326 320 316 313 312 307 307 308 308 308 309 310 310 311 310 310 309 308 313 320 327 328 329 327 320 323 326 325 321
341 330 328 330 328 329 331 331 331 331 330 329 328 324 319 315 312 313 307 307 308 307 307 309 310 310 310 310 310 310 310 311 321 325 326 331 330 325 320 320 323 324 322
339 330 329 329 330 332 332 333 332 331 330 329 323 317 314 311 313 308 307 307 307 308 310 310 310 310 310 310 309 311 318 320 321 323 324 331 330 327 325 324 325 325 323
338 330 329 330 332 333 334 334 333 332 330 323 317 314 311 312 310 308 308 308 309 310 310 310 311 312 313 313 313 313 317 318 321 323 323 329 329 321 323 322 320 320 319
338 332 329 331 332 334 335 334 333 331 326 318 314 311 312 311 308 308 308 310 310 310 310 312 313 313 313 313 313 312 316 318 317 318 319 319 319 312 314 316 317 316 319
339 336 330 331 333 335 335 334 333 329 321 315 313 310 312 310 308 309 311 310 310 311 312 313 313 313 313 313 313 314 316 319 319 318 318 318 310 309 311 314 317 320 319
338 336 332 332 334 336 335 333 331 326 319 312 312 309 311 309 308 311 310 311 311 312 312 313 314 313 312 313 312 314 316 320 320 320 319 318 317 310 309 312 315 319 320
336 332 329 334 335 335 334 331 329 324 316 311 312 308 310 309 312 311 311 312 312 312 313 314 314 314 313 318 318 315 317 316 318 320 320 319 319 313 310 310 310 312 313
331 326 328 326 330 334 332 330 327 322 311 312 310 309 311 313 313 311 311 312 313 314 314 315 314 314 314 321 319 316 317 317 317 319 318 320 318 311 313 312 312 311 311
329 333 333 329 334 331 329 326 323 317 310 312 311 313 314 314 313 314 313 312 313 314 314 314 313 313 320 322 320 317 317 316 315 315 316 316 315 311 313 314 314 313 311
327 327 333 329 330 329 326 321 318 314 311 312 314 323 327 326 327 327 325 312 313 314 313 316 317 319 320 320 319 317 317 316 313 313 313 313 312 311 311 313 314 315 315
331 332 331 331 330 328 322 322 314 321 323 328 320 328 328 327 325 323 325 318 324 322 322 323 321 321 321 319 318 316 315 314 312 312 312 312 311 311 310 310 310 310 313
331 331 329 328 329 331 326 324 323 325 324 325 322 329 328 327 328 327 325 326 325 324 323 321 321 320 319 316 314 313 313 312 311 311 310 311 312 311 310 309 306 306 307
333 333 330 331 330 327 324 323 326 327 328 329 325 325 327 328 324 321 323 325 323 321 321 320 320 319 315 313 312 312 311 311 310 310 310 310 310 310 309 308 306 304 304
332 330 330 329 327 325 324 327 328 328 328 329 329 329 328 326 320 320 320 319 320 320 320 320 318 317 315 311 310 310 309 309 309 309 309 309 311 310 309 308 308 307 307
329 329 329 325 326 327 329 328 328 325 323 323 319 320 322 326 325 323 320 319 317 314 317 318 315 310 310 310 310 310 309 309 308 308 308 308 310 310 309 309 308 307 307
330 329 324 326 331 329 328 324 321 320 320 321 320 320 321 322 323 322 320 317 315 313 316 310 309 309 310 309 309 309 308 308 307 306 307 307 308 309 310 309 308 307 306
329 327 329 330 329 327 323 320 320 321 318 319 319 317 317 318 317 317 313 311 311 311 311 311 310 310 310 309 309 308 308 307 307 305 306 306 305 306 308 308 306 304 303
328 329 330 330 327 324 321 321 322 320 320 318 317 314 311 310 310 310 313 312 311 310 311 310 311 310 309 308 308 307 306 306 304 303 303 302 304 307 306 304 304 304 302
329 329 330 329 325 322 326 324 321 318 317 315 314 312 314 312 310 310 312 311 311 311 310 310 309 309 308 308 307 304 303 303 302 301 302 302 303 304 304 302 301 301 300
331 329 330 329 323 325 327 321 319 318 317 315 313 310 311 310 311 310 310 310 310 310 309 308 306 307 307 306 303 302 301 301 301 300 300 299 299 299 299 299 299 298 297
331 330 330 329 328 328 324 321 320 319 316 314 313 312 312 311 310 309 308 308 307 307 306 305 304 303 303 304 302 300 300 300 300 299 298 297 297 297 297 297 297 296 295
332 331 330 329 328 323 321 320 320 317 314 314 313 312 311 310 309 307 306 304 304 302 304 304 303 303 304 303 301 300 299 299 298 297 296 296 295 295 295 295 295 294 293
331 331 329 328 324 321 318 316 316 316 315 314 312 311 308 306 304 302 299 298 298 299 301 302 303 303 303 302 300 299 299 297 296 295 295 294 294 293 293 293 293 293 292
330 329 327 324 321 318 316 316 315 314 312 310 308 305 301 300 298 298 298 297 295 295 296 300 302 303 302 300 300 298 296 295 294 293 293 293 292 292 292 293 292 292 291
330 327 324 320 316 315 315 315 314 313 310 306 304 301 299 298 298 297 297 295 296 298 300 301 302 302 301 299 299 297 295 294 293 293 293 293 292 292 292 291 291 291 291

GFSSE_850_thetae_015.txt.gz
Theta_e
333 329 332 335 335 331 328 326 328 327 327 326 324 321 315 312 311 308 307 308 307 308 310 310 310 310 310 310 310 310 319 323 326 325 327 330 328 324 322 323 323 323 322
332 330 333 333 329 328 327 329 329 328 327 325 320 315 312 311 310 307 307 307 308 310 310 310 310 310 310 312 316 316 320 322 323 323 330 331 327 326 324 322 323 324 323
337 330 332 329 328 328 329 330 330 329 326 320 315 312 310 311 307 307 308 309 310 310 310 312 313 313 313 313 319 320 320 321 323 322 326 327 326 317 324 323 322 321 321
334 330 328 329 330 331 331 331 331 329 323 317 313 310 311 309 308 308 309 310 310 311 313 313 313 313 313 313 315 317 318 318 322 318 321 325 311 311 313 313 314 314 316
329 328 328 330 332 332 333 332 331 328 319 315 311 310 311 308 308 309 310 310 311 312 313 313 313 313 312 313 314 318 319 320 319 319 318 318 315 309 311 315 316 317 317
328 328 330 332 333 334 333 332 330 323 317 312 309 311 309 308 309 310 310 311 312 313 314 314 313 313 315 314 315 318 320 319 320 320 319 318 318 311 309 311 315 319 319
331 330 332 333 334 335 333 332 328 320 314 311 309 311 309 309 311 310 311 312 313 314 314 314 313 313 319 318 316 317 315 317 318 320 320 319 318 312 310 310 310 311 312
331 331 332 334 335 333 331 330 325 318 311 310 308 310 308 311 310 311 312 313 313 314 314 314 313 315 320 319 317 317 316 315 316 318 320 318 316 315 309 311 312 311 310
331 332 332 331 331 324 326 328 323 316 309 310 308 309 312 312 310 310 312 313 314 314 314 314 313 319 321 320 317 317 316 314 314 315 314 314 313 313 311 309 313 314 313
330 328 328 327 331 328 330 326 320 311 310 309 310 312 312 312 312 312 311 312 313 314 313 315 317 319 320 319 319 317 316 316 313 313 313 313 312 311 311 309 312 314 314
327 325 322 323 326 328 326 322 316 309 310 312 315 318 323 325 325 324 316 314 314 320 319 321 320 321 321 319 316 315 314 313 311 312 312 312 311 311 311 310 309 310 310
328 323 322 327 329 326 321 315 311 310 314 318 327 326 326 327 323 324 324 325 324 324 323 321 320 321 318 316 314 313 312 312 310 309 310 310 311 310 310 309 308 307 306
331 328 327 327 326 320 314 315 318 321 322 326 328 329 326 327 326 326 325 325 324 322 321 321 320 320 317 314 313 312 311 310 310 309 309 309 309 310 310 309 308 307 306
329 327 328 330 327 323 323 324 326 326 323 322 330 329 327 321 326 321 324 324 323 321 320 320 320 318 316 315 312 309 309 309 309 309 309 309 309 308 310 309 309 308 308
331 329 330 330 326 325 324 325 328 328 330 330 326 328 328 325 322 319 320 320 319 319 318 318 319 318 315 310 309 309 309 309 308 307 307 308 307 307 308 309 309 308 308
330 330 331 326 325 324 327 327 327 329 329 326 319 319 321 322 323 323 322 320 318 315 313 314 315 310 309 309 309 308 308 308 308 307 307 306 307 307 307 309 308 308 307
330 328 324 326 327 324 326 325 324 323 321 319 318 320 321 323 323 322 321 318 312 311 311 310 310 310 309 309 308 308 307 308 307 307 306 305 303 303 304 309 308 306 306
329 324 324 327 327 325 324 323 319 319 320 318 319 318 319 320 318 314 311 310 310 310 309 310 310 310 310 309 306 307 306 305 305 306 304 303 302 305 305 306 305 304 302
325 324 330 330 328 325 322 320 321 321 319 319 317 314 312 310 309 310 311 311 311 310 310 310 310 310 308 307 308 307 305 303 303 301 301 302 303 302 299 301 301 301 301
324 329 330 329 325 324 321 323 321 319 318 317 314 312 311 310 310 310 311 310 310 310 310 309 309 305 305 306 306 305 302 301 301 300 300 300 300 299 298 298 298 298 298
327 328 329 326 325 322 324 321 319 317 315 313 313 310 311 311 311 310 309 309 307 305 305 305 303 304 304 302 302 303 302 300 300 300 299 299 298 297 297 296 295 296 296
328 328 328 326 325 323 326 320 318 317 316 313 312 312 311 311 310 308 307 305 304 303 301 301 302 302 301 302 303 303 300 299 299 299 299 299 296 295 295 294 294 294 293
330 329 328 326 324 327 327 321 318 317 315 313 312 312 311 311 309 306 303 301 299 299 299 299 300 301 303 303 302 301 299 298 297 297 295 295 294 294 294 293 293 293 292
330 330 330 329 326 327 323 321 319 317 314 313 312 312 311 309 304 301 298 297 296 295 294 295 297 300 302 302 302 301 299 298 295 294 293 293 293 293 292 292 292 292 292
331 331 330 329 328 321 320 320 316 315 315 313 312 312 307 306 301 298 297 296 295 294 295 297 300 302 303 302 301 299 298 298 295 294 293 293 292 292 292 292 291 291 291
330 331 329 329 326 321 318 316 315 315 315 314 312 308 310 308 300 296 295 295 294 294 298 300 301 302 301 300 297 296 297 294 294 293 292 292 291 291 290 290 291 290 290

GFSSE_850_thetae_018.txt.gz
Theta_e
333 335 337 337 335 331 325 325 325 325 325 320 315 311 310 310 307 308 308 309 310 310 310 310 310 312 311 313 320 321 322 322 323 329 330 327 325 324 322 322 323 323 323
332 332 333 336 333 329 326 327 326 326 324 317 312 310 310 307 307 308 309 310 310 311 312 313 313 315 319 320 319 320 323 322 319 325 325 319 314 318 323 323 323 323 324
330 331 334 335 330 327 328 327 327 327 320 314 311 310 309 307 308 309 310 310 311 313 313 313 313 313 317 316 319 318 321 319 317 317 318 312 309 311 313 314 315 318 318
329 333 335 331 328 328 328 329 328 324 317 312 310 310 308 308 309 310 310 311 313 313 313 313 313 313 314 318 320 319 320 319 319 318 317 317 317 309 310 313 316 317 318
330 333 331 328 328 329 330 330 328 319 314 310 311 309 308 309 310 310 311 313 314 314 313 313 315 314 314 318 318 319 319 320 320 319 318 318 318 310 309 310 314 317 318
331 330 328 327 330 331 331 331 323 316 311 309 311 309 309 310 310 311 312 314 314 314 313 313 316 317 315 315 316 315 317 318 320 319 319 318 316 314 309 309 309 310 312
330 327 327 330 332 332 332 328 319 314 310 309 311 309 309 310 311 312 313 314 314 314 313 314 317 318 317 316 316 315 315 316 316 316 315 314 313 312 311 309 311 311 310
329 330 331 332 333 332 328 321 319 314 309 309 310 309 311 310 312 313 313 313 314 314 314 314 318 319 318 317 316 316 314 313 315 313 313 313 312 312 311 309 310 312 313
330 333 331 328 325 322 324 321 320 311 310 308 310 310 311 310 312 312 313 314 314 314 313 315 318 319 319 318 317 317 316 314 312 312 313 312 311 311 310 310 309 312 313
331 329 327 324 321 319 321 322 314 310 309 308 310 312 311 310 311 311 312 313 314 313 318 320 319 319 320 319 318 315 313 312 311 310 311 311 310 310 310 310 309 309 310
331 329 328 323 322 326 326 319 311 310 310 312 314 313 317 321 320 313 315 321 323 322 322 320 321 321 320 320 318 315 312 311 311 309 308 309 309 309 310 309 309 308 307
325 326 324 325 320 326 324 314 311 311 316 322 324 324 326 324 323 321 324 323 323 323 321 320 320 320 318 315 313 313 311 310 309 309 308 309 309 309 309 309 309 309 308
320 323 325 325 327 325 316 311 312 317 327 328 327 327 326 323 322 324 325 325 323 322 321 321 320 319 315 313 313 311 309 308 309 309 308 309 309 308 308 308 309 309 309
321 325 328 326 322 317 316 314 320 320 327 328 328 326 326 327 326 324 323 324 323 321 320 320 319 317 317 316 311 309 309 309 309 308 308 307 307 307 307 310 309 309 308
326 324 326 324 321 320 323 323 325 325 326 329 327 327 327 323 324 320 321 320 320 319 318 316 315 317 315 311 309 309 308 308 308 308 307 306 306 306 306 306 307 308 307
326 326 328 325 323 325 326 327 328 328 327 326 323 319 321 323 323 320 321 321 319 316 313 311 312 310 309 309 309 308 305 306 307 307 307 307 305 305 303 306 307 307 306
328 329 329 325 325 324 326 328 329 329 327 319 318 318 320 322 321 321 321 318 313 310 309 310 309 309 309 309 309 309 305 307 306 306 306 305 304 303 306 307 306 305 304
329 330 327 325 325 326 327 328 328 327 322 319 319 320 320 321 319 317 316 311 310 310 310 309 309 309 309 310 306 305 306 305 304 303 302 301 302 303 304 305 303 302 302
324 326 325 325 324 325 327 326 321 320 320 318 318 315 315 313 311 309 310 310 310 309 309 308 309 309 309 304 304 305 306 303 302 301 301 300 299 298 298 303 302 299 298
326 323 326 326 326 325 325 322 322 320 318 318 317 313 310 310 310 311 310 310 309 308 308 308 306 304 300 302 302 302 302 302 301 300 299 299 298 297 296 296 296 295 295
325 318 324 327 327 327 323 321 322 320 319 317 313 311 310 311 311 310 310 310 307 303 301 300 299 299 300 299 300 302 303 302 300 299 299 298 298 297 295 294 294 293 293
323 324 328 329 329 326 322 322 320 318 316 313 312 310 311 311 311 310 309 307 303 300 299 298 298 298 299 301 302 302 301 300 299 298 297 296 296 295 294 294 293 292 292
327 325 326 328 326 325 322 322 317 316 314 313 311 311 311 312 311 310 307 303 300 297 296 296 295 297 299 302 302 302 300 298 298 297 295 294 294 294 292 292 291 292 291
328 328 326 325 325 323 323 321 319 318 317 315 313 312 312 312 308 308 303 298 297 296 295 294 295 296 299 302 302 301 300 299 298 296 295 294 292 292 291 291 291 291 291
329 329 328 327 325 323 325 326 321 319 318 316 313 312 312 309 307 304 299 297 296 295 294 294 296 299 301 301 301 300 298 296 296 295 294 292 291 291 290 290 289 288 289
329 330 328 329 327 327 327 326 323 319 317 314 313 312 310 308 306 301 297 295 294 294 293 296 298 300 298 296 297 295 295 295 295 293 293 292 292 291 291 290 290 289 289

GFSSE_850_thetae_021.txt.gz
Theta_e
336 338 336 337 334 327 324 323 323 323 321 316 312 310 309 307 309 310 310 310 310 310 312 312 311 318 320 320 321 322 319 320 327 319 310 309 315 322 322 322 323 323 319
335 337 336 337 333 327 325 324 324 323 319 312 310 309 307 309 310 310 310 311 313 313 314 318 319 319 319 319 320 320 317 317 317 316 317 313 310 313 315 317 320 318 318
336 336 337 336 331 326 326 325 326 322 315 310 310 307 308 309 310 310 312 313 313 313 313 315 316 317 318 317 318 318 318 318 318 317 317 316 310 309 311 313 314 315 316
337 337 337 335 329 326 326 326 325 319 312 310 309 307 309 310 310 311 313 314 313 313 313 313 315 318 319 318 319 319 319 319 318 318 318 317 313 309 309 311 314 316 316
337 337 336 333 327 326 327 327 323 315 310 310 308 308 309 310 310 312 314 314 313 314 315 314 316 317 318 319 319 318 318 319 318 319 316 314 314 311 309 309 309 310 311
336 337 336 331 326 327 329 327 318 312 310 310 308 309 310 310 311 313 314 313 313 314 316 316 315 315 315 315 313 317 317 316 317 314 313 312 312 311 310 308 310 310 309
334 337 333 328 328 329 329 321 314 310 310 309 308 309 310 311 312 313 314 314 313 314 316 317 317 316 316 315 315 314 313 314 313 312 312 312 312 311 310 309 308 310 311
334 332 328 328 330 331 324 316 312 309 310 309 309 310 310 311 312 313 314 314 314 314 315 316 317 317 317 317 316 315 315 312 310 311 312 311 311 311 309 309 309 309 309
329 329 332 333 332 324 318 314 312 311 308 309 309 310 310 311 312 313 314 314 313 313 315 317 318 319 319 318 318 315 313 312 310 308 310 311 310 309 308 309 309 308 308
331 328 325 324 322 321 319 318 317 310 309 308 311 310 311 312 312 313 314 313 315 317 318 319 319 319 319 319 318 315 314 313 310 308 308 308 309 310 309 309 309 308 307
329 326 325 325 323 321 318 317 312 309 309 311 312 311 314 313 312 312 314 317 317 319 320 320 320 320 320 318 316 314 312 311 309 308 308 308 308 311 308 308 307 308 308
327 324 322 318 318 319 318 315 311 309 312 313 317 321 321 318 313 316 318 318 320 321 321 321 320 320 319 316 314 313 311 309 308 308 308 308 308 309 308 308 307 308 309
327 324 320 322 323 322 319 312 311 312 321 323 325 325 323 322 321 322 321 322 322 322 321 320 320 319 316 314 314 311 309 309 308 308 308 308 307 308 309 308 307 307 308
325 326 321 322 323 323 316 312 315 322 326 326 326 325 323 321 321 322 324 324 322 321 320 319 319 318 317 315 311 309 309 307 306 308 307 307 307 306 309 310 308 308 307
324 324 323 324 325 321 312 314 322 327 328 328 326 325 324 322 324 324 323 323 322 320 319 317 315 315 313 309 309 309 308 304 304 306 307 307 306 305 305 307 308 310 308
323 322 325 322 319 316 320 325 324 326 327 327 325 325 325 324 324 321 320 319 319 318 315 312 311 310 309 309 309 308 307 305 306 306 306 306 306 304 304 308 309 308 308
323 324 323 320 318 322 324 325 326 324 324 325 325 326 327 326 323 321 322 320 318 311 309 310 309 309 309 309 309 308 304 305 305 303 303 302 301 303 305 307 305 306 305
324 325 324 323 324 325 325 326 327 327 328 325 319 320 321 322 322 321 319 317 310 310 310 309 308 308 309 308 303 304 306 305 303 302 301 301 300 302 305 304 304 302 301
324 325 327 325 325 324 324 327 329 328 326 321 319 320 320 321 317 313 310 310 310 309 309 307 307 306 304 301 302 302 302 302 301 301 300 300 299 299 298 299 300 298 296
326 327 328 326 325 325 325 328 328 323 320 319 318 317 316 313 310 310 310 309 309 308 306 303 301 300 298 298 298 298 301 302 302 301 300 299 298 298 298 297 295 294 294
326 327 326 324 325 326 327 327 324 320 320 318 315 313 311 310 310 311 310 310 308 307 304 301 298 298 297 297 296 299 301 301 300 299 299 298 297 297 296 294 294 293 292
324 326 327 325 326 327 327 326 324 321 319 316 314 312 310 310 311 311 310 309 310 309 305 300 298 297 296 296 297 299 301 300 299 299 298 298 296 295 294 294 292 291 291
327 324 321 324 325 325 326 325 321 320 317 315 313 311 310 311 311 310 309 310 308 304 299 297 296 295 295 296 298 300 301 299 299 299 297 296 295 294 293 291 290 290 291
328 326 317 319 323 326 327 325 322 321 317 315 312 311 310 311 311 309 308 307 305 301 297 295 295 295 296 299 301 301 300 299 298 296 296 295 294 291 291 290 290 289 288
328 326 321 323 326 328 327 325 323 319 317 315 314 311 311 311 311 307 306 303 299 296 295 294 295 297 299 299 298 298 297 296 295 295 294 293 293 292 291 290 290 289 289
328 327 324 325 326 327 326 324 322 322 320 317 315 313 312 311 310 305 302 298 295 295 299 294 296 297 298 298 295 295 295 295 294 294 294 293 293 292 291 291 291 289 288

GFSSE_850_thetae_027.txt.gz
Theta_e
336 335 331 327 324 325 325 325 324 322 320 317 313 308 308 310 310 310 310 310 311 313 316 317 318 316 315 317 320 316 317 317 316 310 309 309 310 311 312 313 314 318 325
337 336 333 329 324 323 323 323 321 318 315 312 309 308 310 310 310 311 311 312 314 315 315 316 316 315 316 316 317 317 317 318 316 315 310 309 309 310 311 312 312 312 313
338 335 333 328 323 323 323 322 318 314 311 309 308 310 310 310 312 314 314 315 315 315 314 314 315 316 317 317 318 318 318 317 315 313 312 317 310 309 309 309 310 312 313
338 335 333 326 323 323 323 320 315 311 309 308 309 310 310 312 313 314 315 315 314 314 314 315 316 316 316 317 318 317 315 314 313 311 311 316 312 308 308 309 309 308 309
337 335 332 325 323 324 324 319 313 310 307 308 309 310 312 313 313 313 313 313 314 314 315 315 316 314 315 317 315 314 312 311 311 310 314 314 320 309 308 308 309 310 309
336 336 333 326 324 325 324 317 311 309 307 308 310 311 313 313 313 313 314 315 314 314 314 315 313 314 314 314 313 312 311 309 309 310 313 310 314 309 308 308 309 309 310
336 336 334 327 326 326 321 313 310 308 307 309 310 312 313 313 314 315 315 315 315 315 315 315 315 316 316 315 313 312 312 310 308 308 314 317 315 308 308 308 308 308 308
335 335 333 327 327 327 316 311 309 307 308 310 310 313 313 313 314 316 316 316 316 316 317 317 317 318 318 317 313 314 314 311 309 308 311 318 308 308 307 307 307 307 307
335 335 332 328 328 321 315 310 308 307 309 310 310 313 313 313 313 314 315 317 317 317 318 318 319 319 318 317 316 315 315 314 310 308 310 316 311 309 307 306 306 306 307
334 334 330 329 327 321 311 312 309 308 310 310 310 313 313 314 314 313 313 315 316 318 318 319 319 319 319 318 317 316 315 313 309 308 308 314 313 313 307 306 305 306 307
329 330 330 328 316 313 312 311 309 310 310 311 311 312 313 314 314 313 313 314 317 318 319 320 320 319 318 317 315 315 314 310 308 307 307 307 311 314 310 307 307 306 306
329 330 329 323 319 312 311 310 309 311 311 310 311 312 312 314 314 313 315 316 317 320 320 320 320 319 318 317 316 315 313 309 307 305 306 307 307 314 310 309 310 308 307
327 328 322 319 315 314 311 311 316 316 311 311 311 312 313 313 313 314 316 318 321 321 321 320 319 318 317 316 315 312 309 308 307 303 305 306 307 307 311 309 310 309 308
322 321 321 322 319 318 317 317 310 312 312 311 312 313 312 312 313 318 319 322 321 321 320 319 318 318 315 312 310 309 308 307 304 302 304 305 306 306 311 308 309 309 308
322 323 322 321 319 318 319 313 310 313 312 313 318 320 320 319 320 322 323 323 322 321 320 318 315 311 310 309 309 308 306 304 301 302 302 302 302 304 306 306 310 309 308
321 320 320 320 320 320 318 314 309 311 316 324 324 323 322 322 323 323 322 322 321 319 318 315 309 309 309 308 307 306 303 300 300 299 299 299 299 300 302 305 308 309 308
319 319 319 318 319 320 316 312 311 319 323 325 325 324 324 324 325 324 322 320 319 319 314 309 309 308 306 306 305 300 300 299 299 299 300 299 299 299 299 302 304 305 306
320 321 322 324 325 324 319 312 314 323 325 326 325 325 325 325 325 323 320 320 320 316 310 310 308 306 303 301 299 299 299 299 300 301 300 300 299 298 300 303 304 304 303
322 320 321 323 325 321 314 313 324 326 327 326 326 326 325 325 325 322 321 320 316 310 310 308 305 301 299 299 298 298 299 300 301 300 300 299 298 298 297 297 296 297 296
323 323 324 324 323 320 315 320 321 324 326 326 326 325 324 324 323 322 320 316 310 310 308 305 302 299 298 297 297 298 299 300 300 299 299 298 298 297 297 295 295 294 294
322 323 324 323 321 317 319 323 324 325 325 325 325 326 322 322 322 321 317 310 310 309 306 303 300 298 297 297 298 298 298 299 299 299 298 298 298 297 296 295 295 294 291
322 323 324 323 322 321 323 324 325 325 326 325 327 324 321 321 321 320 312 310 309 307 305 302 298 297 298 300 299 298 301 299 298 299 298 298 298 296 295 295 293 291 290
324 323 323 323 323 322 323 324 324 325 326 327 325 321 319 319 318 315 310 310 308 306 303 299 297 302 307 306 305 301 300 301 298 298 298 297 296 295 294 293 292 290 290
325 325 325 324 324 325 323 324 324 324 324 324 321 320 318 316 313 310 310 310 308 304 301 297 304 307 306 303 301 296 295 295 298 298 296 295 294 293 293 293 293 292 291
326 325 324 324 324 325 326 324 324 324 325 324 322 319 316 313 311 310 310 310 309 305 301 299 306 307 308 307 299 295 295 294 294 295 295 295 294 293 293 292 292 292 291
328 327 326 324 324 324 324 323 324 325 325 325 323 319 316 314 312 310 310 310 307 304 302 309 310 307 308 302 294 294 294 295 295 295 294 294 293 293 292 292 292 292 291

GFSSE_850_thetae_030.txt.gz
Theta_e
339 334 328 334 336 337 337 338 336 335 329 324 317 309 308 310 311 310 310 311 315 317 317 315 315 324 322 316 316 317 316 314 310 309 309 311 312 312 312 314 325 325 320
339 333 326 332 335 336 336 336 334 327 323 316 309 308 311 310 310 310 312 315 317 317 316 315 316 316 316 317 317 317 316 314 313 315 321 314 309 309 311 312 313 312 313
339 333 325 328 334 335 335 331 325 322 316 309 308 310 310 310 311 312 314 315 315 316 316 316 316 317 317 317 315 313 314 312 311 318 319 319 317 309 309 308 309 311 312
339 336 331 324 326 328 326 324 321 315 309 308 310 310 310 312 313 314 314 314 315 315 316 316 315 316 316 315 313 311 310 311 313 320 320 320 320 308 308 309 309 309 312
337 336 333 324 324 324 323 320 315 310 307 309 310 310 313 314 314 314 314 315 315 315 316 315 314 316 314 313 312 310 309 311 319 321 321 322 322 315 309 314 318 313 311
337 335 331 324 324 324 320 314 310 308 308 310 310 312 314 314 314 314 314 315 315 316 314 314 314 314 314 313 312 311 309 314 318 320 321 322 321 316 312 309 310 309 310
337 336 330 324 324 322 316 312 308 307 309 310 312 313 313 313 314 314 315 315 315 314 314 315 316 316 315 313 314 314 313 312 317 318 320 320 319 312 308 307 310 312 312
336 336 330 326 325 322 314 310 308 308 309 311 313 313 313 314 315 315 315 315 315 315 316 318 318 318 317 316 316 316 315 315 316 317 318 319 310 308 306 306 306 307 307
336 333 331 327 325 321 312 309 307 309 310 312 313 313 314 315 316 316 316 316 316 317 318 319 318 318 318 317 316 316 315 312 315 316 316 318 310 308 307 305 304 305 307
335 333 330 327 326 321 311 309 308 309 311 312 313 315 315 315 316 317 317 317 318 318 319 319 319 319 318 317 316 316 314 312 313 313 315 315 314 310 309 307 307 306 305
333 332 328 327 322 313 312 309 309 312 311 313 312 312 313 314 314 319 319 317 318 319 319 320 320 319 317 316 316 315 312 312 313 312 313 307 313 313 311 310 310 308 306
329 328 327 324 319 320 315 314 314 314 313 313 313 313 316 314 321 320 316 317 319 320 320 320 320 318 316 314 314 312 311 310 311 311 310 306 308 312 311 311 311 310 308
329 326 325 322 321 318 315 315 316 314 311 312 312 313 314 314 314 318 317 319 320 320 320 320 318 317 317 314 311 309 310 309 308 308 306 306 306 310 310 311 312 311 309
323 324 320 317 316 315 312 311 313 316 317 312 312 312 314 314 314 315 318 320 322 321 320 319 318 316 312 310 309 308 307 307 306 308 311 304 305 306 311 311 309 310 310
321 319 314 313 312 312 314 314 315 314 311 310 312 320 319 313 313 317 321 322 321 320 319 318 315 310 310 309 307 305 303 301 303 306 308 301 299 303 308 310 309 309 308
320 320 316 315 314 315 317 315 311 314 318 319 322 315 313 314 319 322 323 322 321 320 319 315 312 312 309 306 303 301 300 300 300 300 306 306 299 299 302 307 309 308 308
320 319 318 320 321 318 321 319 316 320 320 322 324 322 322 322 323 324 322 322 321 319 317 310 310 309 307 304 301 301 300 299 300 299 304 304 305 300 298 299 302 303 305
323 321 322 322 322 322 321 321 317 319 320 325 324 324 324 324 325 324 323 321 319 318 314 310 310 309 308 306 303 303 301 301 299 300 302 303 303 303 302 299 301 302 303
323 323 322 323 324 321 321 316 315 321 324 326 325 325 324 325 325 324 321 319 320 318 310 310 308 307 306 305 304 302 302 302 302 301 301 301 299 299 299 298 297 296 296
324 325 325 325 325 325 326 322 319 320 326 326 326 325 324 324 325 324 321 321 319 314 310 309 307 303 304 305 303 303 303 302 301 301 301 299 299 299 299 298 297 297 295
327 326 326 326 326 326 326 321 320 325 327 326 326 326 326 325 324 323 322 321 317 311 311 308 306 303 301 302 305 305 304 303 301 301 300 299 299 298 298 296 296 295 295
326 327 327 327 327 327 325 321 322 324 326 325 325 325 325 324 322 322 322 320 314 311 309 307 305 302 304 305 307 307 309 307 302 300 299 299 299 298 297 296 295 294 294
326 326 327 327 328 327 325 323 325 325 324 325 324 324 324 324 321 321 321 319 312 310 309 307 305 301 306 306 306 308 308 307 304 302 300 299 298 298 297 296 295 294 293
327 327 327 327 328 328 327 326 324 324 326 325 324 324 324 322 320 321 320 317 311 310 309 306 303 303 307 310 308 304 303 301 301 301 301 299 298 297 297 296 295 295 294
329 328 329 329 328 328 328 325 326 326 327 327 323 323 323 321 319 319 318 314 310 310 308 304 301 304 309 308 306 304 302 300 299 299 300 299 298 297 296 296 295 294 294
331 330 329 329 329 328 328 324 325 326 327 325 323 323 323 321 318 317 314 311 310 309 307 302 301 309 307 306 304 301 299 300 300 299 298 298 297 297 296 295 294 294 294

GFSSE_850_thetae_033.txt.gz
Theta_e
340 335 335 338 341 338 337 336 334 333 333 329 321 309 309 310 309 310 310 313 317 316 319 326 320 317 316 316 316 315 311 311 319 315 310 311 313 314 318 320 324 325 325
340 334 335 341 340 339 338 336 334 334 331 323 312 308 311 310 310 311 315 317 316 315 322 319 316 317 317 315 314 313 312 316 319 320 320 315 309 309 309 311 312 312 313
339 338 336 341 339 339 338 336 334 333 324 314 308 311 310 310 311 315 317 317 316 316 316 316 317 316 314 312 312 311 312 319 320 320 321 321 318 309 309 309 310 310 310
337 336 336 339 339 338 337 335 334 324 316 308 310 310 310 312 315 315 317 318 316 316 316 317 316 315 312 311 310 310 317 320 321 322 323 323 322 311 316 313 310 317 317
337 337 336 336 337 337 335 335 325 319 310 309 310 310 311 314 315 315 315 317 316 316 315 316 315 313 312 312 311 311 319 321 322 323 322 323 322 316 311 317 319 313 314
335 335 330 333 336 336 334 325 320 312 308 310 310 312 314 315 314 315 315 316 316 315 315 315 314 314 313 315 314 311 318 319 321 322 322 321 320 315 311 312 316 316 316
336 331 328 330 333 329 324 321 314 308 309 310 312 315 315 315 315 315 315 316 314 315 315 316 317 316 316 316 316 314 314 317 318 321 321 320 317 308 307 306 306 307 307
337 336 327 326 325 324 321 315 309 308 310 311 315 315 314 314 315 315 315 314 315 316 317 318 318 317 317 317 317 315 313 317 317 319 321 318 312 310 306 305 305 306 306
337 335 327 326 324 319 314 310 308 309 310 314 314 313 314 315 315 315 315 315 316 318 319 319 319 318 317 316 315 313 312 315 316 318 319 318 309 309 309 308 306 305 306
335 333 328 326 323 317 313 311 309 310 318 314 315 314 315 315 316 316 316 317 317 318 319 319 319 317 317 315 314 312 314 314 314 316 317 316 314 312 311 310 309 307 305
333 332 328 326 324 318 311 310 311 313 314 315 316 316 317 317 318 321 319 317 318 319 320 319 318 317 315 314 312 311 313 314 313 314 314 308 312 313 312 311 311 310 308
332 331 328 327 319 313 314 314 318 316 312 317 317 316 320 316 320 319 317 318 319 320 320 319 318 316 316 315 313 313 312 311 311 313 308 306 312 312 313 312 312 310 309
327 327 325 325 316 313 314 312 310 314 322 321 320 322 320 315 322 316 317 318 320 320 319 318 317 317 315 314 312 309 311 310 310 312 308 305 306 312 310 312 312 310 309
326 325 324 322 320 315 319 316 317 319 319 317 313 314 314 316 320 320 322 322 321 319 318 319 317 314 310 309 307 307 307 308 308 311 311 302 302 306 311 312 311 310 309
321 320 320 319 316 317 317 320 318 316 312 313 315 313 314 320 323 323 323 323 321 321 320 319 315 315 312 311 310 310 308 308 307 308 310 305 299 302 309 312 311 310 309
321 321 319 319 319 319 316 313 313 314 315 315 315 314 322 322 323 323 322 322 321 320 320 318 316 315 313 312 309 306 304 306 304 304 308 308 302 300 304 310 309 308 309
320 319 317 317 314 313 312 313 313 315 316 319 319 322 324 322 322 324 323 322 321 320 319 317 312 314 313 310 308 307 307 306 306 306 306 307 307 304 299 300 303 305 305
320 315 314 313 316 315 316 320 321 320 321 320 323 323 325 326 323 324 323 322 321 320 318 316 315 314 312 310 308 308 307 306 306 305 305 305 305 305 304 301 298 300 301
321 319 321 321 319 321 322 323 321 320 319 322 324 324 326 327 325 325 324 322 320 319 317 316 315 313 311 309 309 308 307 307 306 304 304 304 303 301 302 301 299 298 297
324 323 324 324 323 322 322 322 321 320 321 323 327 327 328 327 325 325 323 321 320 319 317 315 314 310 310 309 307 306 308 307 306 305 304 303 302 302 301 301 300 299 297
325 324 324 323 324 325 325 324 321 320 322 326 326 327 328 326 324 324 323 321 321 318 316 315 312 309 308 307 309 311 310 308 307 305 304 303 302 301 301 300 299 298 297
326 326 325 325 325 325 324 324 321 321 323 326 326 328 328 327 324 322 323 321 321 318 316 313 310 310 309 309 311 312 313 311 307 306 304 303 302 301 300 299 298 297 297
327 327 326 326 326 327 327 325 321 321 324 326 327 327 327 325 324 323 322 321 319 317 315 311 309 308 309 309 309 310 312 312 309 307 304 303 302 301 301 299 299 297 297
327 328 328 327 327 327 327 325 322 324 324 326 327 327 326 324 324 323 322 321 318 317 314 311 309 308 307 309 311 309 308 308 306 306 305 304 302 301 300 299 299 298 297
326 327 328 328 328 328 328 327 324 326 326 326 327 327 324 326 324 323 321 319 317 316 311 309 307 306 304 310 309 310 309 306 304 303 304 304 303 301 299 299 298 298 297
328 328 328 328 327 328 329 329 327 327 327 326 328 328 326 324 323 321 318 317 316 313 309 307 306 303 304 310 311 309 306 304 304 304 304 302 301 301 300 299 298 297 296

GFSSE_850_thetae_036.txt.gz
Theta_e
341 335 340 336 338 335 335 334 332 332 331 326 318 308 308 309 310 310 312 316 322 325 320 317 315 315 315 314 313 316 318 319 320 312 310 311 314 315 313 312 313 319 324
339 335 339 339 338 335 335 333 332 332 330 322 309 310 310 310 310 313 315 315 327 321 316 316 315 313 312 311 311 318 320 320 321 322 314 309 309 309 309 310 310 311 314
340 335 338 341 338 336 336 333 332 332 325 315 309 310 310 311 314 316 315 317 323 316 316 315 312 311 310 310 313 320 321 321 322 323 323 317 320 315 310 314 314 310 308
340 339 339 341 338 337 336 333 333 329 320 309 310 310 311 315 316 316 315 315 316 316 316 314 312 311 310 312 318 320 322 322 324 324 323 322 317 319 322 312 311 313 311
340 339 339 340 338 338 336 333 332 324 312 309 310 311 314 317 317 316 315 315 315 316 315 313 313 313 313 313 320 321 322 323 323 321 323 318 316 313 310 312 314 316 318
338 337 338 340 338 338 335 334 328 318 308 310 310 313 315 316 316 316 316 315 315 315 315 315 315 316 314 312 319 319 320 322 322 321 314 309 308 315 308 307 308 310 311
331 337 339 339 336 337 334 332 322 311 309 310 311 315 315 315 316 316 316 314 315 316 317 316 316 317 317 314 313 318 318 320 321 321 316 305 306 308 308 304 305 305 306
326 337 338 338 337 335 334 324 315 308 310 311 313 316 315 315 315 316 315 315 317 318 319 318 317 317 317 313 311 317 317 318 321 321 319 306 306 307 306 305 304 304 305
325 335 335 336 335 333 324 317 309 309 310 314 316 316 316 316 316 315 314 316 318 319 319 318 317 316 314 311 311 313 316 316 318 319 318 308 310 313 313 312 308 305 304
326 330 329 329 328 322 317 310 309 311 312 314 316 317 316 316 315 314 315 317 318 319 319 318 316 315 314 311 311 314 314 314 316 316 314 313 313 314 311 310 310 309 308
331 328 327 326 326 318 318 318 318 313 317 316 317 317 316 315 315 316 317 317 318 319 319 319 316 314 314 313 312 313 313 313 314 315 312 314 314 314 312 311 310 309 308
331 327 326 326 322 317 315 312 313 317 317 318 317 317 316 317 317 318 317 317 319 320 319 318 315 316 316 314 313 312 311 310 311 312 305 304 313 313 312 312 312 309 308
330 328 327 325 321 315 313 315 317 319 319 318 316 316 319 320 320 317 317 318 319 319 319 317 317 318 316 314 309 307 310 310 310 311 310 303 305 314 313 313 313 311 309
326 328 327 325 318 315 318 317 320 317 314 317 319 320 317 319 317 316 317 318 320 320 318 319 318 316 310 309 307 306 307 308 310 309 309 306 302 308 312 313 313 311 309
326 324 322 320 317 315 315 319 316 312 313 319 315 317 318 316 315 318 322 321 321 320 320 319 316 312 312 309 307 308 307 305 308 308 309 308 300 307 311 312 312 311 309
322 322 322 319 314 314 313 315 316 315 318 320 314 315 317 322 319 322 325 323 322 321 320 319 317 314 314 311 307 306 307 307 305 309 308 308 305 300 309 311 311 309 308
322 321 320 317 315 317 319 318 318 315 313 314 315 315 321 319 323 324 323 322 322 321 320 318 316 315 313 312 310 308 309 308 308 306 308 307 307 306 301 303 304 304 304
322 320 318 317 317 319 318 315 314 314 315 317 315 317 314 316 322 322 323 323 322 321 320 318 315 314 313 311 309 308 308 308 308 308 306 306 307 306 305 303 301 299 299
321 320 319 318 317 315 313 314 314 315 316 320 320 322 323 323 324 322 324 323 322 321 319 317 316 315 313 311 310 309 308 308 308 306 305 305 306 302 304 302 301 300 299
318 315 313 315 315 312 313 315 318 317 320 321 320 322 323 321 327 324 324 323 323 320 319 317 316 315 313 311 310 307 308 310 310 307 306 305 303 303 302 302 301 300 299
318 319 317 317 318 314 319 321 323 320 319 317 322 324 324 324 326 325 325 324 323 320 319 317 315 314 311 310 309 310 312 311 310 308 306 305 303 303 302 301 300 299 298
320 322 322 320 319 321 322 320 321 321 318 317 323 326 323 324 326 325 324 324 321 320 319 317 315 313 310 309 309 312 313 312 310 310 307 305 304 303 302 301 300 299 298
325 323 324 325 324 323 324 321 324 322 320 321 324 324 322 327 326 325 323 323 322 320 319 317 316 312 310 309 309 311 311 312 309 308 307 305 303 303 302 301 300 299 298
326 326 325 324 324 324 325 324 326 323 320 323 325 326 325 325 327 325 324 323 322 320 318 317 316 312 309 309 310 311 310 310 309 306 306 305 304 303 302 301 300 299 298
327 327 326 326 326 326 325 325 327 324 321 322 326 328 327 328 326 324 325 323 322 320 318 315 313 311 309 309 311 310 311 311 308 306 305 305 304 303 302 300 299 299 298
328 328 328 327 327 326 327 326 327 325 323 325 326 327 326 325 324 325 324 323 321 320 319 317 316 312 308 307 308 310 310 309 307 305 305 304 304 303 302 300 299 298 298

GFSSE_850_thetae_039.txt.gz
Theta_e
339 336 337 336 330 334 332 332 331 330 325 315 307 308 308 309 310 311 318 318 319 317 314 314 314 313 313 315 318 321 321 322 313 309 310 311 310 309 311 312 317 324 325
337 341 338 334 330 333 331 331 330 329 321 309 308 309 309 310 313 315 319 319 317 314 313 311 311 310 317 320 321 322 323 323 323 320 308 308 309 310 309 309 310 312 317
330 336 339 335 330 332 331 331 330 326 314 308 309 310 310 313 314 317 318 315 314 313 311 311 310 311 319 321 321 321 322 324 324 323 313 321 319 315 316 311 308 308 309
327 329 338 337 332 333 332 331 331 321 309 310 310 310 313 314 314 316 314 314 314 313 312 311 311 313 320 321 322 324 324 324 324 323 311 311 320 321 317 321 320 318 317
337 338 338 337 332 333 331 331 328 316 308 310 310 313 315 314 314 314 314 315 314 313 313 314 313 318 321 321 322 322 322 322 322 317 307 308 315 323 318 315 316 318 320
338 337 337 338 335 333 331 331 323 310 310 310 312 315 315 315 314 314 315 315 315 315 316 316 313 316 320 319 318 321 323 322 321 312 305 305 308 310 306 306 306 307 308
331 333 337 338 336 334 332 327 315 308 310 311 314 315 316 315 315 314 315 316 317 317 317 317 315 312 318 318 318 322 321 321 320 318 305 305 306 306 305 304 304 304 305
330 327 328 338 337 334 334 328 310 310 310 313 315 315 316 316 315 315 316 317 318 318 317 317 317 312 311 316 317 320 321 320 319 315 305 305 306 309 307 305 304 303 303
330 333 332 334 336 334 333 329 313 310 311 314 315 315 316 316 315 315 316 318 319 317 316 316 314 311 310 315 317 316 318 317 316 316 310 307 311 314 312 307 307 306 305
330 331 332 331 332 328 325 317 312 311 312 316 315 316 317 317 315 316 318 319 319 318 315 314 313 310 310 313 315 314 314 316 316 315 312 306 312 315 314 315 311 308 306
328 328 325 330 326 322 322 317 313 313 316 317 317 317 317 315 314 316 318 319 319 319 317 314 314 314 312 312 312 313 312 313 314 313 306 308 313 315 313 311 309 307 309
329 329 330 330 328 325 322 316 320 317 319 318 316 316 314 314 316 317 317 318 319 319 317 315 316 316 314 313 310 311 310 310 310 310 308 306 315 315 314 313 312 310 307
329 328 327 327 326 324 319 315 312 320 319 317 316 315 316 315 315 316 315 316 319 319 317 316 317 316 314 314 308 310 310 310 310 310 309 304 312 316 315 313 313 311 307
329 327 326 326 324 319 317 313 315 320 318 317 316 316 315 316 318 317 317 318 320 320 318 316 315 315 315 311 306 309 309 309 310 309 309 308 302 303 313 314 313 311 308
328 328 326 323 320 318 315 315 318 317 319 318 318 316 315 317 317 317 316 317 320 319 319 317 318 315 311 308 309 305 307 307 308 308 309 308 305 305 314 314 313 311 309
326 324 325 323 318 315 317 321 319 317 317 315 316 314 315 316 317 316 320 321 321 320 320 319 317 313 313 311 308 310 309 307 308 308 309 307 306 302 312 313 312 311 308
324 324 323 321 317 317 318 317 317 314 312 315 314 315 315 320 320 322 322 323 322 321 321 319 317 315 313 312 310 308 309 309 309 308 307 307 306 306 302 304 306 307 305
323 322 320 320 319 317 316 314 314 312 314 316 314 315 317 321 323 323 322 323 322 321 321 319 317 315 314 312 311 310 310 310 309 308 306 307 306 307 305 304 303 301 300
321 321 320 319 317 314 315 315 314 315 315 316 315 316 316 318 317 315 318 322 322 322 321 320 318 315 314 312 311 310 310 310 310 311 307 305 306 306 304 303 302 301 300
321 320 319 317 317 315 317 317 318 316 317 316 317 317 319 320 320 315 320 324 323 322 321 320 317 315 314 313 311 310 309 307 311 310 310 308 305 304 303 302 301 301 300
320 319 318 318 319 318 317 316 315 316 317 317 318 322 320 323 321 319 322 324 323 322 322 320 317 316 315 313 311 310 307 310 311 310 310 308 306 305 303 303 302 301 300
317 317 315 315 314 314 313 314 314 315 315 316 320 320 320 321 323 323 322 324 323 323 323 320 318 316 315 313 311 310 311 312 311 311 310 308 305 304 303 303 302 301 300
316 315 316 315 313 315 316 316 317 320 320 319 316 315 321 324 321 321 324 324 323 323 322 320 318 317 315 313 309 309 312 312 310 310 309 308 305 304 303 303 302 301 300
318 317 316 316 315 315 319 319 320 320 321 320 315 317 322 323 321 322 323 323 322 323 322 320 318 317 316 311 310 309 309 310 311 310 308 307 306 305 305 304 303 301 300
322 320 319 318 317 319 320 321 320 318 322 321 320 320 321 324 323 323 324 323 323 323 322 320 318 316 315 313 312 310 311 310 311 310 309 307 305 305 305 304 303 300 300
326 325 323 321 322 321 320 322 324 324 325 323 321 321 325 325 326 325 324 325 324 323 322 321 320 319 318 318 316 310 310 310 310 308 308 306 305 304 304 303 303 301 299

GFSSE_850_thetae_042.txt.gz
Theta_e
341 339 332 330 330 326 328 328 327 324 317 310 309 311 313 312 310 310 311 315 317 314 312 311 312 314 316 318 319 317 312 309 310 310 309 309 311 313 317 322 325 326 325
339 337 333 330 326 327 328 330 328 321 310 308 308 308 308 309 313 313 317 316 313 313 313 313 316 320 321 322 323 323 321 318 309 308 310 318 312 309 309 312 315 324 324
332 337 333 331 328 327 328 329 325 314 308 308 309 310 311 313 314 317 314 313 311 310 310 316 320 321 321 322 324 325 324 320 315 310 313 311 324 324 315 311 312 317 323
335 334 327 332 332 327 327 326 320 309 308 309 310 311 313 314 315 313 313 311 311 311 311 316 320 321 322 323 323 323 322 322 319 308 310 316 323 324 324 321 322 323 319
329 329 329 325 331 328 326 326 312 307 309 310 312 313 315 315 314 313 313 312 312 313 312 317 321 321 320 322 322 322 322 318 307 306 307 310 321 323 313 314 314 312 315
327 329 328 325 328 329 327 320 308 309 310 311 314 314 315 313 314 314 314 315 315 315 315 319 321 319 320 321 322 322 321 320 315 305 306 306 308 310 308 305 306 309 308
337 336 337 336 332 334 333 318 308 310 311 314 315 314 314 314 315 315 316 317 317 315 314 320 320 317 318 321 323 321 320 319 308 305 305 306 312 315 312 305 304 304 305
331 333 335 332 329 332 331 312 309 310 314 316 314 314 314 315 315 317 318 317 316 316 314 314 318 316 317 320 321 320 319 317 315 307 305 306 308 311 309 305 305 305 304
335 335 332 332 326 330 321 311 310 311 315 316 315 314 314 315 316 318 318 317 315 317 315 311 312 316 314 315 317 318 316 316 314 312 305 307 312 314 313 309 307 305 303
330 329 330 333 332 330 327 312 310 311 315 316 315 315 315 316 317 318 319 317 314 315 313 310 310 313 316 315 315 314 314 314 313 311 305 310 316 315 314 313 311 306 305
330 330 331 330 329 328 320 313 311 311 316 317 317 316 315 316 317 318 319 318 316 313 313 312 310 311 314 314 314 313 312 312 311 309 304 306 314 317 316 315 311 308 306
330 327 326 324 327 327 325 316 313 318 318 319 319 317 315 316 317 318 319 319 319 314 313 314 313 311 311 310 311 311 311 310 309 309 307 306 316 317 316 314 315 311 310
330 327 325 324 327 326 316 312 314 317 318 319 317 316 314 316 317 315 315 319 320 316 315 315 315 313 313 311 308 309 309 309 310 309 309 306 314 316 316 315 312 312 306
329 328 327 327 326 324 319 313 314 318 316 316 315 314 315 316 314 314 314 317 320 318 315 315 314 313 314 312 307 308 308 308 309 309 309 307 310 313 316 315 313 312 308
329 329 326 326 325 323 318 316 317 316 317 315 315 315 315 314 315 316 315 318 319 319 318 314 315 314 310 308 306 307 308 308 308 308 309 308 307 304 315 315 314 312 310
328 327 327 324 323 322 320 317 319 319 317 316 315 315 316 315 316 315 316 317 319 320 319 318 315 312 311 308 308 307 308 309 308 309 309 308 308 304 310 314 314 312 310
324 327 326 325 321 319 315 314 314 319 317 318 318 316 316 318 317 317 319 318 319 320 321 320 317 313 312 311 309 308 310 310 310 310 311 309 309 307 305 306 311 308 305
325 325 323 321 320 316 313 313 319 317 317 319 316 314 316 316 317 318 318 322 321 321 321 320 317 315 313 312 311 310 310 310 310 311 312 311 309 307 307 305 304 303 302
323 323 323 320 319 316 316 316 317 316 316 315 314 314 315 318 321 318 320 322 323 322 321 320 319 317 316 313 312 311 311 310 309 312 312 311 309 307 306 305 304 303 302
322 322 322 320 317 317 317 319 317 316 314 314 315 315 316 318 317 317 318 319 321 322 322 321 320 318 317 314 313 312 310 310 308 310 312 311 309 308 306 305 304 303 302
321 321 320 319 319 317 317 317 317 315 313 313 315 315 316 319 318 319 318 317 321 322 322 321 320 320 318 314 313 312 310 309 308 310 311 310 309 308 306 305 304 303 302
321 319 319 319 318 316 315 315 314 313 313 314 315 315 315 318 319 323 323 319 322 323 323 322 321 321 316 315 313 311 310 309 308 310 310 310 310 308 307 305 304 303 302
320 320 319 318 318 316 314 315 316 316 316 317 315 315 316 321 321 323 323 321 322 323 323 323 323 321 318 316 314 312 309 310 311 312 311 310 309 309 308 306 304 303 302
318 319 318 319 320 318 317 317 317 316 316 315 316 316 318 320 320 320 322 323 322 323 323 323 323 321 319 317 315 313 310 309 309 310 310 310 309 308 308 306 304 303 303
317 317 316 318 318 315 314 314 315 315 315 315 316 316 318 320 316 322 324 320 321 324 324 323 323 320 319 317 318 316 310 311 310 309 311 311 309 307 306 306 305 304 303
317 317 316 316 316 316 318 315 314 314 314 315 315 316 315 313 316 320 323 322 323 322 322 322 322 321 320 319 318 316 315 314 310 310 310 310 309 309 307 305 304 304 304

GFSSE_850_thetae_045.txt.gz
Theta_e
340 335 328 328 328 326 324 328 324 322 321 327 331 331 328 325 318 309 308 313 320 320 314 311 311 311 310 309 309 310 311 311 309 310 311 315 320 322 325 326 325 326 326
342 333 325 325 328 328 328 327 324 325 316 320 323 324 321 315 310 310 313 316 315 311 311 313 315 316 317 315 314 310 308 308 309 313 312 315 318 316 319 322 323 324 324
341 334 326 326 329 329 326 323 323 321 312 315 317 314 311 310 314 316 315 312 312 312 313 315 317 321 322 323 320 320 316 310 311 311 323 326 325 320 316 316 320 320 322
340 333 330 332 331 330 330 321 324 324 309 312 310 311 312 315 316 313 312 312 311 313 316 319 319 320 322 322 322 319 312 311 312 314 321 325 324 323 323 322 322 320 318
338 336 331 332 331 329 327 324 313 309 309 310 313 317 316 315 313 311 310 310 313 317 320 321 321 322 322 322 322 319 313 307 307 308 311 320 324 323 318 315 320 316 314
335 337 334 329 327 327 328 324 311 309 309 320 321 317 315 313 312 311 311 311 314 319 320 319 320 321 322 322 321 319 316 306 305 306 306 309 313 316 314 313 311 311 309
332 330 330 328 327 326 328 323 311 311 312 323 321 315 313 313 312 313 314 313 316 320 319 318 319 321 322 322 320 319 314 310 305 305 307 309 315 315 314 313 314 313 314
330 330 327 328 328 329 327 322 315 310 319 326 319 314 313 314 315 316 316 315 318 320 318 317 318 320 322 321 319 317 315 312 306 305 306 308 314 314 313 312 311 312 312
335 334 333 331 327 329 328 322 316 311 320 325 315 314 314 315 316 316 316 314 315 318 317 316 317 318 320 319 318 315 314 312 307 305 307 310 315 314 316 314 312 309 308
335 331 333 333 331 326 324 323 317 312 318 324 315 315 315 317 317 316 315 316 313 312 312 316 315 316 316 315 315 313 313 311 307 305 307 312 315 315 313 312 307 305 304
332 331 330 330 328 326 324 322 317 317 322 324 315 315 316 317 317 315 315 316 312 310 310 313 315 316 316 315 313 312 311 309 308 306 306 309 312 315 315 311 306 307 307
332 331 329 328 325 324 323 319 319 322 320 316 315 315 317 318 318 316 314 312 311 310 310 311 313 313 313 312 312 311 309 309 309 308 307 307 310 313 314 313 313 312 308
329 329 326 325 323 323 321 318 319 319 319 318 316 316 317 318 319 319 318 315 312 311 311 310 310 310 309 308 309 309 308 310 310 310 309 308 313 316 313 314 313 311 305
328 325 323 324 325 324 324 321 318 319 317 316 316 316 317 318 318 316 319 318 314 311 313 314 313 312 311 309 308 308 308 310 310 310 310 307 314 314 315 314 314 312 307
329 327 324 323 324 325 323 319 315 316 319 316 317 315 317 315 313 314 318 319 318 316 313 313 312 312 310 308 307 308 309 310 310 310 310 308 308 312 315 315 313 311 307
327 328 327 326 326 325 320 319 319 318 315 319 316 315 316 314 314 314 316 319 319 319 317 314 313 311 310 309 308 308 310 311 311 312 311 309 308 307 313 314 314 312 306
326 328 328 327 326 321 319 324 320 318 318 316 314 316 314 314 315 316 316 318 319 320 319 318 314 312 310 308 309 309 310 311 311 311 312 309 309 307 307 307 309 310 305
325 325 326 325 324 322 315 324 320 318 315 315 316 315 316 316 316 315 316 318 316 319 320 320 317 313 312 312 310 309 309 311 311 311 312 311 309 307 307 307 305 305 303
325 324 324 325 325 321 324 321 319 317 316 317 318 319 317 317 317 317 319 320 319 320 321 320 319 317 314 313 312 311 310 310 310 309 311 312 311 309 308 307 306 305 303
323 322 323 324 322 322 322 318 315 320 319 320 317 318 317 321 316 318 318 318 319 320 322 321 320 319 318 316 315 312 311 310 309 308 308 311 311 311 309 307 306 304 303
321 320 321 322 321 319 317 317 319 318 322 318 316 317 318 320 319 321 319 317 316 320 320 321 321 320 319 317 314 313 311 310 309 309 308 308 311 312 310 308 307 305 304
321 321 320 320 321 318 315 317 317 317 318 317 315 315 315 316 316 316 317 317 318 320 321 322 322 321 318 317 315 314 311 310 309 309 308 308 311 311 310 309 307 306 305
321 321 320 320 320 319 317 317 316 317 316 316 315 315 315 315 316 317 318 320 323 322 321 322 322 321 321 320 318 315 311 311 311 310 310 310 310 309 310 308 308 307 305
320 321 320 319 319 318 318 318 318 318 317 315 314 314 315 315 315 316 320 322 324 322 322 322 323 322 322 322 319 316 313 315 312 311 311 310 311 310 309 309 308 307 305
318 319 320 320 319 319 318 317 316 315 316 316 315 314 313 314 315 316 320 320 321 321 323 322 322 323 322 322 320 318 316 315 315 310 309 310 310 310 311 308 307 307 305
317 317 318 319 319 319 318 317 315 314 315 316 315 316 315 314 315 316 319 320 320 322 321 321 322 322 322 322 320 320 318 317 317 313 312 313 310 310 310 310 309 308 305

GFSSE_850_thetae_048.txt.gz
Theta_e
332 330 330 328 327 329 330 329 329 329 333 334 333 333 330 325 320 317 316 320 326 329 330 319 311 311 313 311 310 310 309 310 315 325 326 327 325 325 325 325 326 327 328
337 329 328 326 328 330 328 326 325 325 328 333 334 332 328 321 315 312 317 324 323 324 313 310 310 309 309 308 308 309 309 309 311 316 321 327 324 323 325 325 325 325 326
339 330 328 329 329 327 324 324 323 323 323 333 333 327 323 315 309 311 320 319 316 313 320 316 314 314 315 315 311 310 310 310 311 316 317 316 319 319 321 322 322 322 322
341 329 328 328 326 325 325 325 323 322 322 330 327 322 318 310 311 316 315 313 313 317 326 323 321 320 319 312 310 311 311 311 314 319 323 322 321 321 320 321 321 321 318
339 331 327 327 328 328 324 320 322 319 317 321 322 316 311 314 314 313 313 313 313 321 322 320 321 321 320 316 313 307 307 309 310 314 321 321 321 321 320 317 317 319 319
338 333 327 326 327 327 324 321 322 317 315 313 314 312 315 315 314 314 314 314 316 317 320 320 321 321 320 318 311 306 306 306 307 307 310 317 319 316 317 318 316 317 316
339 333 329 329 329 329 328 327 328 323 314 310 317 316 315 315 314 316 316 316 316 319 319 320 321 321 319 317 313 309 305 305 306 307 309 312 315 317 318 317 314 313 310
336 334 331 331 330 328 327 327 325 319 322 314 318 316 314 312 313 316 315 316 318 319 320 321 321 321 318 317 314 311 307 305 305 306 308 312 315 314 314 310 308 309 307
333 333 332 331 329 328 327 326 327 316 324 321 318 314 311 311 311 313 317 318 319 318 319 320 321 320 318 316 314 311 307 305 306 306 308 311 314 313 313 309 305 304 304
334 331 329 329 330 328 327 326 319 320 319 315 316 313 311 312 314 317 319 319 319 318 317 318 320 319 317 315 312 310 307 305 306 307 310 314 313 313 308 307 304 303 302
333 332 331 329 329 328 328 322 319 322 323 319 315 313 312 314 314 316 317 318 318 317 316 316 316 315 315 313 311 309 308 308 307 308 311 314 314 311 308 306 305 303 303
331 333 331 331 330 329 326 322 319 319 317 321 315 313 314 315 314 314 312 311 311 312 315 315 315 315 313 312 310 308 309 309 308 309 310 313 314 313 308 307 307 305 303
329 330 328 329 329 328 327 323 320 321 323 319 315 314 315 316 316 316 313 310 310 310 310 313 313 311 310 309 309 309 310 310 309 309 309 312 313 312 310 309 309 307 304
328 328 325 326 327 325 324 320 317 317 317 317 317 315 316 315 314 313 312 311 310 310 310 310 310 310 308 308 309 309 310 310 311 311 309 310 314 312 314 313 311 309 305
327 326 324 323 322 323 321 320 321 321 321 319 317 317 318 317 317 316 313 312 313 313 312 311 312 311 310 308 308 308 310 310 311 311 310 309 312 313 316 315 313 311 307
327 324 324 324 323 321 322 321 320 320 318 317 315 316 318 319 318 319 318 314 313 313 312 311 311 310 309 308 308 308 309 310 311 312 311 310 308 315 316 315 315 315 309
327 327 323 324 324 324 321 321 318 319 319 318 320 316 318 317 315 317 319 319 317 317 315 311 311 311 309 309 308 308 308 309 310 311 312 311 309 307 313 314 313 311 309
326 327 324 325 324 323 322 321 319 318 317 317 318 316 317 315 314 315 318 319 319 319 319 318 314 311 310 309 309 309 308 309 310 310 311 312 310 308 307 308 307 307 305
325 325 324 325 325 322 320 317 315 318 320 317 320 316 316 315 316 316 317 318 317 319 319 320 319 314 312 312 312 311 310 309 310 310 310 311 312 310 308 307 306 306 305
322 324 324 326 325 322 318 324 321 322 321 317 318 316 316 316 316 317 318 319 318 319 320 321 320 319 317 315 314 314 312 311 310 310 309 308 310 311 311 309 308 306 305
323 322 323 324 324 322 319 323 322 317 316 315 315 320 319 318 317 320 319 318 320 320 319 321 321 320 320 319 316 314 313 313 312 312 310 310 308 309 310 310 309 308 306
321 321 322 323 323 322 319 323 320 318 318 315 318 321 318 320 319 320 317 318 318 318 318 318 321 321 320 320 317 315 312 312 312 312 311 311 309 307 309 309 309 308 307
320 321 320 321 322 322 322 322 320 318 317 315 319 319 317 316 315 319 319 318 318 319 319 319 320 321 321 321 319 317 314 313 314 314 313 311 310 310 309 310 309 309 309
320 321 320 320 321 321 321 320 319 317 315 316 319 316 316 316 315 317 318 317 316 318 322 322 322 322 322 321 320 319 318 318 315 314 315 312 312 311 311 311 310 310 309
319 320 320 320 319 320 320 318 318 317 318 317 319 316 314 315 315 315 316 316 317 319 321 322 322 322 322 322 321 320 320 318 317 314 313 314 313 314 312 311 309 310 308
320 319 320 320 319 320 319 319 317 317 316 317 317 316 316 315 315 315 315 314 315 318 319 320 320 321 322 322 322 320 321 320 319 318 315 316 316 314 312 312 310 310 309

GFSSE_850_thetae_051.txt.gz
Theta_e
336 334 333 332 331 328 325 333 331 334 333 335 334 324 323 321 320 320 320 319 327 332 334 332 330 330 329 321 324 323 325 326 326 326 327 325 326 325 327 328 328 328 328
334 333 330 330 329 329 330 331 333 335 335 334 333 326 324 322 320 321 320 323 330 332 328 327 329 323 318 310 310 312 318 324 325 325 325 324 325 326 327 327 327 327 327
333 330 329 329 329 329 329 331 333 335 335 333 332 331 324 322 320 320 320 325 328 324 317 320 319 315 310 309 309 309 310 312 317 320 320 323 323 324 325 324 324 325 324
332 332 329 328 327 329 328 326 330 334 333 333 333 331 324 320 320 323 325 324 321 317 320 317 312 312 310 310 310 310 310 313 315 316 322 322 321 318 319 319 319 320 319
339 330 329 326 328 328 325 325 328 331 332 332 331 330 320 315 319 322 320 318 323 327 328 324 315 309 310 309 309 309 311 317 321 321 322 321 319 320 318 313 312 311 310
338 332 328 327 328 327 324 324 323 328 330 332 329 324 315 313 318 319 316 322 326 330 329 321 318 315 311 306 308 309 311 312 316 319 315 316 318 319 312 309 309 310 308
337 332 329 329 328 326 325 325 330 324 327 322 321 318 312 323 320 323 325 327 326 325 322 320 318 314 308 306 306 307 307 307 310 316 318 318 317 316 314 308 307 307 309
336 330 331 329 328 327 326 322 323 321 320 320 317 313 317 324 324 325 324 321 320 321 321 320 318 315 313 308 305 305 306 306 307 314 318 317 316 311 309 306 304 303 301
334 334 329 327 327 327 323 321 324 327 323 318 313 313 322 324 324 324 318 319 320 320 321 319 317 316 313 310 306 305 306 306 307 312 317 317 313 311 307 304 303 302 301
331 333 331 329 328 328 326 326 326 328 321 321 318 316 322 321 323 318 319 319 319 320 321 320 318 315 312 310 307 305 306 306 307 310 317 315 314 314 311 307 304 304 303
332 332 332 331 330 328 327 327 324 320 321 322 319 315 319 319 320 318 319 318 318 319 320 319 317 314 312 310 308 307 307 308 310 315 317 316 314 315 311 305 304 304 304
330 332 331 330 329 329 329 328 325 320 321 321 321 314 313 313 315 317 319 318 317 317 318 318 315 314 311 310 308 309 309 309 310 315 316 317 315 314 310 306 305 304 303
329 331 330 329 328 329 329 327 321 320 319 323 318 312 312 316 317 318 318 316 316 316 316 315 314 313 311 309 309 310 310 310 310 316 316 317 317 315 313 310 307 305 304
329 329 330 329 328 330 328 322 319 320 322 321 314 313 314 314 314 314 313 313 313 314 314 314 313 310 310 309 309 310 310 310 310 313 315 317 318 317 316 314 310 307 304
329 328 327 327 326 328 324 320 321 321 320 320 314 314 313 314 314 313 310 310 311 311 312 311 309 308 308 309 309 310 310 310 310 310 315 314 314 316 315 315 313 310 306
327 327 325 324 324 325 323 320 319 317 319 320 316 314 316 316 316 313 310 310 310 310 310 310 311 310 308 308 309 309 310 310 311 310 310 309 312 316 316 315 314 313 309
327 325 325 323 323 323 322 321 321 321 319 318 319 315 316 315 315 312 311 312 312 313 312 312 311 310 309 308 308 309 309 309 310 311 311 310 308 311 316 315 314 312 311
326 325 324 323 322 322 322 320 320 319 316 316 316 315 315 316 315 314 313 313 314 314 313 312 312 310 309 309 308 308 308 310 310 311 311 311 310 308 309 312 311 310 309
324 325 325 324 324 322 322 321 320 321 318 317 317 318 315 318 318 318 317 316 317 317 316 317 314 311 309 309 308 308 309 308 310 310 310 311 311 311 310 308 307 307 306
324 324 324 323 323 322 321 321 322 319 318 316 317 319 317 317 317 317 318 318 318 318 319 320 319 316 313 312 312 311 311 311 310 309 310 309 309 311 311 311 309 308 306
322 324 323 323 322 322 322 321 319 318 319 318 317 319 318 317 316 316 317 318 318 318 319 320 320 320 318 317 315 314 313 314 312 310 310 310 309 309 308 310 310 309 308
321 322 323 323 324 322 322 320 319 318 317 317 317 318 320 316 316 316 317 318 319 319 319 319 320 320 320 319 318 317 314 314 315 315 313 312 311 310 310 308 308 309 309
321 321 321 322 324 322 322 318 317 318 321 321 319 320 318 316 316 317 317 320 319 318 317 317 317 318 320 320 320 319 316 316 317 316 315 314 313 312 311 310 309 309 309
319 320 320 321 322 323 322 322 321 321 319 319 317 316 318 319 318 317 319 319 317 318 317 318 320 320 321 321 321 320 320 319 317 316 316 316 315 314 315 313 312 310 309
319 319 320 320 321 322 322 321 321 321 317 316 315 315 315 316 316 317 316 319 318 317 318 319 318 319 321 322 322 322 321 319 318 316 316 315 316 316 316 316 314 313 310
321 318 320 320 320 321 322 321 322 321 318 317 317 315 315 320 317 317 317 316 316 316 317 319 320 318 320 321 322 322 321 319 319 318 316 317 314 315 315 316 315 314 311

GFSSE_850_thetae_054.txt.gz
Theta_e
341 340 334 333 334 333 331 331 336 333 333 332 328 324 324 322 319 319 318 319 327 331 331 328 329 327 329 329 328 326 325 324 324 325 326 327 328 328 329 329 330 329 330
341 339 332 332 331 330 327 326 336 335 333 331 327 325 323 321 318 320 319 327 331 332 329 328 328 325 324 325 326 326 326 328 328 326 327 327 328 329 329 329 329 329 328
339 339 332 332 331 330 326 331 332 336 334 332 327 324 322 322 320 321 322 330 334 331 328 329 321 318 314 318 323 325 325 325 326 325 325 326 328 327 328 327 327 326 325
337 338 336 332 330 329 330 333 333 336 335 332 327 324 322 321 320 322 324 330 331 327 323 324 324 320 310 311 315 318 321 321 319 322 323 324 324 324 323 323 323 322 319
336 337 336 330 330 330 331 333 334 336 334 330 327 325 324 321 320 322 325 327 324 319 323 321 320 310 311 311 310 311 312 315 322 323 322 322 322 321 317 316 316 311 309
336 338 337 329 328 329 330 332 335 336 334 331 328 327 326 321 317 324 326 322 322 326 325 312 311 310 310 309 311 312 316 318 322 321 320 320 320 310 307 307 307 306 306
337 337 336 330 328 328 331 332 335 334 333 331 328 327 322 317 316 323 323 324 325 326 316 311 310 307 308 308 309 311 312 319 320 320 320 320 317 312 308 304 304 303 303
337 338 336 332 328 328 330 331 332 332 331 332 328 323 317 318 319 323 325 325 328 326 318 315 308 306 306 306 307 308 309 318 320 320 320 319 316 310 305 303 302 301 301
335 336 335 333 329 328 329 329 328 330 328 329 323 319 314 320 321 324 325 326 325 321 318 313 312 307 305 305 306 307 311 319 320 319 319 318 313 313 310 305 303 302 302
332 336 333 331 330 329 329 329 331 330 328 323 321 317 319 324 324 324 320 321 321 320 317 315 313 309 307 306 306 307 309 318 319 319 319 317 317 315 314 308 305 304 305
330 331 332 329 329 326 325 328 326 325 323 321 319 319 315 325 325 319 320 320 321 320 317 316 313 310 307 306 306 308 318 319 319 319 318 316 315 315 313 308 306 305 305
330 332 332 328 323 327 327 325 327 328 326 321 318 318 325 325 323 324 319 320 321 321 319 316 313 310 311 310 309 315 319 319 320 319 318 316 317 315 313 308 305 304 303
329 329 332 331 324 323 326 327 326 325 323 320 320 320 319 324 320 319 318 319 320 321 319 316 313 317 317 317 316 318 319 320 320 319 317 316 318 316 311 308 305 304 304
329 329 331 331 330 326 327 327 327 326 323 323 321 317 318 322 319 323 323 324 322 322 321 319 319 319 318 317 317 318 320 320 320 319 316 316 317 317 313 311 307 305 305
328 329 329 329 328 327 329 329 328 325 322 323 318 320 321 317 320 322 323 324 323 323 322 321 320 318 317 316 317 318 319 319 320 319 318 316 315 315 315 313 311 307 305
329 328 328 327 327 326 328 328 325 324 322 322 320 314 316 316 318 318 319 319 320 322 321 320 318 317 316 316 317 317 318 319 319 320 319 316 315 317 316 315 312 309 307
327 327 327 326 327 327 326 322 324 322 320 319 320 315 316 316 315 314 314 316 317 317 318 317 317 316 316 316 316 315 315 317 318 318 319 319 315 317 317 317 315 313 310
327 326 325 324 323 322 323 322 322 320 321 319 316 314 314 314 314 312 314 315 315 315 315 316 317 316 315 315 316 316 315 315 315 315 317 318 318 318 316 316 315 314 310
326 325 325 324 322 322 321 322 320 321 319 318 317 313 316 315 314 312 311 314 312 316 315 315 315 315 315 315 314 314 312 313 312 313 314 314 316 317 318 317 313 310 310
325 324 325 325 323 322 321 320 319 319 318 319 316 316 317 316 315 313 313 313 316 317 314 314 314 313 313 313 312 312 312 312 312 312 312 311 315 315 316 317 315 312 309
323 324 324 325 323 323 322 321 321 320 318 316 316 315 318 315 314 315 316 314 316 319 319 318 318 314 314 312 312 312 312 312 312 313 312 312 311 311 315 312 315 316 316
321 323 324 323 324 323 322 321 320 320 319 318 317 316 319 317 315 317 318 317 317 320 319 319 320 319 318 315 315 317 317 316 314 316 316 314 312 311 311 310 314 315 315
323 322 323 323 323 323 322 322 322 321 319 317 316 318 317 320 317 319 317 319 318 318 318 318 319 320 320 318 319 320 320 319 319 317 317 314 313 313 312 312 314 313 313
323 324 322 323 323 322 322 322 321 321 319 318 317 317 319 321 319 319 317 317 317 318 319 320 318 318 320 320 319 320 320 321 321 320 317 316 316 316 313 313 314 313 313
323 323 322 321 322 323 322 322 322 320 319 318 318 317 320 319 320 317 317 317 318 320 319 320 317 317 322 322 321 320 319 320 320 320 321 320 318 319 318 314 313 313 314
324 323 322 321 321 322 323 322 319 319 318 318 318 317 318 319 320 317 316 317 318 320 318 317 318 317 318 321 320 322 322 321 320 319 319 319 318 317 318 318 313 315 315

GFSSE_850_thetae_057.txt.gz
Theta_e
343 341 338 334 335 338 338 337 335 330 328 330 327 325 325 323 322 321 320 320 324 328 329 331 333 333 330 325 326 327 326 325 326 326 326 328 329 330 330 330 330 331 330
342 342 338 334 334 336 335 336 337 332 329 330 327 326 324 323 320 321 319 319 330 330 330 331 331 331 329 327 326 327 325 326 327 326 327 328 328 329 329 330 330 329 329
341 342 336 334 335 339 338 336 336 335 333 331 327 326 323 322 321 320 321 329 331 330 328 328 328 328 326 325 325 324 326 325 325 327 328 328 329 328 329 328 328 327 325
340 340 337 334 334 339 337 333 333 335 333 332 328 326 322 321 326 326 327 331 331 328 326 316 321 320 323 324 325 326 326 324 324 326 327 327 326 327 327 325 324 322 321
341 340 341 333 334 335 333 331 335 334 333 331 328 325 322 328 328 327 329 332 331 325 318 318 312 312 313 320 322 323 320 323 325 325 325 325 325 325 322 321 318 314 312
338 339 339 337 332 331 331 331 336 336 334 331 331 324 325 325 328 329 323 330 327 314 314 323 309 309 311 315 316 316 320 323 323 323 323 322 322 319 313 310 308 307 307
337 339 337 337 332 330 332 335 336 336 336 332 329 325 324 325 324 326 328 324 315 311 316 310 309 310 311 312 313 318 321 321 322 322 322 321 318 314 312 308 306 305 304
337 337 337 338 335 329 330 334 331 336 336 334 328 326 324 323 324 328 323 320 320 313 310 309 309 309 311 313 316 317 320 321 322 322 321 320 317 315 310 305 304 304 302
335 336 337 337 336 329 330 331 326 337 336 332 329 327 322 322 326 324 325 327 324 316 313 308 307 309 311 312 311 317 320 321 321 321 320 318 315 312 309 304 304 303 303
335 332 336 336 336 329 329 330 329 335 333 332 329 327 321 318 319 325 326 328 324 318 312 308 306 308 307 308 309 318 320 321 321 320 320 317 315 311 307 304 304 305 305
334 331 333 335 334 332 332 329 330 326 331 331 328 323 320 324 324 324 327 327 321 317 313 310 307 306 306 307 308 318 320 321 321 320 319 318 317 314 308 307 306 306 306
333 331 331 333 332 330 330 329 329 329 330 327 324 322 323 323 325 328 325 322 320 316 314 311 308 306 309 308 316 320 321 321 321 320 318 317 315 314 309 306 305 305 305
332 330 332 331 327 327 328 325 328 327 326 325 324 321 321 320 324 325 322 321 319 317 315 312 309 314 317 316 319 322 321 322 321 320 317 316 315 313 309 305 304 304 304
332 330 329 331 329 323 325 326 326 327 325 324 321 320 318 320 322 323 322 322 320 318 316 313 317 319 319 318 321 321 322 321 321 320 317 318 317 315 312 307 305 305 305
329 330 329 331 330 325 323 324 325 326 326 324 322 321 320 323 322 323 323 323 322 323 321 319 321 320 319 320 320 322 322 322 321 319 317 316 316 315 313 313 307 306 306
329 329 330 330 330 326 326 326 326 325 326 324 319 320 320 323 321 324 324 325 323 323 322 321 321 320 319 319 320 321 321 321 322 321 319 316 316 316 316 314 310 308 307
330 328 328 328 329 328 328 328 328 326 326 322 320 318 316 317 322 325 325 324 322 323 322 321 321 319 318 319 319 320 320 321 321 322 320 319 317 317 317 317 315 311 309
327 327 327 327 326 327 327 327 326 325 325 323 320 318 322 318 322 322 322 322 321 322 321 320 319 318 318 318 319 319 319 319 320 320 321 321 319 318 317 317 317 315 311
327 327 326 325 324 323 323 324 324 324 322 320 319 319 317 321 320 319 318 318 318 319 319 319 319 318 317 317 318 318 318 318 318 318 319 320 320 320 318 317 315 314 313
326 327 326 325 324 323 323 323 323 322 321 319 313 318 320 319 316 315 316 317 317 317 317 318 318 318 317 317 317 317 316 316 315 315 316 317 318 319 320 320 318 314 313
327 326 324 324 323 322 322 322 321 320 320 315 317 317 315 315 313 314 315 312 317 318 318 317 317 317 317 316 315 315 315 315 315 315 315 315 316 317 318 318 318 317 316
326 324 325 325 324 323 322 322 321 320 319 314 314 316 314 315 314 314 313 313 316 319 319 320 318 318 316 315 314 315 315 315 315 315 316 315 316 316 316 317 317 317 318
326 324 324 324 324 323 322 321 321 321 318 316 315 315 316 317 318 315 316 318 315 319 322 322 322 321 320 318 316 318 319 319 319 318 318 317 316 315 315 315 317 317 317
326 326 324 323 324 323 323 322 321 321 319 317 315 315 317 317 316 315 318 320 320 319 321 323 323 322 322 321 320 319 321 322 322 321 319 318 316 316 316 315 314 315 316
327 326 323 323 324 324 324 323 321 321 320 318 317 316 316 318 316 317 319 321 322 321 321 322 322 322 322 320 322 322 321 321 322 323 322 320 319 318 317 317 316 315 315
327 327 324 322 323 324 323 322 322 321 321 319 316 317 318 319 319 319 321 321 320 321 321 321 321 321 321 321 318 322 322 322 321 321 321 321 321 320 318 319 319 318 318

GFSSE_850_thetae_060.txt.gz
Theta_e
343 343 339 337 339 338 337 335 331 329 329 330 325 324 324 323 322 322 321 320 318 318 324 326 319 319 326 326 328 329 326 326 327 328 329 329 330 331 330 330 330 331 331
344 337 339 337 338 339 338 336 332 329 329 330 326 325 323 322 322 321 320 319 322 328 331 333 332 325 322 324 325 324 323 323 324 326 328 331 331 331 329 328 329 329 329
343 342 340 336 335 337 339 337 333 330 329 331 327 325 323 323 323 321 320 326 328 329 332 331 331 326 325 327 326 325 326 326 327 328 329 329 328 329 328 327 328 326 325
341 342 339 335 334 336 340 337 334 330 329 329 327 325 323 322 322 323 330 330 330 325 328 327 325 326 324 324 323 323 324 325 326 328 328 329 329 328 327 327 323 320 318
336 343 340 336 334 337 339 338 337 332 330 330 329 325 322 320 323 328 331 331 329 318 319 324 321 319 325 325 326 323 326 327 326 324 327 326 326 326 323 321 318 315 312
333 343 340 340 335 337 340 340 338 334 333 331 328 325 320 323 326 328 331 331 328 315 312 315 312 316 321 325 322 323 324 324 326 325 323 324 324 325 321 313 310 308 308
337 340 340 338 338 336 339 336 333 335 335 332 329 324 324 328 328 330 332 331 325 326 313 309 311 315 319 319 318 322 323 323 323 323 322 319 323 320 312 308 306 305 305
337 336 340 338 337 336 333 332 334 335 336 333 329 325 327 325 326 328 331 327 318 311 310 309 309 310 312 313 320 321 322 322 322 322 319 319 319 316 309 305 304 303 302
334 336 338 337 338 337 332 331 333 333 332 334 331 324 324 325 326 326 327 320 314 313 310 309 309 309 313 316 320 321 322 322 322 321 317 317 317 313 309 304 302 302 302
336 334 336 337 337 335 334 330 331 330 326 328 330 325 324 323 325 325 322 321 313 310 309 308 308 310 311 314 320 321 321 321 320 319 317 317 316 314 309 304 304 304 305
332 334 332 334 337 336 332 329 330 330 326 331 329 326 324 324 324 323 325 325 315 312 308 307 307 307 309 313 320 320 321 320 320 320 314 316 314 312 307 306 306 306 306
332 333 332 332 335 334 331 329 329 329 325 330 329 327 322 320 319 314 326 324 316 311 307 306 306 307 307 316 320 321 321 321 321 320 313 318 314 309 306 306 306 306 306
333 332 332 331 333 333 331 330 330 328 324 331 329 325 323 323 325 324 326 322 314 312 309 307 306 306 307 319 320 322 321 321 321 318 316 317 312 308 307 305 305 305 305
332 333 329 332 331 331 329 329 329 328 324 328 325 324 321 318 323 324 325 321 315 314 311 307 310 313 310 320 322 321 322 321 321 318 314 315 312 310 306 305 305 306 305
331 331 329 329 331 329 327 327 327 327 325 325 326 324 320 321 321 320 322 320 316 314 311 315 319 318 318 320 322 321 322 321 320 318 314 315 313 311 308 306 306 306 306
329 328 329 330 330 330 325 326 327 327 326 325 324 321 320 321 319 320 321 320 317 317 313 321 321 320 319 320 321 322 322 322 320 317 313 315 313 313 311 309 308 308 307
330 329 328 328 329 330 325 325 325 326 326 326 325 323 321 320 318 319 321 321 320 322 320 321 321 320 319 320 321 322 322 322 321 319 319 314 315 316 316 314 312 309 309
329 327 328 327 329 328 327 326 327 326 325 325 325 323 321 321 320 319 322 322 321 324 321 322 321 319 319 320 320 321 321 321 322 322 321 320 317 313 316 316 316 314 311
329 330 327 327 327 326 328 326 326 326 326 325 325 322 320 315 322 322 322 322 322 324 322 322 320 318 318 319 319 319 320 320 320 321 321 321 320 319 316 316 315 314 312
327 329 327 326 325 324 324 323 322 324 325 324 322 321 319 317 323 323 322 322 322 322 321 320 319 318 318 318 319 319 318 318 319 319 319 320 321 320 319 319 319 318 316
328 328 326 326 325 324 323 323 324 322 322 322 320 316 320 320 321 322 319 318 319 320 319 319 319 318 318 317 318 318 317 317 316 316 316 318 317 319 319 319 319 319 317
327 326 324 325 324 323 322 323 323 323 322 320 319 316 321 319 320 320 317 317 317 317 317 318 317 318 317 317 317 316 316 315 315 315 315 314 314 316 316 318 318 317 316
327 325 325 324 324 324 321 322 322 322 320 319 318 313 314 318 317 316 314 313 314 317 317 318 317 317 317 316 316 314 315 316 316 316 315 314 315 315 316 316 316 317 317
327 326 324 326 324 324 322 321 322 321 320 317 313 314 318 315 314 313 314 313 312 313 314 319 320 318 318 317 316 314 317 320 321 320 317 317 316 316 316 316 315 315 315
327 327 324 327 324 324 322 322 322 321 320 317 317 315 316 316 316 315 315 316 314 315 318 322 322 320 320 321 320 318 318 320 321 321 320 319 318 318 317 317 316 316 315
328 328 325 325 326 323 323 322 322 321 320 317 315 316 315 315 316 315 314 316 321 319 317 322 322 321 320 321 322 322 322 320 318 319 321 320 321 320 319 319 320 320 319

GFSSE_850_thetae_063.txt.gz
Theta_e
342 342 340 337 337 336 335 331 329 329 329 326 324 324 324 325 329 332 332 328 323 318 316 318 326 330 331 330 330 333 331 330 329 328 330 331 332 331 331 332 332 332 332
334 337 340 337 338 337 336 333 329 328 329 327 324 323 324 324 325 325 322 320 317 315 316 318 325 329 328 327 329 327 327 327 328 329 329 330 330 329 328 329 329 329 330
334 334 336 336 338 337 336 334 330 328 328 328 325 323 323 322 322 320 319 317 320 331 332 327 323 321 324 326 325 324 325 327 328 328 328 329 329 330 328 328 328 328 328
340 331 336 337 336 338 337 336 332 329 328 329 326 323 322 321 319 319 322 325 331 332 333 329 323 325 326 325 326 325 325 325 326 328 328 328 328 328 327 325 324 321 319
340 341 342 339 335 337 338 338 334 330 328 329 327 324 322 320 318 322 329 328 328 330 330 329 323 326 325 322 323 324 325 326 325 326 326 325 327 327 324 319 315 313 311
332 342 342 341 336 334 337 339 336 333 330 329 328 324 322 321 321 327 329 329 325 329 329 321 321 323 324 324 326 326 326 326 325 325 324 324 324 321 316 311 310 310 309
325 341 342 341 338 335 337 340 339 337 333 330 329 325 321 323 326 326 329 329 322 328 319 318 321 325 324 324 324 325 324 326 324 322 323 323 322 322 314 309 308 308 310
324 333 340 341 338 337 335 338 339 338 334 333 330 326 321 325 327 323 330 329 321 317 311 318 320 322 322 322 324 323 324 323 323 321 318 320 321 322 314 308 306 305 304
327 332 339 340 337 336 337 335 335 334 334 335 333 326 324 327 327 324 329 328 320 316 310 313 319 318 319 323 322 322 322 322 320 317 312 317 321 316 312 306 303 302 302
332 334 333 337 338 337 335 333 332 333 332 329 330 330 328 328 327 323 325 323 315 310 311 314 311 316 320 321 321 322 322 321 320 312 310 313 314 315 308 303 303 303 304
331 331 332 332 336 336 336 331 330 330 331 328 325 325 329 330 323 323 322 318 315 311 310 310 311 313 320 321 321 321 321 320 317 309 308 312 315 313 307 305 305 306 306
330 330 331 331 332 336 335 332 330 330 329 327 326 325 329 327 324 324 320 316 311 309 309 310 313 315 320 320 321 321 320 320 320 317 307 308 313 314 308 306 306 306 305
332 331 332 331 332 333 333 330 329 329 329 325 325 328 327 327 324 324 325 316 313 309 309 308 309 310 320 320 321 321 321 320 320 318 307 310 310 308 307 306 306 306 305
331 331 330 331 331 331 330 330 329 329 328 324 327 328 326 323 320 323 326 317 311 308 306 307 307 312 320 321 321 322 320 320 320 314 309 308 308 308 306 306 306 305 306
331 330 330 332 330 329 329 329 329 328 324 324 328 326 322 318 318 322 324 319 314 309 306 306 306 316 321 321 321 322 322 321 320 317 309 309 308 307 306 306 306 306 306
330 330 330 329 330 328 328 327 328 326 324 326 328 327 321 323 324 322 325 319 313 310 307 308 307 318 321 320 321 321 321 321 320 319 310 310 309 307 306 306 306 307 307
328 328 329 332 330 328 328 326 327 327 326 327 326 324 320 318 323 322 322 319 315 311 315 318 318 317 319 321 321 322 321 321 320 316 311 310 310 309 308 308 309 309 308
330 326 328 332 327 327 326 325 326 326 325 325 325 323 320 321 321 320 322 320 316 313 321 321 320 319 320 320 321 322 322 321 321 320 319 313 313 312 312 311 311 310 310
329 325 327 327 329 328 326 325 325 324 326 326 325 323 322 321 320 319 320 320 318 318 318 322 320 319 320 319 320 321 321 321 322 321 321 320 319 317 313 313 313 312 312
329 327 326 327 326 329 325 327 325 325 324 326 325 324 323 320 319 319 320 321 320 322 320 322 320 318 319 319 319 320 320 321 321 321 320 321 320 320 319 317 317 317 316
328 327 326 326 327 325 327 327 327 326 326 326 325 324 323 320 320 324 322 322 321 322 321 322 320 318 319 319 319 318 319 319 319 319 320 320 320 320 319 318 317 318 318
326 326 324 326 325 324 323 323 322 321 322 323 325 324 322 323 323 323 322 321 322 323 322 321 319 318 319 318 319 319 318 318 318 317 316 317 319 319 318 318 317 316 317
326 326 322 323 325 323 323 321 322 323 323 322 323 323 322 320 323 323 319 321 321 320 320 319 318 319 318 318 318 319 317 316 316 316 315 315 315 316 316 316 316 316 316
326 326 322 324 325 323 323 322 323 322 321 321 321 320 320 316 321 321 319 319 319 318 319 318 318 317 313 318 317 317 316 315 316 317 316 315 315 315 314 315 316 316 316
326 326 324 323 324 323 322 321 321 323 322 321 319 321 321 318 319 320 320 318 314 315 316 318 317 314 313 317 317 317 315 314 319 320 320 319 316 315 315 316 316 316 316
327 326 325 321 324 323 323 321 321 322 321 320 319 316 316 316 317 316 316 313 313 314 317 317 313 314 316 317 316 316 316 314 316 317 320 320 319 319 319 318 317 317 318

GFSSE_850_thetae_066.txt.gz
Theta_e
338 339 339 336 334 333 331 328 328 328 326 326 327 331 335 338 338 337 335 333 328 325 322 319 323 331 329 330 334 334 332 331 331 332 333 333 333 333 333 332 333 333 332
331 330 335 337 335 334 332 329 328 328 326 324 325 327 331 333 335 335 333 328 323 319 316 316 322 333 330 330 332 331 330 330 331 332 332 331 332 332 332 332 331 332 332
326 326 330 336 336 335 333 330 328 328 328 325 324 324 325 328 330 329 324 320 318 315 314 319 331 332 329 329 330 329 328 329 330 330 329 329 330 331 330 330 329 328 328
325 326 334 335 337 336 335 332 329 328 328 326 324 323 324 324 324 322 320 317 315 318 318 322 331 329 327 327 326 327 328 329 329 328 327 327 328 328 327 326 325 326 325
323 324 332 339 336 337 336 334 331 328 328 328 324 323 322 322 321 318 317 321 330 331 331 331 329 325 325 325 326 326 327 327 326 326 327 326 326 327 324 322 318 317 315
325 324 331 338 339 335 338 336 334 330 328 329 325 323 322 321 318 318 322 330 331 330 329 331 325 326 326 326 326 326 326 325 324 325 325 325 326 325 318 314 312 311 310
329 328 334 333 340 336 335 338 336 332 329 328 327 323 322 319 320 326 325 329 329 329 328 326 325 324 324 325 325 325 324 323 323 325 324 324 321 318 313 310 310 309 309
329 336 339 340 339 337 335 336 338 335 332 329 329 324 322 320 325 328 327 326 326 328 326 324 324 326 326 325 325 325 324 322 321 321 320 321 320 319 310 309 307 308 309
326 326 334 340 339 336 337 335 337 338 334 333 332 330 327 323 327 329 326 325 324 325 323 325 324 325 325 325 324 323 323 323 322 319 313 321 319 316 309 305 306 306 308
327 329 331 335 336 335 335 336 335 332 325 333 333 332 329 326 329 329 328 321 315 314 323 324 323 324 323 322 323 323 321 321 319 314 310 317 315 314 308 304 304 304 305
331 332 330 331 333 335 334 335 334 334 333 333 330 328 327 331 329 329 328 322 311 314 320 323 322 323 322 322 322 322 321 321 315 308 312 315 313 312 306 304 306 305 306
331 330 331 331 331 335 335 335 334 333 331 331 329 327 327 327 325 328 327 320 313 311 318 321 320 322 320 322 322 321 320 316 308 307 312 316 314 310 305 306 306 306 306
329 330 329 330 330 333 333 336 333 332 330 330 329 326 325 326 327 329 325 322 312 310 313 316 319 321 321 321 321 320 319 319 318 307 307 312 309 306 306 306 306 306 305
329 329 330 331 331 330 331 332 332 330 329 329 327 326 324 330 325 326 321 313 311 309 311 311 317 320 321 320 321 320 320 320 319 312 307 307 307 307 307 306 306 305 305
330 329 327 331 329 329 329 330 330 329 329 328 325 325 324 327 326 324 318 313 310 309 309 313 317 320 320 320 321 321 321 320 319 311 308 307 307 307 306 306 306 306 306
330 330 328 329 328 328 328 330 330 329 328 327 325 328 328 326 324 324 320 315 310 309 308 310 315 320 320 322 322 321 321 321 320 316 309 308 307 306 306 306 306 306 306
328 326 328 327 329 328 328 327 329 328 325 325 327 329 326 324 323 326 322 316 313 308 306 307 314 320 321 321 321 321 321 321 320 317 310 309 307 307 306 307 308 308 308
329 328 325 326 329 328 328 327 328 327 324 326 327 326 324 320 317 317 320 317 311 308 306 306 318 321 320 320 321 321 321 320 319 313 311 309 309 308 308 309 309 309 309
329 328 324 328 329 329 327 326 326 327 326 326 327 327 325 322 321 321 324 317 313 309 308 307 320 320 318 321 322 321 320 321 321 318 319 312 312 311 311 310 310 310 310
328 328 324 325 327 327 326 325 325 326 326 327 326 325 322 324 323 323 324 316 313 311 316 317 316 316 318 319 321 321 321 321 321 321 320 318 319 316 315 312 313 313 312
328 327 324 325 328 327 326 325 326 326 326 326 325 324 322 321 322 322 323 318 314 317 320 321 320 319 320 319 321 321 321 321 321 320 320 319 320 319 318 317 315 315 316
327 327 324 323 328 326 327 325 326 326 326 326 326 326 322 320 322 320 319 320 317 315 319 321 320 319 320 319 319 319 320 320 320 320 319 319 319 319 319 318 317 316 316
327 326 323 319 326 327 327 325 326 326 325 324 324 326 323 322 320 320 318 321 319 321 319 321 320 319 318 319 319 319 319 319 319 319 318 318 316 317 317 316 316 315 316
327 326 322 320 325 326 325 324 322 321 321 321 322 324 323 321 319 320 322 323 320 321 321 322 321 318 318 319 319 319 317 318 317 317 317 317 316 315 315 314 314 313 314
327 326 323 320 323 323 322 324 322 321 322 322 323 322 323 321 320 323 323 323 321 322 323 322 320 319 317 318 319 314 315 318 315 315 317 316 315 315 315 315 315 314 315
327 326 324 321 321 324 322 322 321 321 322 322 322 322 322 322 320 321 321 322 321 320 319 319 316 319 318 318 315 315 317 317 315 317 319 319 319 319 318 317 316 317 318

GFSSE_850_thetae_069.txt.gz
Theta_e
338 337 338 334 333 331 330 327 328 335 334 334 336 339 341 339 336 333 332 332 331 329 327 326 325 328 330 332 335 335 332 331 332 333 333 333 333 333 333 332 332 333 332
330 328 331 336 333 331 329 327 328 333 331 331 334 337 339 339 338 335 332 332 330 327 325 324 326 327 330 332 334 332 331 331 332 333 333 333 332 332 332 332 332 332 331
325 323 327 336 334 332 330 328 328 328 327 329 333 336 339 339 338 335 334 332 328 324 321 322 328 330 330 329 331 330 330 330 332 332 332 332 331 331 331 331 331 331 331
325 324 325 331 335 334 331 329 328 328 327 326 328 333 335 335 335 335 333 327 322 318 318 328 332 332 329 330 331 329 329 330 331 330 330 330 330 330 330 330 330 330 329
324 324 324 327 331 335 333 330 328 328 328 326 325 327 330 332 332 329 324 320 318 317 322 327 330 331 328 329 329 328 328 329 329 327 326 327 329 328 327 324 323 323 325
322 322 324 327 332 335 336 333 329 328 328 327 325 324 325 327 325 322 319 317 318 319 328 329 329 328 327 327 327 327 328 327 327 325 324 326 328 324 322 318 315 314 315
323 324 328 330 334 335 337 336 332 329 328 329 325 323 323 323 322 319 318 327 330 329 329 328 326 326 326 326 326 326 326 325 324 323 323 324 325 321 316 312 310 310 310
325 327 331 335 335 338 335 336 336 333 329 329 326 324 324 322 319 319 329 331 330 329 327 326 326 325 325 325 325 325 324 324 323 322 322 322 321 314 314 310 310 310 309
328 328 329 339 339 338 336 335 335 334 334 329 328 328 329 324 321 326 328 329 328 327 325 326 326 325 325 324 324 324 321 321 321 320 317 319 320 320 313 311 311 311 307
327 325 328 334 336 336 336 336 335 335 332 332 331 330 328 326 327 323 328 328 326 326 326 324 324 323 325 324 323 324 323 322 321 318 312 317 321 320 312 312 308 306 305
327 328 330 330 332 333 333 333 334 334 333 328 327 328 329 326 328 328 327 326 325 319 324 325 326 326 326 324 323 323 321 320 318 315 311 319 318 316 316 312 310 305 305
326 328 330 330 330 331 333 333 333 334 334 327 327 330 329 325 326 325 326 326 325 321 324 325 325 324 323 322 323 321 321 319 314 310 310 317 316 315 313 313 309 307 306
326 329 330 330 330 331 332 333 333 333 333 331 328 330 327 325 327 326 327 325 324 325 324 323 323 322 322 322 322 321 319 312 309 308 314 317 314 315 312 309 307 306 306
326 327 328 329 330 329 330 332 332 331 332 331 331 329 325 324 324 326 326 325 319 325 323 322 322 322 321 322 321 320 319 318 310 307 314 316 313 318 313 309 306 306 305
327 326 327 328 329 329 330 330 330 330 330 330 330 328 326 325 324 326 326 323 314 321 322 322 322 321 321 321 321 320 320 319 317 308 309 314 314 314 312 307 306 306 305
327 325 324 327 326 328 329 328 329 330 330 329 329 327 326 324 325 323 327 320 314 317 321 319 321 320 321 321 321 320 320 320 318 310 308 308 314 314 308 306 306 306 306
327 325 322 326 327 328 327 328 329 329 329 329 327 326 325 325 326 324 326 319 313 313 314 316 320 320 320 320 321 320 320 320 319 314 309 308 307 307 307 306 307 307 308
328 326 323 323 327 327 327 328 327 329 328 327 327 326 325 325 326 323 324 314 311 310 310 313 320 319 320 321 321 320 321 320 319 317 311 309 307 307 306 307 308 309 309
327 327 324 322 326 328 326 327 326 328 328 325 326 328 327 325 326 326 322 314 311 309 309 313 319 319 321 321 321 321 321 320 319 315 313 310 308 307 307 309 309 309 309
327 328 325 321 325 327 328 327 326 327 325 324 327 326 327 326 326 325 324 316 310 308 308 310 315 319 321 321 321 321 321 320 320 317 315 311 310 309 309 309 310 310 310
328 328 325 320 325 327 327 327 326 326 326 326 326 326 326 325 323 323 324 318 311 308 306 307 314 320 320 321 321 321 320 320 320 320 320 316 316 315 314 312 312 312 313
328 327 326 321 322 326 325 325 325 326 325 326 326 327 326 326 322 321 324 322 312 308 306 306 318 320 320 320 321 321 320 320 320 321 320 320 319 319 318 317 317 315 315
328 327 326 321 321 325 325 325 325 325 325 325 326 327 326 325 322 324 324 322 314 309 310 308 317 319 316 319 320 321 320 320 320 320 320 320 319 319 319 318 317 316 316
328 327 326 322 320 323 325 325 324 325 325 326 326 326 325 325 322 324 323 323 317 311 315 317 318 318 318 319 320 321 320 318 318 319 319 319 319 318 317 316 315 314 314
328 327 326 322 319 321 324 327 324 323 323 323 324 324 324 325 323 322 322 321 321 316 316 320 321 320 319 319 318 319 318 316 316 314 316 316 318 317 317 315 314 314 314
328 327 326 323 319 321 322 323 325 324 322 321 321 320 322 323 323 322 321 320 320 320 318 318 319 321 320 318 318 318 316 317 315 315 316 316 316 316 315 316 316 316 316

GFSSE_850_thetae_072.txt.gz
Theta_e
332 333 334 331 332 333 333 334 333 333 335 337 338 340 341 340 335 330 331 331 330 328 326 325 326 328 331 332 332 332 331 332 332 332 333 332 332 332 333 332 331 332 332
325 327 331 334 331 332 331 331 330 332 335 336 337 340 341 338 332 330 331 331 330 329 327 327 327 328 329 333 334 331 331 331 332 333 333 332 332 332 331 331 331 331 331
324 324 327 334 332 332 331 329 329 333 334 334 336 339 341 338 332 332 331 331 330 328 326 326 328 329 331 334 333 331 330 331 333 333 333 333 332 332 332 331 331 331 331
322 322 323 329 332 332 331 329 331 333 331 330 331 336 339 338 336 334 332 331 330 327 326 327 328 330 332 333 331 330 330 331 332 332 332 331 331 330 330 330 329 329 330
321 321 321 324 331 333 332 329 330 331 330 329 330 334 338 338 338 334 333 331 329 329 329 328 328 331 330 331 329 329 329 330 331 331 331 330 330 330 330 329 329 328 329
323 323 323 323 328 333 333 331 329 329 328 328 330 335 338 337 336 335 334 331 326 327 328 328 331 330 330 330 329 329 329 329 329 329 329 326 328 328 325 325 324 326 326
324 323 323 323 329 333 334 332 330 329 328 328 329 331 333 336 334 333 331 324 325 328 326 327 329 328 328 329 329 328 327 328 327 326 324 325 324 323 319 316 315 316 317
324 324 325 324 330 336 335 334 333 330 329 329 328 330 333 327 333 329 322 319 321 325 328 328 328 327 327 328 327 327 327 326 325 323 322 323 324 322 318 315 311 312 311
326 327 327 327 332 335 337 335 334 333 332 331 331 333 331 328 324 323 326 329 330 329 328 328 325 326 326 326 326 326 325 324 323 323 322 322 323 320 320 312 313 312 308
328 326 324 326 336 337 333 333 335 334 333 333 333 330 330 327 326 323 328 331 330 328 327 324 325 325 325 325 325 323 321 322 322 322 322 318 318 317 315 314 313 311 310
328 325 324 327 335 334 335 333 333 334 334 334 332 326 327 326 327 326 329 330 329 327 324 325 326 326 324 324 324 322 322 322 322 320 316 319 321 319 317 314 314 311 308
327 325 324 328 329 331 332 331 331 332 334 333 331 326 325 327 327 325 324 327 327 327 325 325 325 324 324 323 324 323 321 320 318 317 313 319 321 318 320 313 308 307 309
327 323 325 328 329 330 331 331 331 331 331 332 329 327 325 325 326 326 325 326 326 327 325 325 325 324 323 322 323 321 320 319 314 315 314 319 320 316 316 314 311 310 309
326 325 322 327 329 329 329 331 330 330 332 332 330 325 327 327 327 325 325 324 325 325 324 325 325 325 323 322 322 321 317 311 310 310 314 319 318 318 319 317 315 307 306
327 325 322 325 328 329 329 330 329 329 331 331 329 328 329 329 326 326 324 326 324 324 325 325 324 323 322 322 321 320 318 316 308 309 314 318 318 319 320 316 312 307 305
327 326 322 324 326 328 327 328 329 329 330 329 330 329 329 327 327 326 325 324 322 324 324 324 323 322 321 321 321 319 319 319 314 308 311 315 316 319 318 316 309 306 305
327 326 325 325 326 326 326 327 327 328 327 328 330 329 328 326 325 325 325 323 324 324 324 322 322 321 321 321 320 319 320 319 317 310 308 308 314 312 312 307 306 306 306
328 326 326 324 326 326 327 326 327 327 327 329 328 329 328 325 325 325 324 323 325 323 324 322 321 321 321 320 320 320 320 320 318 314 310 308 308 309 308 306 306 306 307
328 327 326 324 325 326 326 326 326 327 326 327 328 328 327 326 326 325 325 324 325 320 324 322 321 320 320 320 319 320 320 320 319 317 313 310 308 308 307 306 307 307 308
328 328 327 326 323 325 326 325 326 326 325 325 326 324 326 325 325 326 326 324 323 317 323 322 320 319 320 320 320 320 320 320 319 318 314 312 311 308 307 307 308 308 308
329 328 327 326 322 325 325 326 326 325 328 326 326 327 327 325 325 325 325 325 319 314 315 317 319 319 319 321 321 320 320 320 319 318 314 313 311 311 308 308 309 309 309
328 328 328 326 321 326 327 326 326 325 328 325 328 326 327 325 326 325 324 325 317 312 314 316 317 317 319 320 321 321 320 319 319 319 318 317 314 313 312 311 311 311 312
328 328 328 326 322 324 328 326 325 324 325 326 326 326 327 324 324 322 324 324 316 311 310 313 317 317 319 320 320 321 319 320 319 320 320 320 320 319 319 319 318 317 316
328 328 328 326 323 321 329 324 324 324 325 325 325 325 327 326 325 324 322 322 321 312 310 309 313 313 319 320 321 321 320 319 319 320 320 320 320 320 319 318 318 318 317
327 328 328 326 324 320 328 324 324 324 324 325 324 324 326 326 326 325 322 319 324 320 311 307 307 311 319 320 319 320 321 320 319 316 312 311 311 315 314 314 316 315 315
327 328 328 326 325 319 322 325 323 323 323 324 324 324 323 325 324 325 324 324 322 322 314 308 308 311 319 318 317 317 319 320 319 315 313 312 313 315 316 316 316 316 315

GFSSE_850_thetae_075.txt.gz
Theta_e
328 328 326 324 325 329 332 335 340 339 338 338 339 340 340 340 337 332 331 332 333 332 329 329 329 330 330 330 330 331 333 334 334 335 334 333 332 332 332 332 333 333 333
327 327 325 326 325 328 331 335 337 337 337 337 338 339 340 340 338 330 330 332 331 333 328 328 330 332 328 329 331 331 334 334 333 333 333 332 331 331 332 332 332 333 333
321 322 323 325 327 330 332 333 334 334 335 336 337 339 340 340 337 330 330 331 330 335 334 333 332 329 328 330 331 330 331 332 333 333 333 333 333 332 332 331 331 331 331
323 321 321 321 326 330 332 331 332 334 335 336 338 339 340 340 336 330 330 331 330 333 332 329 330 328 332 333 331 329 331 332 333 333 333 332 332 331 331 331 331 331 331
322 322 321 321 325 330 331 331 330 331 334 336 338 339 340 339 335 331 331 331 330 329 331 330 330 331 333 333 331 329 331 332 332 332 332 332 331 331 330 330 329 330 331
322 322 321 323 324 330 332 331 330 330 331 332 336 338 339 339 334 332 332 331 330 329 329 329 331 330 333 332 329 330 331 331 331 331 330 330 330 329 329 328 329 329 329
323 323 323 325 328 332 333 332 330 330 330 329 331 336 339 336 334 334 333 332 331 328 327 330 329 332 330 329 328 330 330 331 330 330 329 329 328 329 327 326 327 327 327
324 324 324 325 330 333 334 333 331 330 330 328 329 335 337 336 336 334 333 333 330 325 329 328 328 331 329 329 329 330 329 329 329 329 327 326 325 325 322 321 322 323 324
324 324 325 326 329 334 335 335 333 331 330 331 331 333 334 334 335 333 333 331 326 327 327 328 329 328 328 328 329 329 328 328 327 325 324 324 324 323 319 312 312 312 314
326 326 327 326 328 333 335 336 335 333 332 331 331 332 332 332 332 332 328 323 324 325 326 329 329 327 327 328 328 327 326 325 324 323 323 321 323 319 317 313 310 310 310
328 328 325 324 325 331 336 333 332 334 333 332 332 331 330 327 327 327 324 325 328 329 329 330 328 326 326 327 326 325 323 323 323 323 323 320 322 322 321 317 313 309 308
328 328 325 324 326 332 335 335 333 332 333 333 333 331 329 327 325 326 326 326 326 326 328 329 326 325 326 326 324 322 321 322 322 321 320 319 320 321 320 318 313 311 310
329 327 325 322 325 329 332 333 332 331 331 334 334 333 329 327 324 324 326 326 327 328 328 327 327 326 325 324 323 322 321 320 320 318 318 320 321 321 320 316 312 312 310
330 327 324 322 324 328 330 331 332 331 330 328 329 332 328 325 325 326 325 326 326 328 327 326 326 325 324 322 322 321 320 320 319 317 314 320 319 318 317 316 315 312 309
331 328 325 322 322 328 328 330 331 331 329 330 330 330 326 326 325 323 326 325 327 326 327 326 325 324 323 322 322 321 319 314 312 315 318 319 318 318 317 319 314 309 307
331 328 326 323 323 327 328 329 330 331 328 329 332 330 329 327 325 325 327 324 326 324 325 325 324 324 323 322 321 320 317 313 310 315 317 318 319 318 318 318 316 311 308
331 328 327 324 325 324 328 328 328 327 328 329 330 328 328 325 326 326 326 325 325 322 325 325 325 325 322 322 321 319 318 317 311 311 314 318 318 318 318 318 313 312 311
332 328 327 326 325 324 325 325 326 327 327 330 327 327 329 328 327 327 326 325 326 322 326 325 325 323 321 322 321 319 319 318 314 310 311 315 317 317 317 315 311 310 308
330 328 327 327 324 325 325 326 325 326 327 328 329 328 329 328 328 327 326 325 325 321 326 325 323 322 321 321 320 319 320 319 317 314 310 312 315 316 316 313 308 307 309
329 328 327 327 325 326 326 326 326 327 327 326 326 327 327 327 326 327 326 325 323 324 325 325 322 321 321 321 320 320 319 318 318 317 315 312 312 312 312 313 311 309 307
329 328 328 327 326 325 326 326 326 325 326 325 324 327 326 327 326 326 326 325 324 324 323 324 322 321 320 320 320 319 319 319 319 318 316 314 312 311 310 310 309 308 308
328 328 328 327 327 326 322 325 328 326 324 324 325 327 324 326 327 327 327 326 324 325 322 324 322 320 320 320 320 320 319 318 318 319 318 314 312 310 310 308 308 308 309
327 328 328 327 327 324 323 325 325 328 325 325 325 326 325 326 326 326 326 324 322 324 319 322 322 320 319 320 321 321 320 321 320 319 319 317 317 313 312 311 311 311 312
327 328 328 327 327 324 324 326 324 326 324 324 326 326 326 324 325 326 325 325 324 324 317 317 321 321 319 319 321 321 320 320 320 319 320 320 319 319 318 318 318 318 318
327 328 328 328 327 325 323 325 325 325 324 324 327 325 327 325 324 323 322 321 324 322 315 312 313 317 318 318 320 320 320 320 319 318 320 320 320 320 317 317 316 316 317
326 328 328 328 327 325 322 323 323 322 324 324 326 324 326 326 325 325 323 322 321 322 314 311 312 315 317 317 318 320 320 320 320 319 317 317 318 316 313 312 313 314 314

GFSSE_850_thetae_078.txt.gz
Theta_e
335 328 324 325 327 331 335 343 343 341 341 341 340 340 337 337 335 333 332 332 333 336 338 337 335 333 332 331 331 331 330 332 333 334 335 334 334 333 333 334 335 335 334
331 326 325 326 325 327 331 334 339 341 340 339 340 340 339 337 337 334 331 331 332 334 339 333 331 331 331 331 330 330 334 334 334 334 334 334 332 333 334 335 336 334 333
328 324 322 322 323 324 329 333 337 340 340 339 338 340 339 339 338 333 331 331 332 332 329 329 331 333 331 330 331 333 334 335 335 334 334 334 333 332 333 333 333 333 333
322 323 321 321 322 322 326 331 334 336 336 336 337 339 340 339 337 333 331 332 333 332 329 329 332 333 329 330 331 332 333 334 333 333 336 336 333 332 332 332 332 332 332
323 322 322 322 323 325 327 331 332 332 333 334 337 339 340 340 337 333 331 331 333 333 331 333 333 333 329 332 330 331 332 333 333 337 337 337 334 332 331 331 331 331 331
322 323 323 322 323 325 329 331 332 331 331 334 337 339 340 340 337 333 332 331 332 332 332 332 331 330 332 332 330 330 332 333 333 336 334 335 334 331 331 331 330 331 331
323 323 323 323 322 325 327 331 332 331 331 333 336 339 340 340 337 334 333 332 333 331 331 331 329 329 333 332 330 330 332 333 334 333 334 333 332 331 330 330 329 330 330
323 323 323 323 323 324 328 331 332 331 332 332 333 335 340 339 338 333 333 333 332 331 332 330 329 330 332 331 328 330 331 332 332 333 333 331 330 329 328 327 328 328 329
323 324 324 324 324 325 328 332 333 332 331 331 331 332 337 337 338 334 333 333 332 331 331 330 329 331 331 330 329 331 331 330 331 331 330 329 327 326 325 325 326 326 326
324 324 325 326 327 324 327 333 334 333 331 331 331 331 333 333 332 334 333 333 332 330 328 330 330 332 330 330 330 330 330 329 329 329 328 328 326 323 318 320 319 323 323
325 325 326 327 326 322 333 336 336 334 333 331 331 332 332 333 328 330 325 332 329 327 326 328 329 331 330 331 330 329 328 327 327 326 326 325 323 322 317 317 312 315 318
336 328 328 327 325 323 333 336 334 333 334 333 332 331 331 332 331 329 329 330 326 324 326 327 327 328 329 330 329 327 327 326 325 325 325 323 323 321 319 318 316 316 315
339 335 332 326 324 323 331 334 334 336 334 333 334 332 331 331 330 327 328 325 325 326 326 328 328 328 328 328 328 327 326 325 324 324 323 320 320 322 320 318 319 316 314
338 337 329 326 323 323 328 333 334 333 334 333 333 333 333 331 328 327 326 325 326 326 326 327 328 327 328 329 327 326 325 323 323 322 322 320 320 321 318 319 316 317 313
337 337 332 326 323 323 326 330 333 333 332 331 330 330 333 329 328 325 324 326 326 327 326 328 327 327 327 327 326 325 324 323 322 320 320 319 320 319 318 319 317 315 311
336 337 334 327 325 323 326 328 330 332 332 331 331 329 330 332 330 325 325 326 326 326 327 327 326 326 327 326 326 325 323 320 320 320 320 319 319 319 319 320 319 319 315
335 337 332 328 326 324 323 327 328 330 333 331 330 331 331 329 327 326 325 324 326 326 326 325 326 326 326 325 325 324 322 320 319 319 319 319 319 318 318 319 319 319 317
334 336 332 328 326 324 321 326 328 329 331 330 329 329 331 329 328 327 325 326 326 327 325 326 325 326 325 324 324 323 322 321 319 319 319 320 320 319 318 319 319 318 318
334 335 331 328 327 325 322 325 325 324 326 327 328 329 328 329 328 328 326 326 326 326 325 325 325 325 324 324 323 322 322 321 320 318 319 319 319 319 318 318 318 317 316
334 335 331 328 327 326 324 324 326 325 326 326 327 327 327 327 327 328 326 326 325 325 319 324 325 324 324 323 322 322 323 322 321 319 319 318 319 319 318 320 316 316 315
334 335 330 328 328 326 324 325 327 327 327 327 326 327 327 328 328 326 326 327 326 325 322 324 325 325 324 324 322 322 322 322 322 321 321 319 319 318 318 318 318 317 314
333 334 330 328 328 327 325 325 327 325 327 326 325 325 325 326 326 328 326 327 326 325 322 323 324 324 323 323 322 322 321 321 320 321 321 320 319 318 318 318 318 318 318
332 333 330 329 328 327 326 324 325 323 327 325 325 326 326 326 324 327 327 326 326 325 323 324 324 324 323 323 322 321 321 321 321 322 320 320 318 318 318 318 317 315 314
331 333 332 331 329 328 327 323 323 326 326 325 325 325 324 324 324 325 326 326 325 325 325 322 323 323 322 323 322 321 321 320 321 322 322 320 318 316 314 311 312 310 310
331 332 332 331 328 328 327 324 324 325 326 325 325 325 326 324 324 325 325 326 325 323 324 322 323 323 322 322 322 322 322 323 321 320 321 321 321 319 317 314 315 312 312
331 332 331 329 327 328 327 322 325 324 324 325 325 325 326 326 323 325 325 325 322 321 322 324 321 322 322 322 321 321 321 322 321 321 320 321 321 320 316 316 315 314 313

GFSSE_850_thetae_081.txt.gz
Theta_e
338 339 326 325 326 330 336 341 343 342 342 341 340 338 335 334 334 334 332 331 331 332 334 336 337 338 335 333 333 334 332 331 331 332 334 335 335 334 334 335 337 336 334
341 337 324 323 323 324 328 333 338 342 342 342 341 339 337 335 335 334 332 332 333 333 334 335 335 335 333 332 332 330 330 331 332 334 335 334 334 334 335 336 336 334 334
343 329 325 323 323 323 325 328 331 337 340 340 340 340 339 336 335 334 333 332 333 335 336 335 333 331 331 330 330 330 334 333 334 334 334 336 334 334 334 335 334 334 334
342 324 322 321 322 323 325 330 331 332 337 339 339 339 339 337 336 336 333 333 334 336 336 332 333 334 330 330 330 333 334 334 334 333 337 338 334 333 333 333 333 333 333
338 330 323 321 322 322 323 327 333 335 337 339 338 338 338 339 337 336 334 333 334 337 333 334 334 333 329 328 330 332 333 333 333 337 337 336 333 333 332 332 332 332 332
338 339 323 322 322 322 322 325 329 333 335 335 336 337 338 339 338 336 334 334 334 335 333 333 334 333 328 330 330 330 332 333 334 335 335 335 333 332 332 332 331 331 332
339 340 323 323 323 322 322 324 329 332 333 334 334 336 338 339 339 337 335 333 333 334 334 334 333 330 330 331 329 330 333 334 335 334 334 333 332 332 331 330 331 331 331
341 338 324 324 323 322 323 325 329 332 332 333 334 335 338 338 338 337 335 334 333 334 333 334 331 329 333 331 330 330 333 334 334 334 333 333 332 331 331 330 330 331 331
339 330 324 324 323 323 324 326 329 332 332 333 332 334 335 336 335 338 335 334 333 333 333 332 330 329 333 332 329 331 333 332 333 332 331 330 330 329 329 329 329 329 329
337 330 330 324 324 324 324 326 330 332 333 332 332 331 332 334 334 334 334 333 333 332 332 332 328 328 333 331 329 331 331 331 332 330 330 329 328 328 328 327 327 327 326
343 342 327 326 325 326 324 329 330 333 333 332 331 331 331 332 333 333 330 331 333 332 331 330 326 328 331 330 329 331 330 328 329 329 328 327 326 323 325 325 325 325 324
342 344 342 328 326 325 339 343 337 337 334 333 333 333 331 332 333 333 328 327 327 330 328 327 326 326 329 330 330 330 326 329 327 327 328 325 324 321 318 315 318 318 318
340 342 343 333 327 325 334 338 339 339 339 336 336 335 332 333 333 331 328 329 326 330 328 326 326 326 329 329 329 328 328 327 326 326 326 324 321 322 318 316 316 317 315
338 341 342 342 338 333 337 337 339 337 336 337 334 335 335 333 333 331 331 329 330 328 327 327 326 328 329 328 329 327 327 325 325 325 325 322 322 321 320 318 316 316 313
336 339 341 341 339 326 321 328 334 338 339 337 335 334 334 333 332 331 330 330 329 326 326 327 326 328 328 329 327 326 325 325 324 325 323 319 321 321 319 319 319 319 315
334 338 340 341 330 325 321 324 330 331 335 332 333 333 334 333 333 331 328 327 326 326 327 327 328 328 327 328 327 325 324 324 323 322 322 320 320 320 318 320 319 319 318
329 336 340 341 333 327 323 321 326 329 334 336 332 332 332 332 331 329 329 326 324 325 326 326 328 327 328 327 325 324 324 322 321 322 322 320 320 319 319 319 319 319 319
328 336 340 340 333 330 326 325 321 327 333 332 333 331 331 331 331 331 329 325 325 325 327 328 327 327 326 326 324 324 323 321 320 321 320 320 319 319 318 319 318 318 318
330 336 339 339 331 328 327 322 321 326 328 334 334 332 329 329 330 330 327 326 325 325 327 326 326 326 326 325 323 323 322 321 320 320 321 320 319 319 319 319 318 317 318
332 336 339 338 336 334 326 322 322 322 327 327 327 328 329 329 330 328 328 326 326 325 326 325 323 325 326 324 323 323 322 321 320 319 320 321 321 320 319 319 316 316 314
333 337 339 337 336 333 326 323 320 321 326 324 326 327 327 328 328 328 329 327 326 325 326 325 323 325 323 323 323 322 322 322 321 320 320 319 320 320 320 321 319 318 312
334 337 338 337 335 332 329 326 322 325 327 326 327 326 327 327 327 325 326 327 327 326 326 325 323 323 323 323 322 322 322 321 321 320 320 320 320 320 320 320 320 319 319
332 336 338 336 334 330 331 328 324 324 328 326 327 327 326 327 326 326 325 326 327 326 325 323 321 322 323 323 322 322 322 321 321 321 321 321 320 320 320 320 319 319 319
331 335 337 336 334 332 331 328 325 328 326 328 326 327 326 327 327 326 325 326 324 325 325 318 322 322 322 322 323 322 321 320 321 323 322 321 321 320 320 320 319 319 318
331 335 336 335 334 333 332 331 329 328 329 328 327 326 325 325 325 324 325 325 326 326 325 325 321 321 322 322 323 323 321 321 322 322 322 322 321 321 320 319 319 318 317
330 334 335 335 334 333 333 331 329 328 328 328 327 326 325 326 325 323 325 325 325 326 325 324 320 319 322 322 322 322 322 322 323 321 321 322 321 322 321 320 316 316 318

GFSSE_850_thetae_084.txt.gz
Theta_e
338 330 331 330 330 328 329 333 339 341 342 342 341 339 337 334 334 333 332 331 330 332 333 333 334 337 337 338 340 335 336 336 337 336 335 334 332 333 334 335 336 334 333
335 331 330 326 323 322 323 326 333 340 341 342 341 340 338 334 334 333 333 331 331 333 334 336 336 337 335 333 333 333 332 331 331 332 333 333 334 334 336 336 334 334 334
327 329 326 323 323 322 322 324 327 333 340 341 341 340 339 336 335 335 334 332 333 333 337 336 336 337 333 330 331 330 329 331 332 334 333 333 334 334 336 335 333 334 334
323 327 324 322 322 321 321 323 326 331 337 340 340 341 339 339 336 335 334 333 334 335 337 338 336 333 331 331 329 329 332 333 333 333 334 334 334 334 334 333 333 333 333
332 324 323 322 321 321 321 322 326 330 335 338 339 339 339 339 337 336 336 333 334 335 336 336 333 333 329 328 329 332 333 333 333 336 335 334 333 333 333 333 333 333 333
340 326 323 322 321 321 321 322 325 330 334 337 339 338 338 338 338 337 336 335 334 336 335 333 333 333 329 327 330 333 333 333 336 336 335 333 333 333 332 333 332 332 332
339 336 325 321 322 322 322 322 325 330 332 334 335 336 337 338 338 337 337 336 334 335 335 333 333 332 327 328 331 332 333 334 335 335 334 333 332 332 332 331 331 331 331
340 333 324 323 322 322 322 323 325 328 331 332 333 333 336 340 338 337 336 336 335 334 334 333 333 331 327 330 330 332 333 334 333 333 332 332 332 332 331 330 330 330 330
340 332 324 324 323 323 322 323 325 328 331 332 332 338 336 339 338 337 337 335 336 335 334 333 332 329 330 330 331 332 332 333 333 333 332 332 332 331 331 330 330 330 331
343 336 324 324 323 323 323 323 323 326 331 332 333 333 333 335 336 337 334 327 325 332 334 333 332 330 331 331 330 331 332 332 332 330 331 330 329 329 329 329 329 329 329
344 339 327 325 324 324 324 324 322 326 330 333 332 332 332 333 333 335 333 328 330 326 333 333 331 328 328 330 327 330 331 331 332 330 327 327 327 326 328 327 327 327 326
343 343 334 327 325 325 329 324 320 326 331 333 332 332 331 331 331 333 333 332 328 329 330 332 327 326 328 329 326 327 329 329 329 329 329 328 327 325 323 326 326 325 325
341 344 344 339 328 327 337 330 325 335 336 335 334 333 333 332 331 333 333 329 327 326 326 328 328 325 326 328 327 327 327 329 329 329 328 326 324 322 319 320 322 323 322
339 342 344 343 338 328 329 327 325 336 336 336 335 335 335 334 333 332 332 330 328 327 328 328 326 325 324 329 328 328 328 327 327 327 326 325 323 318 318 316 315 312 315
336 340 342 342 341 333 338 329 324 339 336 335 336 335 335 334 333 333 331 328 328 327 327 328 327 327 325 328 329 327 327 325 326 325 325 324 321 319 320 319 320 320 315
330 338 341 342 342 341 333 324 320 331 339 336 336 335 335 334 333 332 331 331 329 327 329 328 327 326 326 327 326 328 325 325 325 324 324 322 318 321 319 321 322 321 318
326 332 339 341 342 340 331 324 320 321 328 335 333 334 334 333 333 333 331 330 330 330 329 326 326 327 327 327 326 325 324 324 323 322 322 319 320 319 319 318 318 319 312
323 328 340 340 341 338 328 325 321 319 321 329 331 334 333 332 332 332 332 330 329 327 327 326 327 327 327 326 326 325 324 323 321 321 321 319 319 319 317 318 318 318 318
322 325 339 339 341 337 335 333 325 320 322 323 335 335 332 332 331 331 330 330 329 326 325 325 325 326 327 326 325 323 323 320 321 322 321 321 317 318 318 318 318 318 318
322 327 338 340 340 336 336 332 325 320 322 324 327 329 330 331 330 329 330 330 328 325 325 325 327 327 326 326 323 323 322 321 320 320 321 320 320 317 315 318 318 317 317
323 334 338 339 339 336 336 330 324 322 322 322 328 329 330 329 329 329 330 329 327 326 326 325 327 325 326 324 323 323 322 321 319 320 320 321 320 319 319 316 317 316 312
327 333 337 339 339 336 335 327 326 325 323 322 321 327 326 327 328 329 328 328 327 327 325 325 325 325 326 323 322 322 322 321 320 320 320 319 321 320 321 320 320 319 311
329 335 338 339 337 336 333 331 329 328 328 330 329 328 326 326 328 327 327 326 329 327 326 326 325 323 323 324 323 322 321 321 320 320 320 320 320 320 319 321 321 320 318
327 337 338 340 337 336 333 331 329 326 323 324 326 327 327 327 328 327 327 327 327 324 326 326 325 321 322 324 322 321 320 320 320 321 320 319 320 320 319 320 319 319 319
327 334 338 339 337 335 333 332 329 326 324 324 327 327 327 327 327 326 328 327 325 325 326 326 326 323 322 323 322 322 320 321 321 319 321 321 320 321 320 319 320 320 319
330 335 337 338 336 334 333 332 330 328 328 326 328 327 329 327 326 326 324 324 325 324 323 325 325 321 320 323 322 321 322 321 322 323 322 321 320 320 319 318 318 319 319

GFSSE_850_thetae_087.txt.gz
Theta_e
336 328 327 331 331 331 330 328 333 337 339 340 340 338 335 334 333 333 332 334 338 339 336 333 333 335 337 340 339 338 337 338 338 337 336 335 333 333 332 333 333 332 332
335 329 330 330 329 326 323 324 330 336 338 340 340 340 338 335 335 334 332 331 331 331 334 333 335 336 336 338 338 335 335 335 336 335 334 332 332 332 333 334 333 333 333
334 329 329 327 324 322 322 322 326 334 338 340 340 340 339 337 335 335 333 331 331 333 334 334 334 335 335 333 334 333 333 331 332 334 333 332 331 333 335 333 333 333 333
326 329 325 323 322 322 321 322 324 330 336 339 340 340 339 338 335 335 334 332 331 332 333 335 335 335 335 331 332 330 329 331 333 333 332 332 333 334 334 333 333 333 333
324 325 323 322 322 322 321 321 322 327 332 337 339 340 340 339 337 335 335 334 332 333 335 335 335 335 332 331 329 330 332 333 333 332 332 332 334 334 333 333 333 333 332
325 323 322 322 321 320 320 321 321 325 330 334 337 338 339 338 338 336 336 336 333 333 335 336 334 331 329 328 330 333 333 332 334 333 332 333 333 333 332 332 332 332 332
323 323 323 321 321 321 321 321 321 323 328 333 336 338 338 338 337 337 336 336 335 334 335 335 332 330 329 328 332 333 332 334 334 334 333 332 332 332 332 332 331 331 331
324 327 324 321 321 321 321 321 321 321 324 330 333 335 336 337 337 337 337 336 336 336 335 334 333 332 328 330 333 333 333 335 334 334 332 332 332 332 332 332 331 330 330
335 333 327 322 321 322 321 322 322 321 323 328 331 331 337 338 339 337 336 336 336 336 334 333 332 333 329 331 332 333 333 334 334 333 332 331 332 331 330 330 330 330 330
333 331 328 324 323 322 322 322 322 321 323 327 330 332 339 337 338 338 337 336 336 332 328 333 333 332 330 330 332 332 333 332 332 332 332 330 331 330 330 330 329 330 330
338 331 328 325 323 323 323 323 323 321 322 326 330 332 333 332 333 335 337 334 330 327 326 328 334 331 328 329 330 331 330 330 330 330 330 329 328 329 328 328 328 327 328
340 339 333 328 325 324 324 324 323 321 322 326 330 331 331 331 332 332 333 333 328 327 327 328 333 329 328 329 328 328 329 330 328 329 326 327 326 326 325 326 326 325 326
342 341 340 337 329 325 324 325 325 320 326 329 330 331 331 331 331 331 332 332 330 328 327 326 330 328 327 329 327 327 330 330 330 329 328 328 327 326 324 323 325 325 324
340 341 340 339 336 329 325 326 328 325 332 332 334 333 333 333 332 331 331 333 331 328 327 328 328 325 327 328 326 326 328 329 328 329 329 327 325 323 320 324 325 324 322
329 342 340 339 339 337 327 328 329 327 335 333 334 334 334 334 334 332 332 332 330 327 326 328 326 327 325 327 327 326 327 327 327 328 327 325 324 323 317 316 323 322 321
321 333 340 339 339 339 331 328 332 329 338 336 334 334 334 334 334 333 332 332 331 328 328 327 326 326 326 326 328 326 327 327 326 326 325 324 322 321 317 310 319 318 318
318 321 337 341 340 340 335 327 331 335 336 336 334 333 333 334 333 333 333 331 329 328 328 327 328 327 327 327 328 326 327 325 325 324 323 322 321 320 318 319 320 321 322
318 318 328 341 340 339 339 330 328 335 334 332 333 333 331 332 331 332 333 332 331 330 328 327 328 327 327 327 328 326 325 325 324 322 322 321 319 319 319 320 319 319 319
318 317 328 340 340 339 339 335 326 323 333 333 332 332 330 331 332 332 331 332 331 330 328 328 327 326 327 327 326 325 324 324 323 322 321 320 318 317 317 317 318 317 317
319 318 328 337 339 337 338 336 327 325 322 325 326 325 324 332 332 331 331 330 330 329 328 327 326 326 327 328 325 325 324 323 322 321 320 320 319 316 316 317 318 317 318
319 318 328 338 339 337 336 336 328 330 325 322 322 327 324 328 330 331 330 330 329 329 328 327 325 325 325 327 326 324 323 321 320 321 320 320 319 320 315 317 318 317 315
319 323 329 337 338 337 335 335 328 330 324 322 320 320 322 327 329 330 328 329 329 329 326 325 325 326 327 325 325 323 321 320 320 320 320 320 320 320 318 317 316 317 319
319 325 333 337 337 338 337 335 331 329 326 323 321 321 319 327 327 327 328 328 328 328 326 325 325 326 326 325 324 322 321 321 319 319 320 320 320 320 319 320 319 320 320
325 328 335 336 338 337 337 334 330 329 327 326 322 317 324 326 327 327 328 328 327 327 325 326 325 326 325 324 323 322 320 321 320 320 319 320 319 320 320 320 320 320 320
332 335 334 335 338 337 335 332 331 330 328 325 323 326 327 327 327 327 327 327 327 326 327 326 326 325 325 324 323 322 320 320 320 320 320 320 319 319 320 320 319 319 319
331 335 335 335 336 336 334 332 332 330 326 323 323 325 326 327 327 327 326 326 327 326 326 325 325 325 325 323 323 322 321 319 320 320 319 319 318 319 319 320 319 320 320

GFSSE_850_thetae_090.txt.gz
Theta_e
340 331 336 336 331 332 333 334 332 334 337 338 337 335 334 333 332 333 338 343 342 341 339 334 331 332 336 340 339 337 336 338 339 338 337 334 331 330 331 332 331 331 331
334 331 334 335 333 332 330 328 331 335 336 339 338 336 335 335 333 332 333 337 340 339 337 333 333 333 337 340 338 337 335 336 336 336 334 334 333 332 333 332 332 332 332
331 329 333 334 332 328 323 324 329 333 335 338 339 338 336 335 335 334 332 331 333 332 335 333 335 335 336 339 337 334 334 334 334 332 332 332 333 334 334 333 332 332 332
334 327 330 330 326 323 322 323 326 330 332 336 339 339 338 335 335 335 334 332 331 332 334 334 335 335 335 334 335 334 333 331 332 333 332 332 333 334 333 332 332 332 333
326 327 327 323 322 322 322 322 324 327 330 334 338 339 338 337 335 335 335 334 332 332 334 334 334 335 335 332 332 331 330 331 333 333 332 331 333 334 333 333 333 333 332
324 326 323 322 322 322 321 320 321 324 328 331 334 338 339 338 337 335 335 334 333 333 334 335 335 335 335 331 330 331 332 333 333 333 332 332 333 333 332 332 332 332 331
324 324 322 322 321 320 320 320 320 321 325 328 331 335 338 338 337 337 335 336 335 334 334 334 335 334 332 330 331 332 332 332 332 332 332 332 332 332 332 332 332 331 331
324 323 322 322 321 320 320 320 320 320 322 326 330 332 336 337 337 337 336 335 336 336 334 335 334 331 331 331 331 332 332 333 333 332 331 332 332 332 332 332 331 331 331
324 323 322 321 321 322 321 320 320 320 320 323 327 330 332 336 337 337 336 336 336 336 335 334 333 332 331 331 332 332 331 332 333 333 332 331 332 332 331 331 331 330 330
327 323 324 322 321 322 322 321 321 321 320 322 326 328 330 334 337 337 336 336 336 336 336 334 331 330 330 329 332 331 333 335 333 332 331 331 332 332 331 329 328 329 330
333 329 325 324 323 322 322 322 322 322 321 320 324 327 329 334 337 338 337 336 335 334 332 331 328 327 332 329 328 331 332 332 331 331 331 330 330 329 328 328 328 328 329
336 334 331 325 324 323 323 323 323 323 322 319 323 327 329 333 334 333 336 336 333 332 327 327 327 327 329 328 329 330 331 330 330 331 330 329 329 328 328 328 327 327 328
336 336 334 333 328 324 323 323 323 323 321 320 326 328 329 330 331 332 333 333 334 330 327 326 328 330 328 328 329 329 329 329 329 329 327 327 327 327 325 324 326 325 325
339 337 334 333 336 335 324 324 325 324 321 324 328 329 329 330 330 330 331 332 332 328 327 327 326 328 327 327 328 328 329 329 328 329 327 327 327 327 325 325 324 325 325
335 336 337 336 337 338 336 325 327 327 323 326 329 332 331 331 331 331 331 331 332 331 329 327 327 326 327 326 327 327 329 328 328 329 328 328 326 324 325 324 323 324 323
322 327 331 338 340 339 338 330 325 328 326 331 331 330 330 332 332 332 332 331 332 332 329 327 328 328 326 326 327 327 328 328 328 327 328 327 324 323 322 323 324 324 322
321 319 319 327 340 340 339 334 327 326 326 334 333 332 331 332 332 332 332 331 332 331 327 327 327 327 326 326 328 327 328 328 327 327 327 325 323 322 320 318 321 322 322
317 320 319 321 333 338 339 338 330 326 325 331 333 333 331 332 332 332 332 332 332 331 328 328 327 326 326 326 326 327 327 327 326 326 325 323 321 320 319 319 318 318 320
316 317 318 318 324 333 337 339 333 328 325 331 331 333 332 332 330 330 326 332 332 330 329 328 328 327 326 327 327 327 327 326 325 324 322 321 320 319 319 319 319 319 319
317 317 317 320 322 330 334 338 336 332 326 331 333 333 333 331 329 330 330 330 331 331 330 329 327 327 327 327 327 327 326 325 324 322 321 321 319 318 317 317 318 318 317
317 317 317 319 321 330 333 337 335 334 325 328 338 335 332 329 323 331 331 330 330 330 330 329 328 328 327 326 327 327 325 324 323 322 321 320 319 317 316 316 317 317 316
319 318 318 319 320 326 330 336 337 334 325 322 325 332 329 327 328 328 330 330 330 329 329 328 328 327 325 326 327 326 321 323 322 321 321 319 319 319 318 316 316 317 317
317 319 318 318 319 327 330 334 336 333 329 325 324 327 328 329 326 327 328 330 329 329 329 328 328 327 325 326 325 322 320 320 321 321 320 320 319 320 319 316 315 316 317
316 319 319 319 320 326 332 336 336 334 329 326 323 323 323 326 327 327 328 329 328 328 328 328 327 326 325 325 325 324 321 320 320 320 320 320 319 319 320 319 319 319 319
318 319 321 322 322 327 336 336 336 334 330 326 323 322 322 321 323 327 327 327 327 328 327 327 325 325 325 326 325 324 321 320 320 319 320 321 320 320 319 320 319 319 319
323 333 330 329 326 334 335 337 336 334 330 326 326 324 320 325 325 326 326 328 328 327 327 326 325 326 326 325 324 322 321 320 319 319 319 320 319 320 319 320 319 319 319

GFSSE_850_thetae_093.txt.gz
Theta_e
336 330 338 339 340 340 338 337 334 332 333 333 332 332 332 332 335 338 340 342 341 339 338 333 330 330 332 335 336 333 332 334 338 339 337 334 333 332 329 329 331 330 334
333 331 338 339 340 340 338 337 332 330 333 333 334 333 333 333 332 335 338 341 341 340 338 334 330 332 333 339 337 335 335 337 339 337 335 332 332 330 331 330 331 331 332
326 331 336 338 339 339 337 335 332 328 332 334 335 335 334 334 333 333 337 339 340 338 338 334 333 333 335 339 337 335 335 336 336 335 333 332 333 332 331 331 331 332 333
325 329 332 334 336 336 333 333 334 328 330 334 336 337 335 335 334 334 333 333 334 336 335 334 333 334 336 339 337 334 334 334 333 332 332 333 333 333 332 332 332 332 333
328 328 332 333 332 330 327 330 334 331 330 333 337 337 337 335 335 334 333 333 331 332 334 333 334 334 335 336 335 333 333 331 330 331 332 333 333 333 332 332 332 332 332
331 330 331 330 326 324 325 327 330 331 330 331 335 338 338 337 335 334 334 334 332 332 333 333 333 334 334 333 331 332 329 329 331 332 331 332 334 334 333 332 332 332 331
328 329 327 324 323 323 323 324 326 327 329 330 333 336 338 337 336 335 334 335 334 333 334 334 334 334 334 333 331 329 328 330 333 333 331 331 333 333 332 332 332 332 331
322 325 324 322 322 322 321 321 322 323 325 327 330 332 336 338 337 337 336 335 335 335 334 334 334 334 334 332 330 330 330 332 332 332 331 331 333 332 332 331 331 330 331
323 322 323 322 322 320 320 321 320 321 323 325 328 330 334 336 337 337 336 336 335 336 335 333 334 331 331 329 326 328 330 332 332 332 331 332 332 330 330 330 330 329 329
324 323 322 322 321 320 320 321 321 321 321 324 326 330 333 335 336 337 336 335 335 336 336 334 334 331 329 328 329 327 329 332 332 331 331 331 331 332 331 330 329 328 329
324 323 322 322 321 320 320 320 321 321 322 322 324 327 331 332 333 335 335 335 335 335 336 336 334 332 329 328 328 327 330 331 332 331 331 330 331 332 331 328 327 328 328
331 327 326 324 321 321 321 321 321 322 322 321 321 325 328 330 331 334 335 335 336 335 335 334 331 331 330 328 329 328 329 330 332 330 331 329 331 331 328 327 327 328 329
334 333 331 330 328 323 322 322 321 322 322 322 320 323 328 329 334 335 334 335 336 334 332 329 328 328 329 327 329 327 328 329 331 330 330 329 329 328 328 328 327 326 327
337 334 334 333 330 325 323 323 322 322 322 322 319 323 328 328 332 331 331 332 333 332 332 330 326 326 327 327 328 327 329 329 330 330 329 328 329 327 327 325 325 325 325
336 339 335 336 335 334 332 325 323 323 323 322 319 325 327 329 330 330 330 330 331 332 332 327 326 328 328 328 328 328 329 328 329 328 327 326 327 327 326 325 325 325 323
319 335 338 336 330 336 336 335 334 324 323 323 321 326 328 330 330 330 330 330 330 331 329 327 327 326 328 328 328 328 328 328 328 328 327 326 327 326 325 325 325 324 323
314 315 333 338 337 338 337 337 337 328 325 324 321 325 326 331 332 332 332 331 330 331 330 329 327 327 327 326 326 326 328 327 327 327 327 328 327 325 323 323 324 323 323
315 314 315 327 336 335 335 339 338 334 327 325 323 328 328 331 333 332 331 330 330 331 332 330 327 328 327 326 326 326 327 328 328 327 326 328 326 324 322 320 322 322 323
314 315 315 316 326 331 334 335 337 338 330 327 325 328 330 331 333 332 331 330 331 331 331 329 327 327 327 326 326 327 327 326 327 326 326 328 324 322 321 318 318 321 320
315 315 315 315 317 322 328 332 335 339 334 330 328 326 330 332 332 332 331 328 331 331 331 329 327 327 327 327 326 326 327 326 327 326 326 325 322 321 319 318 319 319 319
315 315 314 316 316 319 325 327 335 335 337 332 331 327 329 332 333 331 330 326 328 332 331 330 328 328 327 326 327 327 327 327 327 326 326 322 321 320 318 317 317 318 318
316 316 315 316 316 316 318 323 330 330 336 335 329 329 331 334 333 331 330 328 329 330 331 331 330 329 328 327 327 327 326 323 324 326 323 321 320 319 316 316 316 316 316
315 314 315 316 317 317 319 327 332 335 334 332 332 329 336 333 332 328 326 327 329 329 330 330 330 329 327 328 327 326 322 322 323 323 321 321 319 319 318 317 316 316 316
316 315 314 316 318 319 322 321 326 331 331 330 332 328 326 330 330 329 328 325 327 329 329 329 329 328 328 327 326 326 326 325 323 322 322 320 320 319 319 318 314 314 316
321 318 316 316 318 321 319 321 327 334 330 330 329 325 325 327 328 330 325 325 326 329 328 328 328 328 327 327 325 325 325 321 322 321 321 321 320 319 319 319 319 316 317
324 328 321 321 321 322 324 323 331 333 331 331 330 325 326 325 325 327 325 324 327 329 326 328 329 327 329 327 326 325 324 320 320 321 321 320 320 320 319 320 319 319 319

GFSSE_850_thetae_096.txt.gz
Theta_e
327 330 334 336 339 339 338 336 335 333 332 330 332 339 341 342 342 342 341 340 339 336 332 330 330 331 332 334 336 334 331 334 336 338 338 335 334 332 330 329 329 331 332
329 328 334 337 339 339 337 337 336 334 332 330 330 331 333 335 338 335 336 340 340 338 337 331 330 330 332 334 335 332 331 334 337 337 335 332 332 330 330 330 329 332 332
329 326 334 338 339 339 338 338 336 334 333 332 331 331 331 331 332 333 332 336 339 338 337 334 330 330 333 338 335 334 334 336 338 336 333 331 329 329 330 330 331 332 332
332 328 334 338 339 338 338 338 335 333 335 333 332 332 332 332 333 333 333 334 336 336 337 336 332 332 334 338 337 335 334 335 335 334 332 331 331 333 331 331 331 332 333
327 330 333 337 338 338 338 338 334 334 336 335 334 334 333 333 333 334 334 333 333 333 334 334 333 333 335 338 337 333 331 333 333 331 331 332 332 332 331 331 332 333 332
324 329 332 335 336 337 337 335 333 335 337 336 336 336 335 334 334 334 333 333 333 331 331 332 332 333 334 335 334 333 330 330 330 330 331 332 333 333 332 331 332 332 331
327 327 332 333 334 333 332 330 330 333 336 336 336 337 336 335 334 334 334 334 334 332 333 332 334 333 333 334 333 331 331 328 328 331 331 333 333 333 332 332 332 331 331
333 329 331 331 329 326 325 325 327 330 332 334 335 336 337 336 335 334 334 334 334 338 334 333 334 333 334 334 332 331 328 328 330 331 331 331 333 333 332 332 332 331 330
333 330 330 328 324 324 323 323 323 324 326 329 332 334 336 337 336 335 335 334 334 335 334 333 333 334 334 334 331 329 330 330 331 332 331 331 333 332 332 331 331 330 330
332 330 328 326 325 324 322 321 320 320 321 322 325 329 333 336 337 336 336 335 335 335 335 334 333 334 333 331 329 330 327 325 331 331 331 331 331 332 331 330 330 330 329
332 330 327 326 325 323 322 321 321 320 320 321 322 325 330 334 336 336 336 336 335 335 335 335 333 334 332 330 329 329 326 324 325 330 331 330 331 332 331 330 330 330 329
332 328 326 324 323 322 321 321 321 321 321 320 320 322 324 329 333 335 336 336 335 335 335 335 335 334 332 330 329 329 326 325 327 329 330 330 331 332 332 330 329 330 329
329 326 326 324 323 322 321 321 321 321 321 321 321 320 321 325 329 332 335 336 336 335 335 335 334 334 332 330 328 328 327 324 328 329 330 329 330 331 331 328 327 327 327
338 336 328 324 324 323 322 322 321 321 321 321 321 321 319 322 326 330 333 336 336 336 335 334 333 332 332 330 329 328 328 325 327 329 329 329 330 331 328 327 327 325 325
319 330 335 337 336 334 329 323 322 321 321 322 322 321 318 320 324 328 332 333 333 335 335 332 331 328 328 328 328 328 328 325 327 329 329 329 329 329 328 325 324 325 325
314 315 320 333 334 338 333 327 324 323 322 322 322 321 319 320 324 326 329 330 331 333 332 332 332 327 326 327 328 327 328 325 328 329 329 328 328 328 327 325 324 325 325
313 313 314 315 328 334 336 334 330 327 324 323 323 322 320 321 324 326 329 330 330 331 331 332 328 326 327 327 328 328 323 324 328 329 328 326 326 327 326 324 324 324 324
313 314 314 314 314 318 331 334 335 334 333 328 324 323 322 322 325 328 330 330 330 330 330 329 327 327 327 328 328 328 327 327 327 328 327 327 326 326 325 323 324 324 324
314 314 313 314 314 314 321 333 333 332 334 332 328 326 324 324 326 329 330 332 332 331 330 330 328 328 327 328 327 326 325 322 327 327 326 326 326 326 324 322 321 321 323
314 314 314 314 314 314 315 331 330 331 332 334 332 328 325 327 328 330 330 332 332 331 331 331 330 328 327 327 327 326 325 323 326 326 326 326 326 327 323 321 319 318 321
316 315 315 314 314 314 316 327 330 333 333 333 334 330 327 329 329 329 330 331 332 331 331 332 330 327 328 327 326 326 327 327 326 326 325 326 326 326 321 320 318 316 319
317 316 316 315 314 314 314 316 328 325 331 330 336 333 329 328 331 330 330 330 330 328 332 332 330 328 328 327 327 326 326 327 327 326 326 326 326 323 320 319 316 316 316
321 317 315 314 313 313 315 317 320 327 331 330 331 332 332 329 329 331 332 330 329 328 328 329 329 328 327 328 327 326 325 325 324 324 324 326 325 321 320 317 315 316 316
321 320 317 315 314 314 317 318 320 321 326 323 327 330 330 330 329 330 334 331 328 325 327 327 329 327 327 328 327 327 326 326 324 322 324 326 323 321 319 317 317 316 315
318 320 320 319 315 317 318 319 318 320 321 325 331 328 321 327 330 332 333 327 326 325 327 327 328 326 325 327 329 327 327 326 324 324 323 323 321 320 319 318 318 315 314
317 319 322 325 317 319 322 321 320 320 324 332 331 330 328 329 330 333 333 327 327 324 325 326 327 324 325 325 328 328 326 326 325 324 324 322 321 320 319 319 319 317 314

GFSSE_850_thetae_099.txt.gz
Theta_e
327 328 331 333 337 336 338 336 333 332 331 336 340 342 343 344 343 342 341 338 335 333 330 329 330 331 333 334 334 334 334 333 335 336 338 336 334 332 331 330 331 333 333
328 330 331 334 335 337 338 335 333 332 332 336 341 342 343 343 342 342 340 339 338 336 334 331 330 331 333 334 335 333 331 334 336 337 336 334 333 331 329 330 330 332 332
329 330 333 334 336 338 338 335 334 332 332 334 339 341 341 341 340 340 338 337 338 338 336 333 330 330 331 334 335 332 331 334 336 337 334 334 332 330 331 330 331 332 331
332 329 333 334 336 337 337 336 335 334 332 332 334 336 335 335 336 337 337 338 338 338 336 335 332 330 331 335 335 332 333 335 337 336 333 332 330 329 331 331 333 332 332
333 326 331 333 336 337 337 337 336 335 334 333 332 332 332 333 334 335 335 336 337 336 336 336 333 331 332 336 335 333 333 334 335 334 331 331 330 331 331 331 332 332 333
332 329 330 332 335 337 337 337 337 335 335 334 334 333 333 333 334 335 335 336 335 334 335 335 333 331 333 335 337 335 331 332 333 333 331 331 332 333 331 331 332 333 333
335 326 331 333 334 336 336 337 335 333 334 334 335 335 334 333 334 334 335 335 334 333 334 332 332 332 333 335 336 335 331 332 332 331 331 331 332 334 332 331 332 332 331
337 332 333 335 336 336 336 335 333 331 331 332 334 336 335 334 334 334 334 334 334 333 333 333 332 333 333 334 334 333 331 331 329 329 331 331 332 333 333 332 332 331 331
337 332 337 336 336 336 337 336 333 332 331 329 330 333 336 335 334 333 333 333 334 336 337 335 333 333 333 333 334 331 330 329 330 330 330 331 332 333 332 332 332 331 330
337 335 338 337 336 336 335 334 333 332 331 330 330 330 332 335 336 335 334 334 334 335 336 334 333 333 333 334 334 329 327 324 332 330 330 331 331 333 332 332 332 331 330
338 336 337 338 338 336 334 332 331 330 328 329 329 329 329 332 335 336 335 335 334 334 335 334 334 333 334 333 331 328 327 326 330 328 331 331 331 333 332 332 331 330 330
338 336 336 337 337 335 333 331 328 327 325 324 325 326 327 326 330 334 336 336 335 334 334 334 334 333 333 332 330 329 327 327 326 325 328 330 330 332 332 332 331 329 329
339 332 334 335 333 330 329 329 327 324 323 322 321 324 325 325 326 331 334 336 335 335 335 334 334 334 334 333 331 330 329 328 324 324 325 330 330 332 332 332 330 329 328
315 331 336 331 329 328 327 325 324 324 322 321 321 322 323 323 322 323 329 333 335 335 335 335 335 334 334 334 329 330 328 327 326 324 326 329 329 332 332 331 329 327 326
313 313 314 332 334 331 326 325 324 323 322 321 321 322 322 322 320 321 324 330 333 335 335 335 335 334 334 332 331 329 329 328 327 324 326 329 329 332 332 330 327 326 325
313 313 313 314 325 333 335 329 325 323 322 322 322 322 322 322 320 320 324 327 331 333 336 336 335 333 333 332 331 330 329 328 327 325 325 329 329 331 331 327 326 325 326
313 313 312 312 313 316 324 335 335 332 324 323 322 322 323 323 321 322 324 326 329 330 333 335 334 333 331 329 327 327 328 328 328 325 326 329 330 329 329 328 325 324 325
312 313 313 313 312 312 318 328 335 334 332 325 323 323 323 323 321 323 326 326 328 328 330 333 333 333 331 326 327 327 328 328 328 325 327 329 329 328 328 327 325 324 324
313 314 314 314 313 313 313 313 321 332 334 333 328 326 325 324 322 324 326 327 328 329 329 330 331 332 327 328 327 328 328 325 324 323 327 329 328 327 327 326 323 323 324
317 314 313 313 314 314 314 313 314 322 334 334 329 331 328 327 323 324 327 329 329 330 330 330 330 328 327 327 328 328 328 328 324 323 326 328 327 326 326 324 323 322 323
316 318 316 314 314 314 314 313 314 316 320 333 331 330 331 329 326 325 326 330 329 330 330 330 330 328 328 328 328 328 327 325 325 323 326 325 326 327 326 326 322 322 322
316 317 319 318 315 315 314 314 313 315 316 334 333 332 333 331 329 327 327 329 329 330 330 329 331 330 328 328 327 327 326 326 323 323 324 325 325 327 326 326 321 319 321
315 316 317 320 317 315 313 325 327 329 333 336 331 329 332 332 331 329 331 330 329 329 329 331 328 330 330 327 328 327 325 326 326 326 324 325 324 326 327 323 320 319 317
314 314 315 319 320 316 314 324 329 330 333 329 327 327 329 331 331 330 331 330 330 330 329 331 326 327 328 327 327 327 326 327 326 324 326 325 326 325 326 322 320 317 316
313 315 316 317 320 319 319 317 328 327 328 331 330 325 326 327 328 329 322 329 329 330 330 329 327 327 327 327 327 327 327 326 326 325 324 324 325 324 326 323 319 316 315
314 315 315 316 319 322 324 317 328 328 329 331 328 326 329 328 326 326 323 325 331 331 328 326 324 326 326 326 326 325 326 327 325 325 325 323 323 325 324 320 319 318 317

GFSSE_850_thetae_102.txt.gz
Theta_e
340 341 336 338 339 341 343 340 337 334 332 337 342 342 341 343 342 341 337 333 330 328 328 332 332 333 332 331 330 329 328 334 335 335 339 337 335 334 331 332 334 338 334
341 334 333 337 340 341 339 338 335 332 334 339 343 343 342 343 343 341 338 335 332 331 330 330 331 331 332 333 334 334 334 333 335 337 338 335 334 332 331 332 338 335 333
338 328 331 337 339 338 337 337 334 332 333 339 342 343 343 343 343 341 339 336 334 334 332 331 330 331 332 333 334 334 332 333 335 337 336 340 338 330 331 331 336 332 333
345 330 331 334 337 335 337 336 334 333 333 337 341 342 343 344 343 341 340 338 336 336 335 333 331 330 331 332 335 333 332 334 335 337 338 339 340 332 330 330 332 332 332
344 333 333 332 334 335 337 336 335 333 333 333 336 339 343 343 342 341 339 338 337 337 337 335 333 330 331 333 335 332 332 334 337 336 341 338 339 333 331 331 333 332 332
342 343 338 333 334 335 336 336 335 335 333 332 333 335 339 340 339 339 338 338 338 338 337 336 334 331 331 335 336 334 334 334 336 340 339 338 339 333 331 332 332 333 334
342 342 340 335 337 337 337 336 336 336 334 333 333 332 332 333 335 336 336 337 337 337 336 336 335 332 332 335 337 336 333 332 335 339 337 338 339 334 332 332 332 334 333
341 335 336 336 337 339 338 337 337 337 335 335 334 334 333 333 334 336 336 336 336 335 334 334 333 333 333 334 336 336 334 331 335 337 336 338 337 335 332 332 333 333 332
340 339 333 337 339 340 339 338 338 337 336 336 336 335 335 334 334 335 336 336 334 334 334 333 332 333 333 334 334 335 333 332 337 336 336 337 334 334 332 332 333 332 331
341 340 336 338 339 340 340 339 338 338 337 337 337 336 335 335 335 334 334 334 334 334 334 335 334 332 333 333 334 334 332 331 334 332 330 335 333 333 333 332 333 332 331
342 340 337 338 339 340 340 340 339 338 337 337 337 336 336 336 335 335 334 334 334 334 334 336 334 333 333 334 334 334 331 333 329 332 328 333 328 332 334 332 332 331 331
345 340 335 337 339 340 340 339 339 338 338 337 337 335 335 336 339 340 338 334 334 334 334 334 334 334 333 334 334 333 330 335 333 333 329 326 329 331 333 333 332 331 330
339 343 337 336 337 338 338 339 338 337 338 338 337 337 334 338 340 337 340 337 335 335 335 334 334 334 334 334 336 334 335 334 334 333 332 327 330 331 332 329 332 331 330
320 330 338 335 333 335 337 336 334 333 332 332 329 327 328 328 339 339 339 340 339 339 340 338 338 336 335 335 335 335 334 334 334 333 331 326 327 331 331 332 332 331 329
315 316 325 336 322 334 331 328 328 328 327 326 326 325 327 327 330 336 338 338 340 341 339 338 336 336 335 335 335 335 334 332 333 330 325 324 326 329 331 334 332 330 328
314 315 314 321 334 335 334 333 330 325 324 324 323 323 325 327 330 326 327 328 337 341 340 336 336 335 335 334 334 335 332 332 331 328 327 324 325 329 330 334 331 328 327
318 317 313 312 314 333 322 329 333 331 325 324 322 323 323 325 326 324 323 325 329 337 338 336 335 335 335 334 333 332 332 331 330 329 328 326 324 329 329 334 331 327 326
315 313 313 314 314 313 327 330 334 335 335 334 333 326 323 323 325 325 324 322 326 330 332 332 335 335 335 333 332 332 330 329 329 329 328 327 324 328 329 333 329 327 325
318 315 313 313 314 314 314 327 331 332 325 337 336 334 327 323 324 326 324 323 326 332 334 332 335 336 334 331 331 331 327 328 330 328 328 327 324 328 330 328 327 325 324
317 316 316 316 314 313 314 320 331 332 319 328 334 335 332 329 324 326 326 324 326 330 331 330 333 333 335 333 331 327 328 330 328 326 325 325 324 326 329 328 326 325 323
317 316 316 315 316 317 316 318 327 332 327 316 330 334 333 332 328 326 326 325 327 329 329 329 330 332 333 331 328 328 330 328 328 324 322 323 324 328 331 328 326 327 324
315 315 315 315 316 317 318 319 323 330 331 331 332 334 327 334 329 329 329 325 327 329 330 331 330 330 332 329 328 328 329 328 328 326 324 324 324 326 327 327 326 327 326
313 313 312 313 313 317 317 318 319 328 331 333 331 328 318 333 331 330 330 327 329 330 331 331 330 331 329 329 328 328 326 327 327 325 324 323 324 322 325 326 326 326 326
311 310 314 315 315 317 317 316 320 323 330 331 330 324 322 329 334 332 331 330 329 331 331 331 331 329 330 329 329 329 327 327 326 325 324 323 323 323 323 325 327 326 324
308 311 314 315 316 316 317 317 317 322 330 331 332 332 336 331 331 332 330 325 329 328 329 330 330 329 327 328 328 329 328 327 327 326 325 325 324 324 324 325 327 326 322
307 307 311 315 316 316 318 319 320 321 327 332 332 332 333 335 332 330 331 331 330 327 323 325 327 329 327 326 327 328 327 327 327 326 326 325 326 326 326 326 326 326 322

GFSSE_850_thetae_105.txt.gz
Theta_e
343 346 339 338 337 338 339 340 340 339 337 333 335 341 339 342 339 338 335 331 328 328 328 329 329 329 326 324 326 328 330 329 334 337 337 337 334 334 331 332 338 339 333
346 346 340 340 338 338 340 341 340 336 332 332 337 342 340 342 340 339 336 333 329 328 329 332 332 333 331 329 328 329 328 333 334 335 338 336 334 332 331 333 339 335 334
348 348 340 338 337 338 340 338 337 335 332 334 339 342 340 342 342 340 337 335 331 330 330 331 331 332 332 333 333 334 334 334 335 337 337 341 339 332 332 335 339 333 333
348 349 341 338 338 338 339 337 336 334 332 334 340 343 341 342 343 341 338 336 333 332 332 331 331 331 332 333 334 334 333 332 335 337 339 340 339 331 331 332 337 333 333
344 348 348 339 339 341 338 337 336 334 332 334 339 342 342 343 343 342 339 337 334 334 335 333 332 331 331 332 334 334 332 333 333 336 342 339 340 331 330 329 333 333 333
346 348 348 339 340 341 338 337 336 334 333 334 338 342 342 343 343 342 340 338 336 336 337 335 334 333 331 332 335 334 332 332 335 338 341 339 339 335 331 330 332 333 333
349 348 347 339 339 339 338 338 336 334 333 333 334 339 342 342 341 341 340 338 337 337 338 335 335 334 331 332 336 335 333 333 334 339 339 339 338 336 331 332 333 332 333
350 349 348 339 336 337 339 338 336 335 335 333 333 335 337 338 337 338 339 337 336 336 336 336 335 334 332 332 335 337 335 332 332 340 338 338 335 337 332 332 334 333 333
349 351 350 343 337 339 339 339 337 336 335 334 334 333 333 333 334 335 337 336 336 335 335 335 334 332 332 332 334 337 336 333 335 337 337 337 336 334 333 332 333 334 333
348 352 350 348 337 338 339 339 338 337 337 336 335 335 334 334 334 335 336 337 336 335 334 334 333 333 333 333 333 335 336 334 331 338 336 335 335 332 333 332 332 333 332
347 348 351 349 347 338 342 340 338 338 338 337 336 336 336 335 335 334 335 336 336 335 333 334 334 335 333 334 333 334 334 333 334 337 336 336 335 329 329 332 332 332 332
343 346 347 351 344 341 345 348 341 339 339 338 337 337 337 336 342 342 340 336 335 334 334 333 336 335 334 335 334 334 333 335 337 336 335 334 331 327 326 331 332 332 332
328 344 346 347 343 341 340 342 344 345 343 341 339 341 339 341 342 342 342 340 336 335 335 335 334 336 335 336 338 335 333 336 336 336 336 334 331 327 328 332 333 332 331
319 328 342 345 346 348 346 342 343 345 343 344 344 342 342 341 340 341 339 341 339 340 338 339 337 337 337 337 338 337 336 336 338 336 334 333 331 328 330 332 333 332 331
318 318 321 335 341 345 344 345 345 344 343 335 339 338 341 341 340 340 339 339 340 339 340 339 338 337 337 337 337 337 336 335 336 335 333 333 331 327 328 331 331 328 331
319 319 319 319 330 338 341 343 344 343 342 341 342 331 331 331 334 340 340 339 338 340 338 339 340 338 336 336 336 336 335 335 335 333 333 333 329 326 326 328 330 331 331
320 321 323 323 318 328 336 339 340 342 341 340 340 340 324 327 327 339 338 338 338 339 336 337 336 337 337 336 335 335 334 335 334 333 333 332 330 326 326 327 328 326 332
320 322 323 323 324 320 317 330 336 337 340 340 338 339 333 324 325 329 339 338 338 334 336 336 337 334 336 337 336 335 334 333 335 334 332 332 329 328 326 326 329 327 330
320 321 321 322 323 324 319 316 325 333 336 338 339 339 339 333 332 325 333 329 333 334 334 337 335 334 335 334 335 334 333 333 333 331 330 330 329 328 326 326 329 326 329
320 320 320 320 320 322 322 319 316 325 331 334 336 338 340 338 333 331 330 326 327 330 333 331 335 333 335 333 335 333 334 333 331 329 330 329 328 328 327 325 327 327 329
319 319 319 319 319 319 320 322 322 321 325 331 334 335 338 340 339 337 335 335 327 326 331 330 336 337 333 333 333 332 333 330 329 330 329 327 324 323 325 325 326 323 326
317 317 317 317 317 317 318 319 321 322 322 327 331 333 335 338 339 337 336 335 327 326 331 330 337 333 334 333 331 329 330 329 330 329 328 327 323 323 324 326 326 325 327
315 314 314 314 315 316 316 317 318 321 321 323 332 333 333 336 336 332 331 335 328 327 328 327 333 329 331 330 331 330 327 328 328 328 328 327 324 324 324 324 327 327 328
313 312 312 311 313 313 313 314 315 318 322 320 324 332 333 333 336 337 334 336 332 329 328 326 329 333 331 328 330 331 330 330 329 327 327 327 324 324 324 323 325 328 327
312 311 310 309 309 310 309 314 315 315 318 323 323 330 330 333 333 337 335 335 331 332 328 330 333 332 331 329 328 328 329 329 329 329 327 325 325 323 323 322 323 323 326
310 309 308 307 307 307 314 316 316 317 317 321 323 329 332 333 332 332 334 335 333 331 329 328 322 329 330 329 328 328 328 329 329 329 328 327 325 324 323 322 322 323 325

GFSSE_850_thetae_108.txt.gz
Theta_e
346 345 338 336 335 335 336 337 338 337 337 338 335 340 339 340 339 337 333 330 329 328 326 325 325 325 326 329 333 334 335 331 332 335 336 336 333 334 332 334 337 333 333
348 348 343 337 336 335 336 337 338 338 336 334 332 339 340 340 340 337 334 330 329 328 327 328 328 328 327 325 326 327 328 328 333 334 336 337 333 331 332 339 340 334 332
349 349 344 340 337 336 336 338 338 337 335 331 332 338 340 339 342 339 337 333 330 328 329 331 331 332 331 329 329 330 331 333 333 334 337 336 332 331 332 336 339 333 333
348 349 346 341 340 337 338 339 338 336 333 332 334 338 341 339 342 340 338 336 333 331 331 331 331 331 331 332 333 333 334 333 333 335 338 341 333 330 331 337 338 332 333
342 348 346 339 339 338 339 341 338 336 333 332 334 338 342 340 342 342 340 338 336 334 333 332 332 331 331 332 332 333 334 331 333 334 340 338 335 331 330 333 337 332 332
347 348 350 340 337 339 340 341 337 335 333 332 333 338 342 341 342 342 341 339 337 335 335 335 334 333 331 331 332 334 333 331 331 335 339 339 335 330 329 331 333 332 332
348 349 349 347 339 339 341 340 337 335 333 333 334 338 341 341 342 342 341 339 337 336 336 336 334 334 332 331 333 335 334 332 331 335 338 338 337 336 330 330 332 332 332
338 350 349 347 341 340 341 338 337 335 334 334 334 336 339 341 342 342 341 338 337 336 336 336 335 334 334 331 332 334 334 332 331 337 338 338 333 333 331 330 332 332 332
343 351 350 349 345 340 341 338 338 336 334 334 333 334 336 339 340 340 339 338 337 336 335 335 335 333 334 332 332 333 335 336 333 337 337 336 334 331 334 331 332 331 332
343 344 351 350 345 339 339 339 338 336 335 335 334 334 334 335 336 337 336 337 337 337 336 334 333 333 332 332 333 333 335 336 334 331 337 336 334 331 331 333 332 331 333
339 346 342 348 348 340 338 339 339 337 336 335 335 334 334 334 334 334 335 336 337 338 336 334 333 333 333 332 333 334 334 334 333 331 337 337 335 333 330 330 332 331 333
326 346 345 343 347 347 342 340 340 338 337 337 336 336 335 335 334 334 334 335 336 337 338 335 333 333 334 334 332 333 333 333 333 332 334 336 335 333 330 328 328 328 332
322 335 344 343 345 345 347 348 345 341 338 338 338 337 336 336 336 338 339 337 337 336 338 336 334 333 334 334 334 334 334 333 333 334 335 335 333 332 330 327 327 326 332
320 323 343 342 342 344 346 346 348 346 343 340 339 338 338 337 337 340 338 340 338 336 336 335 335 334 334 334 335 336 335 335 333 334 334 333 334 333 332 328 327 328 332
319 320 321 331 340 342 342 344 344 343 345 344 345 343 339 340 338 338 343 339 341 338 336 336 336 336 336 335 334 335 335 335 335 336 335 333 333 332 332 328 329 330 330
319 320 320 320 329 339 340 339 342 344 342 344 343 344 343 342 342 338 339 341 341 341 338 338 335 338 336 336 336 336 336 335 335 334 334 334 332 332 329 327 327 331 331
321 322 323 323 321 327 338 338 339 338 340 340 342 340 340 339 340 342 340 341 337 341 339 337 336 338 337 337 336 336 335 335 335 335 333 333 332 332 328 326 326 327 329
320 322 323 324 324 321 320 336 338 340 339 340 341 342 340 338 335 336 338 340 339 340 339 339 334 338 337 337 335 336 335 335 334 334 333 332 332 331 329 326 327 327 329
320 321 322 322 322 323 320 316 320 335 337 338 338 340 341 340 338 330 333 334 332 338 338 339 337 335 335 335 334 336 334 335 334 333 333 332 331 331 330 328 326 327 326
321 320 320 320 320 320 319 319 318 316 319 333 336 340 339 339 339 338 335 339 334 334 332 337 336 333 335 335 334 334 334 334 333 332 332 332 331 330 329 328 327 327 327
319 319 318 317 317 317 318 319 320 322 323 323 328 333 340 339 338 339 339 337 339 339 331 333 333 332 334 335 334 333 333 332 331 331 332 329 330 329 327 325 326 327 326
317 316 315 315 314 316 317 318 318 318 319 323 323 330 335 333 336 336 339 337 337 337 335 331 328 330 334 331 332 331 331 330 330 331 329 329 331 328 324 323 325 326 326
315 314 314 313 313 314 315 316 316 317 317 318 318 323 332 335 332 336 337 337 338 332 327 334 332 329 328 332 331 331 329 328 327 328 329 329 328 327 324 323 324 324 326
313 312 312 311 311 312 313 314 314 314 314 317 321 324 321 334 335 332 330 333 337 332 333 329 333 333 329 331 330 330 329 329 328 327 327 328 327 327 325 324 324 324 324
311 311 310 309 310 312 313 314 315 315 315 316 317 320 323 326 334 331 332 332 334 332 330 322 332 332 332 329 332 331 329 329 330 329 326 326 326 327 326 324 324 324 324
309 308 307 308 310 310 310 313 313 315 317 317 317 318 319 323 325 333 328 330 334 334 332 331 327 327 333 328 327 329 329 327 330 329 328 328 326 326 326 324 324 323 323

GFSSE_850_thetae_111.txt.gz
Theta_e
343 346 336 336 335 334 332 332 333 334 336 337 336 340 340 340 339 336 333 329 328 328 326 324 325 328 331 339 339 341 340 340 333 334 335 335 334 333 332 332 333 331 330
336 347 342 337 336 334 333 333 334 334 335 335 333 338 340 340 340 338 336 333 329 327 326 325 326 326 328 331 336 335 336 330 329 335 335 336 333 332 333 336 333 333 332
346 345 345 338 336 334 335 335 335 335 334 333 330 334 340 340 341 340 337 335 331 328 327 328 328 328 328 326 326 327 328 329 334 334 336 335 333 331 334 337 335 332 333
343 347 345 341 338 335 336 337 337 336 334 332 330 333 339 339 342 340 339 337 334 330 329 329 330 330 331 330 330 331 332 333 334 336 337 338 332 331 334 338 334 333 333
343 346 348 345 340 337 336 337 338 337 334 331 331 334 338 340 341 342 340 338 335 333 332 331 331 330 329 330 331 331 333 333 333 335 338 338 334 330 333 337 334 333 333
345 347 348 348 343 340 338 338 340 337 334 332 332 334 338 340 340 342 340 339 336 334 334 334 333 332 331 330 330 331 333 332 333 334 336 336 337 331 331 334 336 332 332
339 347 349 348 344 340 339 339 340 337 334 332 333 334 337 340 340 341 341 339 337 335 334 335 333 333 332 331 330 331 333 333 331 334 334 335 333 327 329 332 333 333 332
326 339 347 348 346 339 339 340 340 337 334 333 332 333 337 340 340 341 341 339 338 336 334 335 334 333 332 332 330 331 334 333 332 334 335 337 332 328 331 331 332 332 333
330 330 338 348 346 342 339 340 340 337 335 333 333 333 336 339 341 341 340 339 337 336 335 334 334 334 332 332 330 330 332 335 333 331 335 335 332 329 333 331 331 332 332
330 332 335 337 347 346 340 340 340 337 335 334 334 333 334 337 340 340 340 338 337 336 335 334 334 334 333 332 331 331 331 333 335 332 335 336 335 331 332 333 331 332 332
326 336 334 341 341 347 342 339 339 338 336 335 334 334 333 334 335 336 336 335 335 336 335 335 334 333 333 332 331 331 331 331 332 334 332 335 335 332 332 332 331 331 332
330 326 343 343 342 344 343 339 338 338 337 335 335 334 333 333 333 333 333 333 334 335 336 336 335 333 333 332 332 331 331 331 332 332 331 334 336 334 332 331 329 332 330
322 336 325 341 342 342 345 340 339 339 338 337 336 335 335 334 333 333 333 333 334 335 336 336 336 334 332 332 332 332 331 332 332 332 332 333 334 335 333 331 328 328 327
319 322 341 341 343 343 343 345 345 342 341 338 337 336 336 335 335 334 333 333 334 334 335 334 334 334 333 332 331 332 332 333 333 333 332 333 333 334 332 331 329 327 327
319 324 336 338 338 342 344 343 344 346 345 344 340 338 338 337 336 335 334 333 333 334 334 334 333 333 333 333 334 333 333 334 334 334 333 335 333 332 332 332 332 328 327
319 321 320 320 322 336 341 342 341 342 344 344 344 343 342 341 338 336 336 337 338 335 336 336 332 333 333 334 333 333 334 334 334 335 335 335 333 333 332 331 330 328 328
321 322 322 322 321 321 331 340 339 338 341 340 342 343 342 343 342 338 337 336 338 339 339 340 338 332 334 334 334 335 335 335 335 335 335 335 333 333 331 330 328 327 327
320 321 322 322 322 321 319 326 335 338 337 337 338 339 339 339 340 340 340 340 337 342 339 341 339 335 336 336 335 335 336 335 335 335 334 334 333 332 331 331 328 326 326
320 321 321 321 320 318 316 316 321 331 335 338 337 337 337 338 338 338 339 340 341 342 340 338 338 337 334 338 335 336 336 334 334 335 334 334 332 332 332 330 329 327 326
320 320 320 319 319 319 317 315 314 314 318 335 337 338 339 338 338 338 338 339 339 340 341 340 339 338 338 335 337 336 334 333 332 333 334 333 332 332 331 330 329 328 327
320 319 317 316 315 314 315 316 316 315 315 315 317 329 335 336 335 335 338 339 338 336 340 340 338 338 337 336 337 336 334 333 332 333 332 331 330 330 331 328 327 327 327
316 315 314 313 313 313 314 315 315 316 317 316 315 318 320 327 333 336 335 336 338 338 333 335 336 334 338 335 336 335 333 334 332 331 329 329 329 330 328 328 325 324 324
314 314 313 312 311 311 312 314 315 316 316 317 317 317 316 322 330 331 333 334 335 337 337 334 336 334 336 335 331 332 331 330 330 329 329 327 329 329 328 328 326 323 324
312 312 311 310 310 311 312 314 315 316 317 317 317 318 318 317 320 324 325 331 331 333 333 332 332 331 325 322 330 331 330 327 327 326 328 327 327 328 328 327 326 324 324
311 309 308 308 309 311 312 313 314 315 316 317 317 317 318 318 318 320 323 329 332 330 328 329 331 330 324 324 322 322 329 328 328 326 326 327 327 327 328 326 326 324 324
307 306 305 306 308 310 311 312 312 313 315 317 318 317 317 318 319 318 320 324 330 330 328 325 327 330 323 322 322 329 328 328 330 327 328 327 326 325 326 327 326 324 324

GFSSE_850_thetae_114.txt.gz
Theta_e
344 341 335 337 336 334 331 330 329 331 333 333 337 337 336 336 336 329 329 329 328 328 326 325 329 330 333 338 340 341 340 338 333 333 334 335 334 333 332 333 332 330 330
337 344 336 339 337 334 332 332 331 333 333 334 334 338 338 339 339 332 330 331 328 327 325 325 326 329 331 337 338 339 339 336 329 335 335 335 334 332 332 333 331 330 329
339 342 342 339 339 336 335 335 334 333 334 333 331 335 339 339 340 336 332 332 330 327 326 326 326 326 327 329 332 335 329 329 331 334 336 334 333 331 334 333 332 332 331
333 344 344 339 340 337 336 336 336 336 335 334 330 333 338 339 340 339 335 334 331 329 327 328 328 328 328 327 327 327 329 330 333 335 337 334 332 331 334 337 332 332 332
327 337 345 343 340 339 337 336 337 337 335 334 331 333 337 338 341 340 337 335 331 330 330 329 329 330 331 330 330 331 333 333 333 335 334 335 332 332 333 337 332 333 332
322 332 344 347 345 340 337 336 337 337 335 333 331 333 337 338 340 341 339 337 333 331 331 331 331 331 330 330 331 332 333 332 333 333 337 334 332 330 332 336 335 332 332
321 327 343 347 347 344 339 337 337 337 335 333 331 332 336 338 339 341 340 338 336 332 330 332 333 332 332 331 330 330 333 332 332 332 334 333 334 333 332 333 334 332 332
322 322 329 346 347 345 341 339 338 338 336 333 331 332 334 338 339 340 340 339 336 334 332 332 334 332 332 332 331 330 333 333 331 332 333 334 330 328 328 330 331 332 332
323 326 325 329 340 345 340 339 339 339 337 334 332 332 333 336 338 339 340 339 337 335 334 332 333 333 332 332 332 330 332 334 333 331 331 333 333 332 329 330 330 331 332
323 327 329 330 334 340 344 340 340 340 337 334 333 332 333 334 337 338 339 338 337 335 334 334 333 332 333 332 332 331 331 335 334 332 331 333 333 332 329 331 331 330 331
321 326 335 333 340 338 342 343 340 340 338 335 333 333 334 334 335 337 338 338 336 335 335 334 333 332 332 332 331 331 331 332 335 334 331 334 334 333 328 327 331 330 331
322 328 333 336 340 339 338 342 341 340 339 336 334 334 334 333 333 335 335 336 335 334 334 334 334 333 333 332 331 331 331 331 333 334 334 331 333 333 331 327 329 331 330
319 323 332 337 342 342 341 339 341 341 339 337 335 334 334 333 333 333 333 334 333 333 334 334 334 334 333 331 330 331 331 331 332 333 333 332 333 334 333 331 330 330 330
318 319 326 343 341 344 343 342 341 339 339 338 336 335 334 334 333 332 332 332 332 332 332 333 333 333 333 332 331 331 331 331 332 333 333 332 333 333 333 333 331 331 329
318 320 335 338 343 344 342 342 342 342 341 341 338 337 336 335 335 334 333 333 332 332 331 332 332 333 333 333 332 332 332 331 332 334 334 333 333 333 333 332 331 331 329
322 334 339 337 330 336 341 341 342 343 343 344 345 342 338 337 336 336 336 334 333 332 330 331 331 332 332 334 333 332 332 333 332 333 334 333 332 332 333 331 331 331 330
321 322 322 322 322 323 334 339 339 339 341 341 342 342 342 341 340 338 338 337 335 334 333 333 333 336 334 334 333 333 333 334 334 332 333 334 334 334 333 332 332 330 330
323 323 322 322 322 321 321 323 333 338 338 338 339 340 340 340 340 341 341 339 337 336 337 339 336 337 338 335 333 333 335 335 335 335 334 334 334 334 333 332 331 330 328
321 321 321 321 320 320 319 318 318 324 332 335 337 337 337 337 338 338 338 338 336 334 337 339 340 339 340 337 332 333 335 336 336 335 334 333 334 333 333 332 332 331 328
320 320 320 319 318 317 314 314 314 314 315 322 329 335 336 337 336 336 337 338 336 336 337 337 340 340 339 338 334 334 338 336 337 336 334 334 334 333 332 331 331 330 328
319 319 318 315 313 313 313 313 313 313 314 314 315 319 327 333 335 336 336 337 338 337 336 336 335 337 339 338 337 336 339 337 336 333 331 331 333 333 330 330 330 330 328
315 314 313 312 312 312 312 312 312 313 313 314 315 314 314 318 325 330 331 334 335 336 336 335 334 334 333 333 335 336 336 336 335 332 331 332 331 330 328 329 329 329 327
313 312 312 311 311 311 311 312 313 313 314 315 316 316 316 316 315 319 324 328 328 333 334 335 334 333 332 331 332 334 332 332 333 332 331 330 329 328 328 328 329 328 326
310 310 309 309 310 310 311 312 313 314 314 314 315 316 317 317 317 317 316 321 325 325 329 332 333 330 330 333 331 325 324 327 329 328 332 331 329 329 328 328 327 327 326
306 305 305 306 306 307 309 310 311 312 313 314 314 316 317 318 318 318 318 317 318 322 324 331 331 332 330 332 331 327 326 322 326 325 326 327 330 329 325 327 327 327 326
304 304 304 305 306 307 308 309 310 311 311 313 314 316 318 318 319 318 319 319 318 318 320 326 331 331 330 328 330 330 328 324 327 323 326 325 325 326 325 325 325 325 326

GFSSE_850_thetae_117.txt.gz
Theta_e
337 336 339 337 337 335 333 330 328 329 330 331 329 329 330 331 330 327 328 329 330 330 325 326 327 330 334 338 339 339 338 335 330 333 334 334 333 332 332 333 333 330 331
342 336 338 338 337 336 334 333 331 331 333 334 334 333 333 333 333 327 329 328 328 328 325 325 327 328 333 336 338 338 337 335 328 334 334 334 333 332 333 333 330 330 329
337 343 337 339 338 337 336 335 333 333 333 334 335 337 337 337 337 329 329 330 328 327 325 325 326 327 330 334 335 334 329 328 329 333 334 334 333 332 333 332 330 329 328
335 338 341 338 339 337 336 336 335 334 334 334 334 337 338 338 338 334 328 330 329 327 326 325 326 327 328 329 328 329 327 329 332 334 335 334 333 333 335 332 332 331 331
328 336 341 340 339 338 337 337 336 335 336 334 332 334 337 338 339 338 332 330 328 328 327 327 328 328 328 328 327 327 330 332 333 334 335 334 332 332 334 335 332 332 331
323 327 339 342 340 340 338 337 337 336 336 335 331 331 335 337 339 339 336 333 329 328 329 329 329 329 329 330 330 331 331 332 332 334 333 334 332 332 333 336 333 332 332
321 322 328 340 346 343 340 338 337 337 337 335 332 330 333 336 338 339 339 336 333 330 329 330 331 331 331 330 330 331 331 332 331 332 334 333 334 333 332 333 335 332 332
323 323 324 331 339 344 344 340 338 338 337 336 332 330 331 335 337 339 340 338 336 333 330 330 331 331 331 331 330 330 331 332 331 332 332 333 334 330 332 332 334 333 332
322 324 326 326 329 337 344 342 339 337 338 337 333 331 332 334 337 338 339 339 337 335 333 331 332 331 331 331 331 330 331 332 331 331 331 334 334 329 328 328 331 333 331
322 322 324 328 329 330 335 342 340 339 338 339 334 332 332 333 336 337 338 339 338 337 335 333 332 332 332 331 331 331 330 332 332 331 330 331 332 333 331 328 330 330 331
320 321 323 333 333 337 337 341 341 339 340 340 336 333 333 333 334 336 337 338 337 337 336 335 333 333 332 332 331 332 330 330 332 331 332 331 333 333 332 329 331 330 330
320 320 321 331 337 341 340 338 343 343 340 340 336 334 333 334 333 335 336 337 338 338 337 336 335 334 333 333 331 331 331 330 331 331 331 332 332 332 332 330 328 331 330
319 319 320 321 332 341 342 341 339 342 343 340 337 335 334 334 334 334 335 337 337 337 337 337 336 335 334 333 331 330 331 331 331 331 331 332 331 330 332 332 326 329 331
319 318 319 335 338 338 343 343 343 341 342 341 338 336 335 335 335 333 333 334 335 335 334 335 336 335 335 334 333 331 330 331 331 330 331 332 331 330 331 333 332 330 330
318 318 320 339 342 339 342 341 341 346 341 340 339 337 336 335 334 334 333 332 332 333 333 333 334 334 335 335 335 333 331 331 331 330 331 331 332 331 331 331 331 331 331
317 318 326 338 338 338 339 340 340 340 341 343 342 342 338 336 335 335 334 334 333 333 333 332 332 332 333 335 335 335 333 331 331 331 331 331 332 331 330 331 332 332 331
323 321 335 337 332 333 338 341 340 339 339 338 341 341 341 339 337 336 336 335 335 335 334 334 334 334 335 335 336 335 335 333 332 332 332 332 332 332 331 330 332 331 331
325 333 336 335 332 326 331 337 337 336 337 337 336 337 338 340 342 341 340 339 337 337 336 335 334 336 335 336 336 335 335 335 333 333 332 331 332 332 332 331 332 332 331
324 325 324 322 321 321 321 320 320 322 329 332 332 332 333 333 333 336 339 340 340 338 337 333 333 336 334 337 337 338 336 335 334 333 333 332 332 333 332 332 332 332 331
320 321 321 321 320 320 319 318 315 314 315 317 321 324 327 330 331 331 332 335 337 338 336 333 332 331 327 333 334 336 337 334 335 335 335 334 334 334 333 333 333 332 331
315 316 317 316 315 313 312 312 312 312 312 313 313 314 315 319 326 330 332 333 334 334 336 336 335 331 328 334 331 326 331 333 331 333 334 335 335 335 334 333 332 331 331
312 312 312 312 312 311 311 311 312 312 312 312 312 313 314 314 314 315 321 328 330 331 334 334 336 337 336 335 333 332 333 329 326 330 333 333 333 332 333 333 331 330 330
309 309 310 310 311 311 311 311 311 311 312 313 313 313 314 315 316 316 315 315 318 324 326 329 335 337 335 335 335 333 331 331 330 327 329 328 330 330 330 330 330 327 328
303 305 306 306 306 306 306 306 306 306 309 310 311 312 313 314 316 317 317 317 316 315 317 322 326 330 333 334 333 333 332 330 329 329 327 328 324 330 330 328 328 326 328
303 302 304 305 306 306 306 306 306 307 308 309 311 312 313 313 316 317 318 318 318 318 317 316 318 323 328 330 332 331 332 331 329 324 323 322 324 327 330 328 328 327 327
303 302 303 304 305 305 306 306 307 308 309 310 311 311 312 313 313 316 318 319 319 319 319 318 317 318 322 327 329 330 330 330 327 323 323 324 322 323 326 328 327 328 326

GFSSE_850_thetae_120.txt.gz
Theta_e
339 334 336 337 336 335 334 332 331 329 328 325 325 326 326 326 323 327 329 330 330 326 325 326 328 331 334 336 338 336 334 331 329 332 334 333 333 333 334 335 333 331 331
336 334 337 336 336 336 335 334 333 332 330 328 327 328 329 330 326 325 327 327 328 326 324 325 328 330 333 334 335 334 332 331 328 332 332 334 333 334 332 333 331 331 329
340 336 337 336 336 337 336 335 334 334 332 333 332 331 332 331 329 322 327 327 327 326 324 325 327 329 330 332 332 331 328 327 328 332 332 334 332 331 331 331 330 330 325
333 340 336 338 337 337 336 336 335 335 335 334 335 335 334 335 334 326 325 327 327 326 325 325 326 327 327 329 329 328 327 328 330 332 332 334 332 332 332 331 330 329 326
328 333 338 338 339 338 337 337 336 335 335 334 334 336 337 337 336 333 326 326 327 326 325 326 326 327 327 327 327 327 328 330 332 332 332 334 332 332 334 332 331 331 332
325 329 336 340 339 339 338 337 337 336 336 335 334 334 336 337 338 337 331 327 326 327 327 327 327 327 327 328 328 328 329 330 332 332 332 334 332 332 333 334 332 332 331
326 331 336 340 340 340 340 338 337 336 336 336 335 332 335 337 338 338 337 332 328 326 327 328 328 329 329 329 328 329 328 329 331 331 332 332 334 331 333 334 334 332 332
324 325 330 335 341 343 342 340 338 337 337 337 335 332 333 336 337 338 338 336 333 329 328 328 329 330 330 330 329 329 328 329 331 331 331 332 333 332 332 332 334 332 332
322 323 324 324 326 332 340 343 341 339 338 338 337 333 332 335 336 337 339 339 336 333 330 329 330 330 331 331 330 329 328 329 331 331 330 332 333 334 329 332 332 333 332
321 322 322 322 324 327 329 336 342 341 339 339 339 335 333 334 336 336 338 339 338 336 333 331 330 331 331 331 331 331 329 329 331 331 330 330 332 332 331 330 329 331 332
320 321 321 323 330 330 330 333 340 341 340 339 339 337 334 335 336 336 336 338 339 338 336 333 332 331 331 332 331 331 330 328 329 330 330 330 331 332 332 331 328 329 331
319 320 320 323 329 333 337 338 337 340 341 339 339 339 335 334 336 337 336 336 338 338 338 336 334 333 332 333 332 332 330 329 328 329 330 331 331 333 332 332 329 330 330
318 319 319 322 326 334 340 338 338 336 339 344 340 339 336 335 336 338 337 336 336 337 338 338 336 335 334 333 332 332 331 330 329 328 329 330 331 331 332 333 330 329 328
316 318 321 321 323 333 340 341 340 338 338 339 343 340 338 336 336 337 338 337 336 337 338 338 337 336 334 334 334 333 332 330 329 328 328 330 331 332 330 331 332 330 327
317 316 320 321 332 340 335 340 341 339 338 339 341 340 338 336 336 336 337 338 337 338 338 339 338 337 335 334 334 334 334 332 330 329 329 329 330 330 331 330 330 332 331
318 317 316 318 325 330 337 336 340 336 336 342 339 339 338 337 337 336 336 336 336 336 337 337 336 336 336 335 335 334 334 334 332 331 330 329 329 330 331 330 330 330 331
316 320 318 321 325 328 333 333 337 338 338 340 340 339 338 338 338 338 337 337 336 335 334 334 334 334 335 336 336 335 335 335 335 333 331 331 330 330 331 331 330 330 331
320 330 334 338 338 335 336 336 337 338 338 337 338 337 337 337 337 336 339 337 337 336 336 335 335 334 334 334 334 335 335 335 335 335 334 332 332 332 332 332 331 330 330
325 327 327 327 327 329 332 334 334 334 334 333 332 332 332 333 333 334 334 337 339 339 339 338 335 335 336 333 328 335 332 333 334 333 333 333 333 333 333 333 332 331 332
318 319 320 320 320 319 320 320 320 319 318 317 318 322 324 325 327 330 329 330 331 332 334 336 336 335 335 332 327 323 330 331 332 332 332 332 332 331 331 332 333 333 332
314 314 314 315 315 314 314 313 313 313 312 312 312 313 313 314 315 317 322 326 327 328 329 332 333 334 334 332 330 326 329 327 326 329 331 330 331 331 330 329 330 333 333
309 309 310 310 311 310 311 311 311 311 311 311 311 312 312 313 313 314 314 314 315 318 324 327 331 334 334 336 329 332 327 326 324 324 327 324 329 329 328 324 329 331 332
304 305 305 306 308 308 309 310 310 310 311 311 311 311 312 312 313 313 314 315 315 314 314 316 323 326 331 331 333 334 332 331 330 330 330 323 327 327 325 323 329 329 329
301 302 303 304 305 304 305 306 307 306 306 306 306 306 309 311 312 313 315 316 317 316 316 316 315 317 323 329 330 331 334 332 331 330 330 329 325 323 328 324 323 327 328
299 301 302 303 306 304 304 304 306 306 306 307 307 308 308 310 312 313 313 316 318 318 318 318 317 317 316 320 327 328 328 333 331 330 329 329 328 326 326 326 323 324 327
299 301 302 302 303 304 305 304 305 306 307 307 308 309 309 310 311 312 313 314 316 317 318 317 317 318 318 316 318 326 326 328 330 330 328 327 326 326 326 324 322 323 328

GFSSE_850_thetae_123.txt.gz
Theta_e
341 338 337 337 337 335 332 332 332 329 327 325 325 324 322 320 323 326 328 328 326 324 326 327 327 330 333 336 335 333 332 330 329 332 333 333 332 333 334 335 332 333 328
336 337 334 337 336 335 333 331 331 330 329 328 327 324 323 324 321 325 326 327 326 324 324 326 328 330 332 332 333 332 332 330 329 332 332 333 333 332 333 334 330 331 328
336 335 334 336 335 335 335 333 333 333 331 330 328 328 327 326 321 323 325 326 326 325 324 325 326 327 329 330 330 329 328 328 329 332 332 336 332 330 331 331 330 329 325
337 336 335 336 335 336 336 335 335 335 334 333 332 331 331 329 326 321 324 324 325 325 324 325 326 326 327 327 328 328 327 327 329 332 332 333 331 330 331 330 330 328 323
333 337 336 338 337 336 337 336 336 336 336 336 335 334 334 334 332 325 322 323 325 325 325 325 326 326 326 327 327 327 327 328 330 331 332 333 332 332 332 331 330 328 326
329 332 337 338 338 338 337 337 337 337 336 336 336 336 336 336 336 333 326 323 324 325 325 325 326 326 326 327 327 327 327 329 330 331 331 333 332 332 334 332 331 331 331
328 329 332 337 339 339 339 338 338 337 336 336 336 335 336 336 337 336 333 327 324 325 326 326 326 327 327 327 327 327 328 329 330 331 331 332 333 331 333 334 333 332 332
323 324 324 325 331 339 340 340 339 338 337 337 337 335 334 335 336 337 336 334 330 326 326 327 327 328 328 328 328 328 328 328 330 331 331 332 333 331 332 332 334 333 332
324 324 324 325 325 331 340 341 340 339 338 338 338 336 334 334 335 336 337 336 334 331 328 328 329 329 329 330 329 329 328 328 329 330 331 330 332 333 333 329 332 334 332
321 322 323 326 326 327 330 335 342 341 340 338 338 338 336 334 334 335 336 337 336 335 333 330 330 330 330 330 330 329 329 328 328 330 331 330 331 333 333 330 332 332 332
319 320 321 323 326 329 333 332 335 339 341 340 339 339 338 335 334 334 335 336 337 336 335 333 332 332 332 332 331 330 330 329 328 329 331 330 330 331 332 331 330 330 331
316 316 319 322 327 332 333 334 336 338 340 340 340 339 339 336 334 335 335 334 336 336 336 335 334 334 334 333 332 331 330 330 329 328 329 331 330 330 332 332 332 328 329
318 318 317 318 323 329 337 339 338 337 337 340 341 339 339 338 335 335 337 336 335 336 337 336 335 335 336 334 333 331 330 330 329 329 329 330 331 331 332 332 333 330 329
317 318 318 317 321 326 334 340 340 337 337 336 337 343 340 339 337 335 337 338 336 335 336 337 337 337 336 335 334 333 331 331 330 329 329 329 330 332 331 332 332 332 330
315 317 318 316 316 327 329 337 336 341 340 338 337 339 342 340 339 337 336 337 338 336 335 336 337 338 338 337 335 334 333 332 331 330 329 329 329 330 332 332 330 331 332
312 315 317 317 316 333 332 328 328 331 339 336 335 338 340 339 339 340 338 338 338 339 338 337 337 338 338 338 337 336 334 334 333 332 331 329 330 330 330 332 331 331 331
313 315 317 318 316 323 330 329 330 326 329 335 335 336 337 338 338 337 337 339 337 338 340 339 336 337 338 339 338 337 336 334 333 333 333 332 330 330 331 331 331 331 331
321 325 327 329 331 337 337 333 333 333 331 332 334 332 333 333 334 334 334 333 336 337 337 337 335 335 335 335 335 336 336 334 334 330 333 333 333 331 330 331 332 332 331
319 321 323 325 327 328 330 331 331 332 333 333 333 333 333 333 333 333 334 334 334 335 338 337 337 336 336 335 335 335 335 336 334 334 327 332 332 334 332 331 331 331 332
314 314 315 316 318 319 320 321 320 320 321 321 322 323 323 323 325 326 328 329 330 331 333 335 336 336 336 335 335 335 335 333 334 330 323 330 330 331 332 331 332 331 331
310 311 311 310 312 312 313 314 313 312 312 313 313 313 313 313 313 314 315 317 320 324 326 328 330 331 333 335 335 332 325 327 328 325 324 324 329 329 330 327 329 330 329
306 306 307 307 307 308 309 310 310 310 311 311 311 312 312 312 312 312 313 313 314 314 314 317 323 327 330 332 334 333 331 328 328 327 326 324 326 327 327 325 322 325 326
304 304 304 304 305 306 306 306 307 308 308 308 308 309 310 311 312 312 313 313 314 315 315 315 315 317 323 330 331 331 330 329 329 328 325 324 327 327 325 322 322 324 324
302 302 303 304 305 306 306 306 306 306 306 305 306 307 308 309 310 311 312 312 314 315 316 316 316 315 315 320 328 332 329 330 330 331 329 328 328 327 325 323 324 324 323
303 303 303 303 302 304 305 307 307 306 305 304 303 306 307 308 309 310 311 312 313 315 316 317 317 317 316 315 317 326 329 330 328 329 329 330 329 328 327 329 328 324 324
304 305 305 304 304 303 304 307 307 304 305 304 305 305 307 307 308 309 310 311 312 312 314 315 315 314 315 316 316 316 323 327 328 326 327 328 328 329 329 329 328 324 324